Wetterdaten: Montag, 22.08.2016
Datum Zeit Temp. A. Temp. A. max Feuchte A. Luftdruck Regen Wind Richtung Richtung Sonnenschein ET UV Solar Taupunkt Windben
22.08.2016 00:00 12,1 C 12,1 C 84 % 1025,1 hPa 0,0 mm 7,8 km/h (2 Bft) S-SW 192 0 min 0,000 mm 0,0 UV-I 0 W/m 9,5 C 11,3 km/h (2 Bft)
22.08.2016 00:01 12,1 C 12,1 C 84 % 1025,2 hPa 0,0 mm 7,7 km/h (2 Bft) S 171 0 min 0,000 mm 0,0 UV-I 0 W/m 9,5 C 12,9 km/h (3 Bft)
22.08.2016 00:02 12,1 C 12,1 C 84 % 1025,2 hPa 0,0 mm 7,6 km/h (2 Bft) S 174 0 min 0,000 mm 0,0 UV-I 0 W/m 9,5 C 9,7 km/h (2 Bft)
22.08.2016 00:03 12,1 C 12,1 C 85 % 1025,2 hPa 0,0 mm 6,1 km/h (2 Bft) S-SW 197 0 min 0,000 mm 0,0 UV-I 0 W/m 9,7 C 9,7 km/h (2 Bft)
22.08.2016 00:04 12,1 C 12,1 C 84 % 1025,2 hPa 0,0 mm 9,4 km/h (2 Bft) S 180 0 min 0,000 mm 0,0 UV-I 0 W/m 9,5 C 14,5 km/h (3 Bft)
22.08.2016 00:05 12,1 C 12,2 C 84 % 1025,3 hPa 0,0 mm 5,4 km/h (1 Bft) S-SO 168 0 min 0,000 mm 0,0 UV-I 0 W/m 9,5 C 8,0 km/h (2 Bft)
22.08.2016 00:06 12,1 C 12,2 C 84 % 1025,3 hPa 0,0 mm 6,0 km/h (2 Bft) S-SW 209 0 min 0,000 mm 0,0 UV-I 0 W/m 9,5 C 9,7 km/h (2 Bft)
22.08.2016 00:07 12,1 C 12,2 C 84 % 1025,3 hPa 0,0 mm 7,8 km/h (2 Bft) S-SW 200 0 min 0,000 mm 0,0 UV-I 0 W/m 9,5 C 12,9 km/h (3 Bft)
22.08.2016 00:08 12,1 C 12,1 C 84 % 1025,3 hPa 0,0 mm 7,2 km/h (2 Bft) S-SO 167 0 min 0,000 mm 0,0 UV-I 0 W/m 9,5 C 9,7 km/h (2 Bft)
22.08.2016 00:09 12,1 C 12,1 C 84 % 1025,3 hPa 0,0 mm 5,8 km/h (2 Bft) S-SO 159 0 min 0,000 mm 0,0 UV-I 0 W/m 9,5 C 8,0 km/h (2 Bft)
22.08.2016 00:10 12,1 C 12,1 C 83 % 1025,3 hPa 0,0 mm 7,3 km/h (2 Bft) S-SW 194 0 min 0,000 mm 0,0 UV-I 0 W/m 9,3 C 9,7 km/h (2 Bft)
22.08.2016 00:11 12,2 C 12,2 C 84 % 1025,3 hPa 0,0 mm 5,6 km/h (1 Bft) S 177 0 min 0,000 mm 0,0 UV-I 0 W/m 9,6 C 9,7 km/h (2 Bft)
22.08.2016 00:12 12,2 C 12,2 C 84 % 1025,3 hPa 0,0 mm 7,0 km/h (2 Bft) S-SW 196 0 min 0,000 mm 0,0 UV-I 0 W/m 9,6 C 9,7 km/h (2 Bft)
22.08.2016 00:13 12,2 C 12,2 C 84 % 1025,3 hPa 0,0 mm 8,3 km/h (2 Bft) S 173 0 min 0,000 mm 0,0 UV-I 0 W/m 9,6 C 12,9 km/h (3 Bft)
22.08.2016 00:14 12,1 C 12,2 C 84 % 1025,3 hPa 0,0 mm 6,8 km/h (2 Bft) S 185 0 min 0,000 mm 0,0 UV-I 0 W/m 9,5 C 9,7 km/h (2 Bft)
22.08.2016 00:15 12,1 C 12,2 C 84 % 1025,4 hPa 0,0 mm 5,0 km/h (1 Bft) S 188 0 min 0,000 mm 0,0 UV-I 0 W/m 9,5 C 6,4 km/h (2 Bft)
22.08.2016 00:16 12,1 C 12,1 C 84 % 1025,4 hPa 0,0 mm 5,8 km/h (2 Bft) S 173 0 min 0,000 mm 0,0 UV-I 0 W/m 9,5 C 9,7 km/h (2 Bft)
22.08.2016 00:17 12,1 C 12,1 C 83 % 1025,4 hPa 0,0 mm 6,2 km/h (2 Bft) S 188 0 min 0,000 mm 0,0 UV-I 0 W/m 9,3 C 8,0 km/h (2 Bft)
22.08.2016 00:18 12,1 C 12,2 C 83 % 1025,4 hPa 0,0 mm 3,6 km/h (1 Bft) S-SW 196 0 min 0,000 mm 0,0 UV-I 0 W/m 9,3 C 6,4 km/h (2 Bft)
22.08.2016 00:19 12,2 C 12,2 C 84 % 1025,4 hPa 0,0 mm 4,2 km/h (1 Bft) S 188 0 min 0,000 mm 0,0 UV-I 0 W/m 9,6 C 6,4 km/h (2 Bft)
22.08.2016 00:20 12,1 C 12,2 C 84 % 1025,4 hPa 0,0 mm 4,8 km/h (1 Bft) S-SW 197 0 min 0,000 mm 0,0 UV-I 0 W/m 9,5 C 8,0 km/h (2 Bft)
22.08.2016 00:21 12,1 C 12,2 C 84 % 1025,4 hPa 0,0 mm 4,9 km/h (1 Bft) S-SW 203 0 min 0,000 mm 0,0 UV-I 0 W/m 9,5 C 6,4 km/h (2 Bft)
22.08.2016 00:22 12,1 C 12,1 C 84 % 1025,4 hPa 0,0 mm 6,1 km/h (2 Bft) S-SW 209 0 min 0,000 mm 0,0 UV-I 0 W/m 9,5 C 8,0 km/h (2 Bft)
22.08.2016 00:23 12,1 C 12,1 C 84 % 1025,4 hPa 0,0 mm 3,4 km/h (1 Bft) S-SW 192 0 min 0,000 mm 0,0 UV-I 0 W/m 9,5 C 4,8 km/h (1 Bft)
22.08.2016 00:24 12,1 C 12,1 C 84 % 1025,3 hPa 0,0 mm 5,1 km/h (1 Bft) S 191 0 min 0,000 mm 0,0 UV-I 0 W/m 9,5 C 8,0 km/h (2 Bft)
22.08.2016 00:25 12,0 C 12,1 C 85 % 1025,4 hPa 0,0 mm 3,3 km/h (1 Bft) S 186 0 min 0,000 mm 0,0 UV-I 0 W/m 9,6 C 4,8 km/h (1 Bft)
22.08.2016 00:26 12,0 C 12,0 C 84 % 1025,4 hPa 0,0 mm 4,4 km/h (1 Bft) S-SW 205 0 min 0,000 mm 0,0 UV-I 0 W/m 9,4 C 8,0 km/h (2 Bft)
22.08.2016 00:27 11,9 C 12,0 C 85 % 1025,4 hPa 0,0 mm 3,9 km/h (1 Bft) S 178 0 min 0,000 mm 0,0 UV-I 0 W/m 9,5 C 8,0 km/h (2 Bft)
22.08.2016 00:28 11,9 C 11,9 C 84 % 1025,4 hPa 0,0 mm 3,8 km/h (1 Bft) S 175 0 min 0,000 mm 0,0 UV-I 0 W/m 9,3 C 8,0 km/h (2 Bft)
22.08.2016 00:29 11,9 C 11,9 C 85 % 1025,4 hPa 0,0 mm 3,8 km/h (1 Bft) SW 219 0 min 0,000 mm 0,0 UV-I 0 W/m 9,5 C 4,8 km/h (1 Bft)
22.08.2016 00:30 11,9 C 11,9 C 85 % 1025,4 hPa 0,0 mm 3,6 km/h (1 Bft) S 184 0 min 0,000 mm 0,0 UV-I 0 W/m 9,5 C 4,8 km/h (1 Bft)
22.08.2016 00:31 11,9 C 11,9 C 85 % 1025,5 hPa 0,0 mm 4,4 km/h (1 Bft) S-SW 202 0 min 0,000 mm 0,0 UV-I 0 W/m 9,5 C 6,4 km/h (2 Bft)
22.08.2016 00:32 11,9 C 11,9 C 85 % 1025,5 hPa 0,0 mm 5,0 km/h (1 Bft) S-SO 168 0 min 0,000 mm 0,0 UV-I 0 W/m 9,5 C 6,4 km/h (2 Bft)
22.08.2016 00:33 11,9 C 11,9 C 85 % 1025,5 hPa 0,0 mm 2,5 km/h (1 Bft) S 189 0 min 0,000 mm 0,0 UV-I 0 W/m 9,5 C 4,8 km/h (1 Bft)
22.08.2016 00:34 11,9 C 11,9 C 85 % 1025,5 hPa 0,0 mm 5,9 km/h (2 Bft) S 185 0 min 0,000 mm 0,0 UV-I 0 W/m 9,5 C 8,0 km/h (2 Bft)
22.08.2016 00:35 11,9 C 11,9 C 85 % 1025,5 hPa 0,0 mm 6,9 km/h (2 Bft) S 182 0 min 0,000 mm 0,0 UV-I 0 W/m 9,5 C 9,7 km/h (2 Bft)
22.08.2016 00:36 11,9 C 11,9 C 85 % 1025,5 hPa 0,0 mm 6,5 km/h (2 Bft) S 171 0 min 0,000 mm 0,0 UV-I 0 W/m 9,5 C 9,7 km/h (2 Bft)
22.08.2016 00:37 11,9 C 11,9 C 85 % 1025,5 hPa 0,0 mm 3,5 km/h (1 Bft) S 178 0 min 0,000 mm 0,0 UV-I 0 W/m 9,5 C 4,8 km/h (1 Bft)
22.08.2016 00:38 11,9 C 11,9 C 85 % 1025,5 hPa 0,0 mm 3,8 km/h (1 Bft) S 177 0 min 0,000 mm 0,0 UV-I 0 W/m 9,5 C 6,4 km/h (2 Bft)
22.08.2016 00:39 11,9 C 11,9 C 85 % 1025,5 hPa 0,0 mm 4,9 km/h (1 Bft) S 181 0 min 0,000 mm 0,0 UV-I 0 W/m 9,5 C 8,0 km/h (2 Bft)
22.08.2016 00:40 11,9 C 11,9 C 86 % 1025,6 hPa 0,0 mm 7,6 km/h (2 Bft) S-SW 205 0 min 0,000 mm 0,0 UV-I 0 W/m 9,6 C 9,7 km/h (2 Bft)
22.08.2016 00:41 11,9 C 11,9 C 85 % 1025,6 hPa 0,0 mm 6,0 km/h (2 Bft) S-SW 196 0 min 0,000 mm 0,0 UV-I 0 W/m 9,5 C 8,0 km/h (2 Bft)
22.08.2016 00:42 11,9 C 11,9 C 85 % 1025,6 hPa 0,0 mm 5,7 km/h (1 Bft) S 171 0 min 0,000 mm 0,0 UV-I 0 W/m 9,5 C 9,7 km/h (2 Bft)
22.08.2016 00:43 11,9 C 11,9 C 85 % 1025,6 hPa 0,0 mm 3,8 km/h (1 Bft) S-SW 205 0 min 0,000 mm 0,0 UV-I 0 W/m 9,5 C 8,0 km/h (2 Bft)
22.08.2016 00:44 12,0 C 12,0 C 85 % 1025,6 hPa 0,0 mm 5,7 km/h (1 Bft) S 184 0 min 0,000 mm 0,0 UV-I 0 W/m 9,6 C 8,0 km/h (2 Bft)
22.08.2016 00:45 12,0 C 12,0 C 85 % 1025,6 hPa 0,0 mm 5,2 km/h (1 Bft) S 180 0 min 0,000 mm 0,0 UV-I 0 W/m 9,6 C 9,7 km/h (2 Bft)
22.08.2016 00:46 12,0 C 12,0 C 85 % 1025,6 hPa 0,0 mm 5,4 km/h (1 Bft) S 187 0 min 0,000 mm 0,0 UV-I 0 W/m 9,6 C 8,0 km/h (2 Bft)
22.08.2016 00:47 12,0 C 12,0 C 85 % 1025,6 hPa 0,0 mm 7,0 km/h (2 Bft) S-SO 167 0 min 0,000 mm 0,0 UV-I 0 W/m 9,6 C 11,3 km/h (2 Bft)
22.08.2016 00:48 12,0 C 12,0 C 85 % 1025,6 hPa 0,0 mm 7,6 km/h (2 Bft) S 172 0 min 0,000 mm 0,0 UV-I 0 W/m 9,6 C 11,3 km/h (2 Bft)
22.08.2016 00:49 12,0 C 12,1 C 85 % 1025,6 hPa 0,0 mm 5,4 km/h (1 Bft) S-SW 196 0 min 0,000 mm 0,0 UV-I 0 W/m 9,6 C 8,0 km/h (2 Bft)
22.08.2016 00:50 12,1 C 12,1 C 84 % 1025,6 hPa 0,0 mm 4,6 km/h (1 Bft) S 187 0 min 0,000 mm 0,0 UV-I 0 W/m 9,5 C 8,0 km/h (2 Bft)
22.08.2016 00:51 12,0 C 12,1 C 85 % 1025,6 hPa 0,0 mm 5,2 km/h (1 Bft) SW 228 0 min 0,000 mm 0,0 UV-I 0 W/m 9,6 C 9,7 km/h (2 Bft)
22.08.2016 00:52 12,1 C 12,1 C 84 % 1025,6 hPa 0,0 mm 6,0 km/h (2 Bft) S 180 0 min 0,000 mm 0,0 UV-I 0 W/m 9,5 C 8,0 km/h (2 Bft)
22.08.2016 00:53 12,1 C 12,1 C 84 % 1025,6 hPa 0,0 mm 6,0 km/h (2 Bft) S-SW 213 0 min 0,000 mm 0,0 UV-I 0 W/m 9,5 C 9,7 km/h (2 Bft)
22.08.2016 00:54 12,1 C 12,1 C 84 % 1025,6 hPa 0,0 mm 4,8 km/h (1 Bft) S 188 0 min 0,000 mm 0,0 UV-I 0 W/m 9,5 C 6,4 km/h (2 Bft)
22.08.2016 00:55 12,1 C 12,1 C 83 % 1025,6 hPa 0,0 mm 4,6 km/h (1 Bft) S-SW 199 0 min 0,000 mm 0,0 UV-I 0 W/m 9,3 C 6,4 km/h (2 Bft)
22.08.2016 00:56 12,1 C 12,1 C 84 % 1025,6 hPa 0,0 mm 5,8 km/h (2 Bft) S 180 0 min 0,000 mm 0,0 UV-I 0 W/m 9,5 C 8,0 km/h (2 Bft)
22.08.2016 00:57 12,1 C 12,1 C 84 % 1025,7 hPa 0,0 mm 4,4 km/h (1 Bft) S 186 0 min 0,000 mm 0,0 UV-I 0 W/m 9,5 C 6,4 km/h (2 Bft)
22.08.2016 00:58 12,1 C 12,1 C 84 % 1025,7 hPa 0,0 mm 4,9 km/h (1 Bft) SW 217 0 min 0,000 mm 0,0 UV-I 0 W/m 9,5 C 6,4 km/h (2 Bft)
22.08.2016 00:59 12,1 C 12,1 C 84 % 1025,7 hPa 0,0 mm 3,2 km/h (1 Bft) S-SW 207 0 min 0,000 mm 0,0 UV-I 0 W/m 9,5 C 4,8 km/h (1 Bft)
22.08.2016 01:00 12,1 C 12,1 C 84 % 1025,6 hPa 0,0 mm 3,2 km/h (1 Bft) S 186 0 min 0,025 mm 0,0 UV-I 0 W/m 9,5 C 4,8 km/h (1 Bft)
22.08.2016 01:01 12,1 C 12,1 C 84 % 1025,6 hPa 0,0 mm 3,7 km/h (1 Bft) S 175 0 min 0,000 mm 0,0 UV-I 0 W/m 9,5 C 6,4 km/h (2 Bft)
22.08.2016 01:02 12,1 C 12,1 C 84 % 1025,7 hPa 0,0 mm 4,0 km/h (1 Bft) S-SW 195 0 min 0,000 mm 0,0 UV-I 0 W/m 9,5 C 6,4 km/h (2 Bft)
22.08.2016 01:03 12,1 C 12,1 C 84 % 1025,7 hPa 0,0 mm 2,9 km/h (1 Bft) S-SW 210 0 min 0,000 mm 0,0 UV-I 0 W/m 9,5 C 4,8 km/h (1 Bft)
22.08.2016 01:04 12,0 C 12,1 C 84 % 1025,7 hPa 0,0 mm 3,2 km/h (1 Bft) S-SW 200 0 min 0,000 mm 0,0 UV-I 0 W/m 9,4 C 4,8 km/h (1 Bft)
22.08.2016 01:05 11,9 C 12,0 C 84 % 1025,7 hPa 0,0 mm 3,8 km/h (1 Bft) S 182 0 min 0,000 mm 0,0 UV-I 0 W/m 9,3 C 6,4 km/h (2 Bft)
22.08.2016 01:06 11,9 C 11,9 C 84 % 1025,7 hPa 0,0 mm 2,7 km/h (1 Bft) S 177 0 min 0,000 mm 0,0 UV-I 0 W/m 9,3 C 4,8 km/h (1 Bft)
22.08.2016 01:07 11,9 C 11,9 C 84 % 1025,7 hPa 0,0 mm 4,0 km/h (1 Bft) S-SW 210 0 min 0,000 mm 0,0 UV-I 0 W/m 9,3 C 8,0 km/h (2 Bft)
22.08.2016 01:08 11,9 C 11,9 C 84 % 1025,7 hPa 0,0 mm 4,5 km/h (1 Bft) S 171 0 min 0,000 mm 0,0 UV-I 0 W/m 9,3 C 6,4 km/h (2 Bft)
22.08.2016 01:09 11,9 C 11,9 C 84 % 1025,7 hPa 0,0 mm 4,3 km/h (1 Bft) S 184 0 min 0,000 mm 0,0 UV-I 0 W/m 9,3 C 6,4 km/h (2 Bft)
22.08.2016 01:10 11,9 C 11,9 C 84 % 1025,7 hPa 0,0 mm 3,0 km/h (1 Bft) S 184 0 min 0,000 mm 0,0 UV-I 0 W/m 9,3 C 4,8 km/h (1 Bft)
22.08.2016 01:11 11,9 C 11,9 C 84 % 1025,7 hPa 0,0 mm 4,1 km/h (1 Bft) S-SO 167 0 min 0,000 mm 0,0 UV-I 0 W/m 9,3 C 6,4 km/h (2 Bft)
22.08.2016 01:12 11,9 C 11,9 C 84 % 1025,7 hPa 0,0 mm 4,4 km/h (1 Bft) S 179 0 min 0,000 mm 0,0 UV-I 0 W/m 9,3 C 8,0 km/h (2 Bft)
22.08.2016 01:13 11,9 C 11,9 C 84 % 1025,7 hPa 0,0 mm 3,9 km/h (1 Bft) S-SW 207 0 min 0,000 mm 0,0 UV-I 0 W/m 9,3 C 4,8 km/h (1 Bft)
22.08.2016 01:14 11,9 C 11,9 C 84 % 1025,7 hPa 0,0 mm 3,8 km/h (1 Bft) W-SW 240 0 min 0,000 mm 0,0 UV-I 0 W/m 9,3 C 6,4 km/h (2 Bft)
22.08.2016 01:15 11,9 C 11,9 C 84 % 1025,7 hPa 0,0 mm 5,6 km/h (1 Bft) S 174 0 min 0,000 mm 0,0 UV-I 0 W/m 9,3 C 8,0 km/h (2 Bft)
22.08.2016 01:16 11,9 C 11,9 C 84 % 1025,8 hPa 0,0 mm 3,7 km/h (1 Bft) S-SW 198 0 min 0,000 mm 0,0 UV-I 0 W/m 9,3 C 6,4 km/h (2 Bft)
22.08.2016 01:17 11,9 C 11,9 C 84 % 1025,8 hPa 0,0 mm 6,2 km/h (2 Bft) S 186 0 min 0,000 mm 0,0 UV-I 0 W/m 9,3 C 8,0 km/h (2 Bft)
22.08.2016 01:18 11,9 C 11,9 C 84 % 1025,8 hPa 0,0 mm 4,0 km/h (1 Bft) S-SW 202 0 min 0,000 mm 0,0 UV-I 0 W/m 9,3 C 6,4 km/h (2 Bft)
22.08.2016 01:19 11,9 C 11,9 C 84 % 1025,7 hPa 0,0 mm 3,8 km/h (1 Bft) S-SW 194 0 min 0,000 mm 0,0 UV-I 0 W/m 9,3 C 6,4 km/h (2 Bft)
22.08.2016 01:20 11,9 C 11,9 C 85 % 1025,8 hPa 0,0 mm 3,5 km/h (1 Bft) S 179 0 min 0,000 mm 0,0 UV-I 0 W/m 9,5 C 6,4 km/h (2 Bft)
22.08.2016 01:21 11,8 C 11,9 C 85 % 1025,8 hPa 0,0 mm 4,7 km/h (1 Bft) SW 220 0 min 0,000 mm 0,0 UV-I 0 W/m 9,4 C 8,0 km/h (2 Bft)
22.08.2016 01:22 11,8 C 11,8 C 85 % 1025,8 hPa 0,0 mm 2,6 km/h (1 Bft) S 190 0 min 0,000 mm 0,0 UV-I 0 W/m 9,4 C 4,8 km/h (1 Bft)
22.08.2016 01:23 11,8 C 11,8 C 85 % 1025,8 hPa 0,0 mm 2,8 km/h (1 Bft) S-SW 197 0 min 0,000 mm 0,0 UV-I 0 W/m 9,4 C 6,4 km/h (2 Bft)
22.08.2016 01:24 11,8 C 11,8 C 85 % 1025,8 hPa 0,0 mm 4,0 km/h (1 Bft) S-SW 194 0 min 0,000 mm 0,0 UV-I 0 W/m 9,4 C 6,4 km/h (2 Bft)
22.08.2016 01:25 11,8 C 11,8 C 85 % 1025,8 hPa 0,0 mm 2,7 km/h (1 Bft) S-SW 207 0 min 0,000 mm 0,0 UV-I 0 W/m 9,4 C 4,8 km/h (1 Bft)
22.08.2016 01:26 11,8 C 11,8 C 86 % 1025,8 hPa 0,0 mm 3,6 km/h (1 Bft) S-SW 198 0 min 0,000 mm 0,0 UV-I 0 W/m 9,5 C 6,4 km/h (2 Bft)
22.08.2016 01:27 11,7 C 11,8 C 87 % 1025,8 hPa 0,0 mm 3,5 km/h (1 Bft) S-SW 211 0 min 0,000 mm 0,0 UV-I 0 W/m 9,6 C 4,8 km/h (1 Bft)
22.08.2016 01:28 11,7 C 11,7 C 88 % 1025,8 hPa 0,0 mm 3,6 km/h (1 Bft) S-SO 165 0 min 0,000 mm 0,0 UV-I 0 W/m 9,8 C 4,8 km/h (1 Bft)
22.08.2016 01:29 11,6 C 11,7 C 88 % 1025,8 hPa 0,0 mm 1,2 km/h (1 Bft) S-SO 165 0 min 0,000 mm 0,0 UV-I 0 W/m 9,7 C 3,2 km/h (1 Bft)
22.08.2016 01:30 11,6 C 11,6 C 87 % 1025,8 hPa 0,0 mm 1,7 km/h (1 Bft) S 187 0 min 0,000 mm 0,0 UV-I 0 W/m 9,5 C 3,2 km/h (1 Bft)
22.08.2016 01:31 11,6 C 11,6 C 87 % 1025,8 hPa 0,0 mm 2,9 km/h (1 Bft) S-SW 205 0 min 0,000 mm 0,0 UV-I 0 W/m 9,5 C 4,8 km/h (1 Bft)
22.08.2016 01:32 11,6 C 11,6 C 87 % 1025,8 hPa 0,0 mm 2,4 km/h (1 Bft) S-SW 192 0 min 0,000 mm 0,0 UV-I 0 W/m 9,5 C 4,8 km/h (1 Bft)
22.08.2016 01:33 11,6 C 11,6 C 87 % 1025,8 hPa 0,0 mm 5,6 km/h (1 Bft) S-SW 194 0 min 0,000 mm 0,0 UV-I 0 W/m 9,5 C 9,7 km/h (2 Bft)
22.08.2016 01:34 11,6 C 11,6 C 87 % 1025,8 hPa 0,0 mm 6,4 km/h (2 Bft) S 190 0 min 0,000 mm 0,0 UV-I 0 W/m 9,5 C 9,7 km/h (2 Bft)
22.08.2016 01:35 11,6 C 11,6 C 87 % 1025,8 hPa 0,0 mm 8,2 km/h (2 Bft) S-SW 203 0 min 0,000 mm 0,0 UV-I 0 W/m 9,5 C 11,3 km/h (2 Bft)
22.08.2016 01:36 11,7 C 11,7 C 86 % 1025,8 hPa 0,0 mm 6,1 km/h (2 Bft) S 169 0 min 0,000 mm 0,0 UV-I 0 W/m 9,4 C 9,7 km/h (2 Bft)
22.08.2016 01:37 11,7 C 11,7 C 86 % 1025,9 hPa 0,0 mm 6,8 km/h (2 Bft) S 184 0 min 0,000 mm 0,0 UV-I 0 W/m 9,4 C 12,9 km/h (3 Bft)
22.08.2016 01:38 11,7 C 11,7 C 86 % 1025,8 hPa 0,0 mm 7,4 km/h (2 Bft) S-SO 165 0 min 0,000 mm 0,0 UV-I 0 W/m 9,4 C 12,9 km/h (3 Bft)
22.08.2016 01:39 11,7 C 11,7 C 86 % 1025,8 hPa 0,0 mm 4,8 km/h (1 Bft) S 185 0 min 0,000 mm 0,0 UV-I 0 W/m 9,4 C 8,0 km/h (2 Bft)
22.08.2016 01:40 11,7 C 11,7 C 86 % 1025,8 hPa 0,0 mm 4,5 km/h (1 Bft) S 190 0 min 0,000 mm 0,0 UV-I 0 W/m 9,4 C 8,0 km/h (2 Bft)
22.08.2016 01:41 11,7 C 11,7 C 86 % 1025,8 hPa 0,0 mm 4,0 km/h (1 Bft) S 180 0 min 0,000 mm 0,0 UV-I 0 W/m 9,4 C 6,4 km/h (2 Bft)
22.08.2016 01:42 11,6 C 11,7 C 87 % 1025,8 hPa 0,0 mm 4,8 km/h (1 Bft) S-SW 197 0 min 0,000 mm 0,0 UV-I 0 W/m 9,5 C 6,4 km/h (2 Bft)
22.08.2016 01:43 11,6 C 11,6 C 87 % 1025,8 hPa 0,0 mm 3,7 km/h (1 Bft) S 191 0 min 0,000 mm 0,0 UV-I 0 W/m 9,5 C 6,4 km/h (2 Bft)
22.08.2016 01:44 11,6 C 11,6 C 86 % 1025,8 hPa 0,0 mm 3,6 km/h (1 Bft) S 173 0 min 0,000 mm 0,0 UV-I 0 W/m 9,3 C 6,4 km/h (2 Bft)
22.08.2016 01:45 11,6 C 11,7 C 86 % 1025,8 hPa 0,0 mm 4,4 km/h (1 Bft) S-SW 194 0 min 0,000 mm 0,0 UV-I 0 W/m 9,3 C 6,4 km/h (2 Bft)
22.08.2016 01:46 11,6 C 11,7 C 86 % 1025,8 hPa 0,0 mm 4,5 km/h (1 Bft) S-SW 207 0 min 0,000 mm 0,0 UV-I 0 W/m 9,3 C 6,4 km/h (2 Bft)
22.08.2016 01:47 11,7 C 11,7 C 86 % 1025,8 hPa 0,0 mm 5,3 km/h (1 Bft) S-SO 150 0 min 0,000 mm 0,0 UV-I 0 W/m 9,4 C 8,0 km/h (2 Bft)
22.08.2016 01:48 11,7 C 11,7 C 88 % 1025,8 hPa 0,0 mm 5,4 km/h (1 Bft) S-SW 200 0 min 0,000 mm 0,0 UV-I 0 W/m 9,8 C 8,0 km/h (2 Bft)
22.08.2016 01:49 11,6 C 11,7 C 86 % 1025,8 hPa 0,0 mm 3,8 km/h (1 Bft) S 178 0 min 0,000 mm 0,0 UV-I 0 W/m 9,3 C 8,0 km/h (2 Bft)
22.08.2016 01:50 11,6 C 11,7 C 86 % 1025,8 hPa 0,0 mm 5,0 km/h (1 Bft) S-SW 196 0 min 0,000 mm 0,0 UV-I 0 W/m 9,3 C 6,4 km/h (2 Bft)
22.08.2016 01:51 11,7 C 11,7 C 86 % 1025,8 hPa 0,0 mm 4,5 km/h (1 Bft) S 188 0 min 0,000 mm 0,0 UV-I 0 W/m 9,4 C 6,4 km/h (2 Bft)
22.08.2016 01:52 11,6 C 11,7 C 87 % 1025,8 hPa 0,0 mm 4,3 km/h (1 Bft) S 188 0 min 0,000 mm 0,0 UV-I 0 W/m 9,5 C 6,4 km/h (2 Bft)
22.08.2016 01:53 11,6 C 11,7 C 87 % 1025,8 hPa 0,0 mm 3,1 km/h (1 Bft) S-SW 192 0 min 0,000 mm 0,0 UV-I 0 W/m 9,5 C 4,8 km/h (1 Bft)
22.08.2016 01:54 11,6 C 11,6 C 87 % 1025,8 hPa 0,0 mm 1,9 km/h (1 Bft) S 184 0 min 0,000 mm 0,0 UV-I 0 W/m 9,5 C 3,2 km/h (1 Bft)
22.08.2016 01:55 11,6 C 11,6 C 86 % 1025,8 hPa 0,0 mm 3,9 km/h (1 Bft) S 184 0 min 0,000 mm 0,0 UV-I 0 W/m 9,3 C 6,4 km/h (2 Bft)
22.08.2016 01:56 11,6 C 11,6 C 86 % 1025,8 hPa 0,0 mm 3,4 km/h (1 Bft) S 183 0 min 0,000 mm 0,0 UV-I 0 W/m 9,3 C 6,4 km/h (2 Bft)
22.08.2016 01:57 11,6 C 11,6 C 86 % 1025,8 hPa 0,0 mm 4,5 km/h (1 Bft) S 191 0 min 0,000 mm 0,0 UV-I 0 W/m 9,3 C 6,4 km/h (2 Bft)
22.08.2016 01:58 11,6 C 11,6 C 87 % 1025,7 hPa 0,0 mm 3,5 km/h (1 Bft) S 183 0 min 0,000 mm 0,0 UV-I 0 W/m 9,5 C 6,4 km/h (2 Bft)
22.08.2016 01:59 11,5 C 11,6 C 86 % 1025,7 hPa 0,0 mm 2,8 km/h (1 Bft) S 178 0 min 0,000 mm 0,0 UV-I 0 W/m 9,2 C 4,8 km/h (1 Bft)
22.08.2016 02:00 11,5 C 11,6 C 87 % 1025,8 hPa 0,0 mm 4,2 km/h (1 Bft) S 188 0 min 0,026 mm 0,0 UV-I 0 W/m 9,4 C 6,4 km/h (2 Bft)
22.08.2016 02:01 11,5 C 11,6 C 87 % 1025,7 hPa 0,0 mm 3,4 km/h (1 Bft) S 182 0 min 0,000 mm 0,0 UV-I 0 W/m 9,4 C 6,4 km/h (2 Bft)
22.08.2016 02:02 11,5 C 11,6 C 87 % 1025,7 hPa 0,0 mm 4,4 km/h (1 Bft) S 175 0 min 0,000 mm 0,0 UV-I 0 W/m 9,4 C 6,4 km/h (2 Bft)
22.08.2016 02:03 11,5 C 11,5 C 86 % 1025,7 hPa 0,0 mm 5,8 km/h (2 Bft) S 171 0 min 0,000 mm 0,0 UV-I 0 W/m 9,2 C 8,0 km/h (2 Bft)
22.08.2016 02:04 11,6 C 11,6 C 87 % 1025,7 hPa 0,0 mm 4,8 km/h (1 Bft) S 184 0 min 0,000 mm 0,0 UV-I 0 W/m 9,5 C 6,4 km/h (2 Bft)
22.08.2016 02:05 11,6 C 11,6 C 86 % 1025,8 hPa 0,0 mm 3,8 km/h (1 Bft) S-SW 194 0 min 0,000 mm 0,0 UV-I 0 W/m 9,3 C 4,8 km/h (1 Bft)
22.08.2016 02:06 11,5 C 11,6 C 87 % 1025,7 hPa 0,0 mm 2,1 km/h (1 Bft) S 187 0 min 0,000 mm 0,0 UV-I 0 W/m 9,4 C 3,2 km/h (1 Bft)
22.08.2016 02:07 11,4 C 11,5 C 87 % 1025,7 hPa 0,0 mm 3,4 km/h (1 Bft) S 187 0 min 0,000 mm 0,0 UV-I 0 W/m 9,3 C 6,4 km/h (2 Bft)
22.08.2016 02:08 11,5 C 11,5 C 86 % 1025,7 hPa 0,0 mm 4,0 km/h (1 Bft) S-SW 196 0 min 0,000 mm 0,0 UV-I 0 W/m 9,2 C 4,8 km/h (1 Bft)
22.08.2016 02:09 11,4 C 11,5 C 88 % 1025,7 hPa 0,0 mm 2,5 km/h (1 Bft) S-SW 192 0 min 0,000 mm 0,0 UV-I 0 W/m 9,5 C 4,8 km/h (1 Bft)
22.08.2016 02:10 11,4 C 11,4 C 88 % 1025,7 hPa 0,0 mm 2,8 km/h (1 Bft) S 184 0 min 0,000 mm 0,0 UV-I 0 W/m 9,5 C 6,4 km/h (2 Bft)
22.08.2016 02:11 11,3 C 11,4 C 88 % 1025,7 hPa 0,0 mm 3,4 km/h (1 Bft) S 190 0 min 0,000 mm 0,0 UV-I 0 W/m 9,4 C 8,0 km/h (2 Bft)
22.08.2016 02:12 11,3 C 11,3 C 87 % 1025,6 hPa 0,0 mm 3,0 km/h (1 Bft) S-SO 163 0 min 0,000 mm 0,0 UV-I 0 W/m 9,2 C 3,2 km/h (1 Bft)
22.08.2016 02:13 11,3 C 11,3 C 88 % 1025,6 hPa 0,0 mm 3,4 km/h (1 Bft) S 184 0 min 0,000 mm 0,0 UV-I 0 W/m 9,4 C 4,8 km/h (1 Bft)
22.08.2016 02:14 11,3 C 11,4 C 88 % 1025,7 hPa 0,0 mm 2,7 km/h (1 Bft) S 187 0 min 0,000 mm 0,0 UV-I 0 W/m 9,4 C 4,8 km/h (1 Bft)
22.08.2016 02:15 11,3 C 11,3 C 89 % 1025,7 hPa 0,0 mm 1,4 km/h (1 Bft) S 169 0 min 0,000 mm 0,0 UV-I 0 W/m 9,6 C 4,8 km/h (1 Bft)
22.08.2016 02:16 11,3 C 11,3 C 87 % 1025,7 hPa 0,0 mm 4,6 km/h (1 Bft) SW 232 0 min 0,000 mm 0,0 UV-I 0 W/m 9,2 C 6,4 km/h (2 Bft)
22.08.2016 02:17 11,3 C 11,3 C 87 % 1025,7 hPa 0,0 mm 3,6 km/h (1 Bft) S-SO 163 0 min 0,000 mm 0,0 UV-I 0 W/m 9,2 C 6,4 km/h (2 Bft)
22.08.2016 02:18 11,3 C 11,4 C 88 % 1025,7 hPa 0,0 mm 3,4 km/h (1 Bft) SW 219 0 min 0,000 mm 0,0 UV-I 0 W/m 9,4 C 4,8 km/h (1 Bft)
22.08.2016 02:19 11,4 C 11,4 C 87 % 1025,7 hPa 0,0 mm 2,0 km/h (1 Bft) S-SW 205 0 min 0,000 mm 0,0 UV-I 0 W/m 9,3 C 3,2 km/h (1 Bft)
22.08.2016 02:20 11,4 C 11,4 C 87 % 1025,7 hPa 0,0 mm 4,3 km/h (1 Bft) S 188 0 min 0,000 mm 0,0 UV-I 0 W/m 9,3 C 6,4 km/h (2 Bft)
22.08.2016 02:21 11,4 C 11,4 C 86 % 1025,7 hPa 0,0 mm 3,8 km/h (1 Bft) S-SW 200 0 min 0,000 mm 0,0 UV-I 0 W/m 9,1 C 4,8 km/h (1 Bft)
22.08.2016 02:22 11,4 C 11,4 C 87 % 1025,7 hPa 0,0 mm 2,2 km/h (1 Bft) S 190 0 min 0,000 mm 0,0 UV-I 0 W/m 9,3 C 4,8 km/h (1 Bft)
22.08.2016 02:23 11,3 C 11,4 C 88 % 1025,7 hPa 0,0 mm 2,7 km/h (1 Bft) S 184 0 min 0,000 mm 0,0 UV-I 0 W/m 9,4 C 6,4 km/h (2 Bft)
22.08.2016 02:24 11,4 C 11,4 C 86 % 1025,6 hPa 0,0 mm 5,7 km/h (1 Bft) S-SW 204 0 min 0,000 mm 0,0 UV-I 0 W/m 9,1 C 8,0 km/h (2 Bft)
22.08.2016 02:25 11,4 C 11,4 C 87 % 1025,6 hPa 0,0 mm 2,9 km/h (1 Bft) S-SW 202 0 min 0,000 mm 0,0 UV-I 0 W/m 9,3 C 6,4 km/h (2 Bft)
22.08.2016 02:26 11,4 C 11,4 C 87 % 1025,6 hPa 0,0 mm 3,4 km/h (1 Bft) S-SW 195 0 min 0,000 mm 0,0 UV-I 0 W/m 9,3 C 4,8 km/h (1 Bft)
22.08.2016 02:27 11,4 C 11,4 C 86 % 1025,6 hPa 0,0 mm 2,2 km/h (1 Bft) S 177 0 min 0,000 mm 0,0 UV-I 0 W/m 9,1 C 3,2 km/h (1 Bft)
22.08.2016 02:28 11,4 C 11,4 C 86 % 1025,7 hPa 0,0 mm 4,9 km/h (1 Bft) S 178 0 min 0,000 mm 0,0 UV-I 0 W/m 9,1 C 6,4 km/h (2 Bft)
22.08.2016 02:29 11,5 C 11,5 C 85 % 1025,7 hPa 0,0 mm 5,2 km/h (1 Bft) S 184 0 min 0,000 mm 0,0 UV-I 0 W/m 9,1 C 6,4 km/h (2 Bft)
22.08.2016 02:30 11,6 C 11,6 C 86 % 1025,6 hPa 0,0 mm 3,0 km/h (1 Bft) S 184 0 min 0,000 mm 0,0 UV-I 0 W/m 9,3 C 4,8 km/h (1 Bft)
22.08.2016 02:31 11,5 C 11,6 C 85 % 1025,7 hPa 0,0 mm 4,2 km/h (1 Bft) S-SW 196 0 min 0,000 mm 0,0 UV-I 0 W/m 9,1 C 8,0 km/h (2 Bft)
22.08.2016 02:32 11,6 C 11,6 C 85 % 1025,7 hPa 0,0 mm 5,5 km/h (1 Bft) S 178 0 min 0,000 mm 0,0 UV-I 0 W/m 9,2 C 9,7 km/h (2 Bft)
22.08.2016 02:33 11,6 C 11,6 C 85 % 1025,6 hPa 0,0 mm 2,7 km/h (1 Bft) S 188 0 min 0,000 mm 0,0 UV-I 0 W/m 9,2 C 4,8 km/h (1 Bft)
22.08.2016 02:34 11,5 C 11,6 C 87 % 1025,6 hPa 0,0 mm 2,3 km/h (1 Bft) S 188 0 min 0,000 mm 0,0 UV-I 0 W/m 9,4 C 3,2 km/h (1 Bft)
22.08.2016 02:35 11,4 C 11,5 C 87 % 1025,6 hPa 0,0 mm 4,1 km/h (1 Bft) SW 214 0 min 0,000 mm 0,0 UV-I 0 W/m 9,3 C 6,4 km/h (2 Bft)
22.08.2016 02:36 11,4 C 11,4 C 87 % 1025,6 hPa 0,0 mm 2,6 km/h (1 Bft) S-SW 195 0 min 0,000 mm 0,0 UV-I 0 W/m 9,3 C 4,8 km/h (1 Bft)
22.08.2016 02:37 11,4 C 11,4 C 87 % 1025,6 hPa 0,0 mm 4,0 km/h (1 Bft) SW 217 0 min 0,000 mm 0,0 UV-I 0 W/m 9,3 C 6,4 km/h (2 Bft)
22.08.2016 02:38 11,4 C 11,4 C 86 % 1025,6 hPa 0,0 mm 3,6 km/h (1 Bft) S 178 0 min 0,000 mm 0,0 UV-I 0 W/m 9,1 C 6,4 km/h (2 Bft)
22.08.2016 02:39 11,4 C 11,4 C 86 % 1025,6 hPa 0,0 mm 2,7 km/h (1 Bft) SW 225 0 min 0,000 mm 0,0 UV-I 0 W/m 9,1 C 4,8 km/h (1 Bft)
22.08.2016 02:40 11,4 C 11,4 C 87 % 1025,5 hPa 0,0 mm 2,7 km/h (1 Bft) S 190 0 min 0,000 mm 0,0 UV-I 0 W/m 9,3 C 6,4 km/h (2 Bft)
22.08.2016 02:41 11,4 C 11,4 C 86 % 1025,5 hPa 0,0 mm 2,5 km/h (1 Bft) S-SW 203 0 min 0,000 mm 0,0 UV-I 0 W/m 9,1 C 4,8 km/h (1 Bft)
22.08.2016 02:42 11,4 C 11,4 C 86 % 1025,5 hPa 0,0 mm 2,9 km/h (1 Bft) W-SW 250 0 min 0,000 mm 0,0 UV-I 0 W/m 9,1 C 4,8 km/h (1 Bft)
22.08.2016 02:43 11,4 C 11,4 C 86 % 1025,6 hPa 0,0 mm 1,5 km/h (1 Bft) W-SW 241 0 min 0,000 mm 0,0 UV-I 0 W/m 9,1 C 3,2 km/h (1 Bft)
22.08.2016 02:44 11,3 C 11,4 C 87 % 1025,6 hPa 0,0 mm 3,6 km/h (1 Bft) S 180 0 min 0,000 mm 0,0 UV-I 0 W/m 9,2 C 6,4 km/h (2 Bft)
22.08.2016 02:45 11,3 C 11,3 C 86 % 1025,6 hPa 0,0 mm 2,8 km/h (1 Bft) S-SW 192 0 min 0,000 mm 0,0 UV-I 0 W/m 9,0 C 8,0 km/h (2 Bft)
22.08.2016 02:46 11,3 C 11,3 C 87 % 1025,6 hPa 0,0 mm 1,0 km/h (0 Bft) S-SW 192 0 min 0,000 mm 0,0 UV-I 0 W/m 9,2 C 3,2 km/h (1 Bft)
22.08.2016 02:47 11,3 C 11,4 C 87 % 1025,6 hPa 0,0 mm 1,7 km/h (1 Bft) SW 228 0 min 0,000 mm 0,0 UV-I 0 W/m 9,2 C 4,8 km/h (1 Bft)
22.08.2016 02:48 11,3 C 11,3 C 87 % 1025,6 hPa 0,0 mm 0,7 km/h (0 Bft) SW 228 0 min 0,000 mm 0,0 UV-I 0 W/m 9,2 C 3,2 km/h (1 Bft)
22.08.2016 02:49 11,3 C 11,3 C 86 % 1025,6 hPa 0,0 mm 1,8 km/h (1 Bft) W-SW 251 0 min 0,000 mm 0,0 UV-I 0 W/m 9,0 C 4,8 km/h (1 Bft)
22.08.2016 02:50 11,3 C 11,3 C 86 % 1025,6 hPa 0,0 mm 0,9 km/h (0 Bft) W-SW 251 0 min 0,000 mm 0,0 UV-I 0 W/m 9,0 C 1,6 km/h (1 Bft)
22.08.2016 02:51 11,4 C 11,4 C 86 % 1025,6 hPa 0,0 mm 1,3 km/h (1 Bft) W-SW 251 0 min 0,000 mm 0,0 UV-I 0 W/m 9,1 C 3,2 km/h (1 Bft)
22.08.2016 02:52 11,4 C 11,4 C 86 % 1025,6 hPa 0,0 mm 1,5 km/h (1 Bft) W-SW 251 0 min 0,000 mm 0,0 UV-I 0 W/m 9,1 C 3,2 km/h (1 Bft)
22.08.2016 02:53 11,4 C 11,4 C 86 % 1025,6 hPa 0,0 mm 1,5 km/h (1 Bft) S-SW 198 0 min 0,000 mm 0,0 UV-I 0 W/m 9,1 C 3,2 km/h (1 Bft)
22.08.2016 02:54 11,4 C 11,4 C 86 % 1025,6 hPa 0,0 mm 0,7 km/h (0 Bft) S-SW 198 0 min 0,000 mm 0,0 UV-I 0 W/m 9,1 C 1,6 km/h (1 Bft)
22.08.2016 02:55 11,4 C 11,4 C 87 % 1025,6 hPa 0,0 mm 3,2 km/h (1 Bft) S-SW 206 0 min 0,000 mm 0,0 UV-I 0 W/m 9,3 C 4,8 km/h (1 Bft)
22.08.2016 02:56 11,3 C 11,4 C 86 % 1025,6 hPa 0,0 mm 3,6 km/h (1 Bft) S 185 0 min 0,000 mm 0,0 UV-I 0 W/m 9,0 C 4,8 km/h (1 Bft)
22.08.2016 02:57 11,4 C 11,4 C 86 % 1025,6 hPa 0,0 mm 4,7 km/h (1 Bft) S 180 0 min 0,000 mm 0,0 UV-I 0 W/m 9,1 C 8,0 km/h (2 Bft)
22.08.2016 02:58 11,4 C 11,4 C 86 % 1025,6 hPa 0,0 mm 3,6 km/h (1 Bft) S 171 0 min 0,000 mm 0,0 UV-I 0 W/m 9,1 C 6,4 km/h (2 Bft)
22.08.2016 02:59 11,4 C 11,4 C 86 % 1025,6 hPa 0,0 mm 4,2 km/h (1 Bft) S 181 0 min 0,000 mm 0,0 UV-I 0 W/m 9,1 C 6,4 km/h (2 Bft)
22.08.2016 03:00 11,4 C 11,4 C 86 % 1025,5 hPa 0,0 mm 4,2 km/h (1 Bft) S 186 0 min 0,025 mm 0,0 UV-I 0 W/m 9,1 C 8,0 km/h (2 Bft)
22.08.2016 03:01 11,4 C 11,4 C 86 % 1025,5 hPa 0,0 mm 3,4 km/h (1 Bft) S 175 0 min 0,000 mm 0,0 UV-I 0 W/m 9,1 C 4,8 km/h (1 Bft)
22.08.2016 03:02 11,4 C 11,4 C 86 % 1025,6 hPa 0,0 mm 5,3 km/h (1 Bft) S 183 0 min 0,000 mm 0,0 UV-I 0 W/m 9,1 C 9,7 km/h (2 Bft)
22.08.2016 03:03 11,4 C 11,4 C 86 % 1025,5 hPa 0,0 mm 4,2 km/h (1 Bft) S-SW 192 0 min 0,000 mm 0,0 UV-I 0 W/m 9,1 C 6,4 km/h (2 Bft)
22.08.2016 03:04 11,4 C 11,4 C 86 % 1025,5 hPa 0,0 mm 3,7 km/h (1 Bft) S 190 0 min 0,000 mm 0,0 UV-I 0 W/m 9,1 C 8,0 km/h (2 Bft)
22.08.2016 03:05 11,4 C 11,4 C 85 % 1025,5 hPa 0,0 mm 3,6 km/h (1 Bft) S-SW 192 0 min 0,000 mm 0,0 UV-I 0 W/m 9,0 C 6,4 km/h (2 Bft)
22.08.2016 03:06 11,4 C 11,4 C 86 % 1025,5 hPa 0,0 mm 2,7 km/h (1 Bft) S 189 0 min 0,000 mm 0,0 UV-I 0 W/m 9,1 C 4,8 km/h (1 Bft)
22.08.2016 03:07 11,4 C 11,4 C 85 % 1025,5 hPa 0,0 mm 3,4 km/h (1 Bft) S-SW 205 0 min 0,000 mm 0,0 UV-I 0 W/m 9,0 C 6,4 km/h (2 Bft)
22.08.2016 03:08 11,4 C 11,4 C 85 % 1025,5 hPa 0,0 mm 3,9 km/h (1 Bft) S 190 0 min 0,000 mm 0,0 UV-I 0 W/m 9,0 C 6,4 km/h (2 Bft)
22.08.2016 03:09 11,5 C 11,5 C 85 % 1025,5 hPa 0,0 mm 4,1 km/h (1 Bft) S 189 0 min 0,000 mm 0,0 UV-I 0 W/m 9,1 C 6,4 km/h (2 Bft)
22.08.2016 03:10 11,5 C 11,5 C 85 % 1025,5 hPa 0,0 mm 2,7 km/h (1 Bft) S-SW 193 0 min 0,000 mm 0,0 UV-I 0 W/m 9,1 C 4,8 km/h (1 Bft)
22.08.2016 03:11 11,5 C 11,5 C 85 % 1025,5 hPa 0,0 mm 3,8 km/h (1 Bft) S 184 0 min 0,000 mm 0,0 UV-I 0 W/m 9,1 C 4,8 km/h (1 Bft)
22.08.2016 03:12 11,5 C 11,5 C 85 % 1025,5 hPa 0,0 mm 4,4 km/h (1 Bft) S-SO 168 0 min 0,000 mm 0,0 UV-I 0 W/m 9,1 C 8,0 km/h (2 Bft)
22.08.2016 03:13 11,5 C 11,5 C 85 % 1025,5 hPa 0,0 mm 5,4 km/h (1 Bft) S 176 0 min 0,000 mm 0,0 UV-I 0 W/m 9,1 C 8,0 km/h (2 Bft)
22.08.2016 03:14 11,4 C 11,5 C 86 % 1025,5 hPa 0,0 mm 3,4 km/h (1 Bft) S 180 0 min 0,000 mm 0,0 UV-I 0 W/m 9,1 C 4,8 km/h (1 Bft)
22.08.2016 03:15 11,4 C 11,4 C 85 % 1025,5 hPa 0,0 mm 4,1 km/h (1 Bft) S-SW 192 0 min 0,000 mm 0,0 UV-I 0 W/m 9,0 C 8,0 km/h (2 Bft)
22.08.2016 03:16 11,5 C 11,5 C 85 % 1025,5 hPa 0,0 mm 3,8 km/h (1 Bft) S 186 0 min 0,000 mm 0,0 UV-I 0 W/m 9,1 C 4,8 km/h (1 Bft)
22.08.2016 03:17 11,4 C 11,5 C 85 % 1025,5 hPa 0,0 mm 3,8 km/h (1 Bft) W-SW 250 0 min 0,000 mm 0,0 UV-I 0 W/m 9,0 C 6,4 km/h (2 Bft)
22.08.2016 03:18 11,4 C 11,4 C 85 % 1025,5 hPa 0,0 mm 4,3 km/h (1 Bft) S-SW 204 0 min 0,000 mm 0,0 UV-I 0 W/m 9,0 C 6,4 km/h (2 Bft)
22.08.2016 03:19 11,4 C 11,4 C 85 % 1025,5 hPa 0,0 mm 3,9 km/h (1 Bft) W-SW 254 0 min 0,000 mm 0,0 UV-I 0 W/m 9,0 C 4,8 km/h (1 Bft)
22.08.2016 03:20 11,4 C 11,4 C 85 % 1025,5 hPa 0,0 mm 5,6 km/h (1 Bft) SW 227 0 min 0,000 mm 0,0 UV-I 0 W/m 9,0 C 6,4 km/h (2 Bft)
22.08.2016 03:21 11,4 C 11,4 C 85 % 1025,5 hPa 0,0 mm 4,2 km/h (1 Bft) S-SW 205 0 min 0,000 mm 0,0 UV-I 0 W/m 9,0 C 8,0 km/h (2 Bft)
22.08.2016 03:22 11,4 C 11,4 C 85 % 1025,5 hPa 0,0 mm 2,3 km/h (1 Bft) S-SW 205 0 min 0,000 mm 0,0 UV-I 0 W/m 9,0 C 3,2 km/h (1 Bft)
22.08.2016 03:23 11,4 C 11,4 C 85 % 1025,5 hPa 0,0 mm 3,2 km/h (1 Bft) S 189 0 min 0,000 mm 0,0 UV-I 0 W/m 9,0 C 4,8 km/h (1 Bft)
22.08.2016 03:24 11,4 C 11,4 C 85 % 1025,5 hPa 0,0 mm 2,8 km/h (1 Bft) S-SW 205 0 min 0,000 mm 0,0 UV-I 0 W/m 9,0 C 4,8 km/h (1 Bft)
22.08.2016 03:25 11,4 C 11,4 C 85 % 1025,5 hPa 0,0 mm 2,5 km/h (1 Bft) S-SW 201 0 min 0,000 mm 0,0 UV-I 0 W/m 9,0 C 4,8 km/h (1 Bft)
22.08.2016 03:26 11,4 C 11,4 C 85 % 1025,5 hPa 0,0 mm 2,8 km/h (1 Bft) S-SW 192 0 min 0,000 mm 0,0 UV-I 0 W/m 9,0 C 4,8 km/h (1 Bft)
22.08.2016 03:27 11,5 C 11,5 C 84 % 1025,4 hPa 0,0 mm 3,4 km/h (1 Bft) S-SO 166 0 min 0,000 mm 0,0 UV-I 0 W/m 8,9 C 6,4 km/h (2 Bft)
22.08.2016 03:28 11,5 C 11,5 C 84 % 1025,4 hPa 0,0 mm 4,0 km/h (1 Bft) SW 222 0 min 0,000 mm 0,0 UV-I 0 W/m 8,9 C 4,8 km/h (1 Bft)
22.08.2016 03:29 11,6 C 11,6 C 84 % 1025,5 hPa 0,0 mm 5,3 km/h (1 Bft) S-SW 198 0 min 0,000 mm 0,0 UV-I 0 W/m 9,0 C 6,4 km/h (2 Bft)
22.08.2016 03:30 11,6 C 11,6 C 83 % 1025,4 hPa 0,0 mm 5,2 km/h (1 Bft) S 184 0 min 0,000 mm 0,0 UV-I 0 W/m 8,8 C 9,7 km/h (2 Bft)
22.08.2016 03:31 11,6 C 11,6 C 83 % 1025,5 hPa 0,0 mm 3,1 km/h (1 Bft) S 181 0 min 0,000 mm 0,0 UV-I 0 W/m 8,8 C 8,0 km/h (2 Bft)
22.08.2016 03:32 11,6 C 11,6 C 83 % 1025,5 hPa 0,0 mm 5,0 km/h (1 Bft) S 191 0 min 0,000 mm 0,0 UV-I 0 W/m 8,8 C 8,0 km/h (2 Bft)
22.08.2016 03:33 11,7 C 11,7 C 83 % 1025,4 hPa 0,0 mm 5,3 km/h (1 Bft) S 179 0 min 0,000 mm 0,0 UV-I 0 W/m 8,9 C 6,4 km/h (2 Bft)
22.08.2016 03:34 11,6 C 11,7 C 83 % 1025,4 hPa 0,0 mm 4,1 km/h (1 Bft) S 186 0 min 0,000 mm 0,0 UV-I 0 W/m 8,8 C 6,4 km/h (2 Bft)
22.08.2016 03:35 11,7 C 11,7 C 84 % 1025,5 hPa 0,0 mm 5,5 km/h (1 Bft) S 176 0 min 0,000 mm 0,0 UV-I 0 W/m 9,1 C 8,0 km/h (2 Bft)
22.08.2016 03:36 11,7 C 11,7 C 83 % 1025,5 hPa 0,0 mm 5,0 km/h (1 Bft) S-SO 162 0 min 0,000 mm 0,0 UV-I 0 W/m 8,9 C 8,0 km/h (2 Bft)
22.08.2016 03:37 11,7 C 11,7 C 83 % 1025,4 hPa 0,0 mm 6,0 km/h (2 Bft) S-SO 165 0 min 0,000 mm 0,0 UV-I 0 W/m 8,9 C 8,0 km/h (2 Bft)
22.08.2016 03:38 11,7 C 11,7 C 83 % 1025,5 hPa 0,0 mm 3,6 km/h (1 Bft) S-SW 196 0 min 0,000 mm 0,0 UV-I 0 W/m 8,9 C 4,8 km/h (1 Bft)
22.08.2016 03:39 11,7 C 11,7 C 84 % 1025,5 hPa 0,0 mm 3,8 km/h (1 Bft) S-SW 194 0 min 0,000 mm 0,0 UV-I 0 W/m 9,1 C 4,8 km/h (1 Bft)
22.08.2016 03:40 11,6 C 11,7 C 84 % 1025,5 hPa 0,0 mm 4,2 km/h (1 Bft) S 184 0 min 0,000 mm 0,0 UV-I 0 W/m 9,0 C 6,4 km/h (2 Bft)
22.08.2016 03:41 11,6 C 11,7 C 84 % 1025,5 hPa 0,0 mm 2,3 km/h (1 Bft) S 188 0 min 0,000 mm 0,0 UV-I 0 W/m 9,0 C 3,2 km/h (1 Bft)
22.08.2016 03:42 11,6 C 11,6 C 84 % 1025,5 hPa 0,0 mm 2,8 km/h (1 Bft) SW 229 0 min 0,000 mm 0,0 UV-I 0 W/m 9,0 C 4,8 km/h (1 Bft)
22.08.2016 03:43 11,6 C 11,6 C 83 % 1025,5 hPa 0,0 mm 3,6 km/h (1 Bft) S-SW 193 0 min 0,000 mm 0,0 UV-I 0 W/m 8,8 C 6,4 km/h (2 Bft)
22.08.2016 03:44 11,6 C 11,6 C 83 % 1025,5 hPa 0,0 mm 2,8 km/h (1 Bft) S-SW 193 0 min 0,000 mm 0,0 UV-I 0 W/m 8,8 C 3,2 km/h (1 Bft)
22.08.2016 03:45 11,6 C 11,6 C 84 % 1025,5 hPa 0,0 mm 2,0 km/h (1 Bft) S-SW 193 0 min 0,000 mm 0,0 UV-I 0 W/m 9,0 C 3,2 km/h (1 Bft)
22.08.2016 03:46 11,6 C 11,6 C 83 % 1025,5 hPa 0,0 mm 2,7 km/h (1 Bft) S-SW 193 0 min 0,000 mm 0,0 UV-I 0 W/m 8,8 C 4,8 km/h (1 Bft)
22.08.2016 03:47 11,6 C 11,6 C 84 % 1025,5 hPa 0,0 mm 3,3 km/h (1 Bft) S 185 0 min 0,000 mm 0,0 UV-I 0 W/m 9,0 C 4,8 km/h (1 Bft)
22.08.2016 03:48 11,6 C 11,6 C 85 % 1025,5 hPa 0,0 mm 2,1 km/h (1 Bft) S 185 0 min 0,000 mm 0,0 UV-I 0 W/m 9,2 C 3,2 km/h (1 Bft)
22.08.2016 03:49 11,4 C 11,6 C 86 % 1025,4 hPa 0,0 mm 0,1 km/h (0 Bft) S 185 0 min 0,000 mm 0,0 UV-I 0 W/m 9,1 C 1,6 km/h (1 Bft)
22.08.2016 03:50 11,3 C 11,4 C 85 % 1025,4 hPa 0,0 mm 0,4 km/h (0 Bft) S 185 0 min 0,000 mm 0,0 UV-I 0 W/m 8,9 C 1,6 km/h (1 Bft)
22.08.2016 03:51 11,3 C 11,3 C 86 % 1025,4 hPa 0,0 mm 0,2 km/h (0 Bft) S 185 0 min 0,000 mm 0,0 UV-I 0 W/m 9,0 C 1,6 km/h (1 Bft)
22.08.2016 03:52 11,2 C 11,3 C 87 % 1025,4 hPa 0,0 mm 0,1 km/h (0 Bft) S 185 0 min 0,000 mm 0,0 UV-I 0 W/m 9,1 C 1,6 km/h (1 Bft)
22.08.2016 03:53 11,1 C 11,2 C 87 % 1025,4 hPa 0,0 mm 0,5 km/h (0 Bft) S 185 0 min 0,000 mm 0,0 UV-I 0 W/m 9,0 C 1,6 km/h (1 Bft)
22.08.2016 03:54 11,0 C 11,1 C 88 % 1025,4 hPa 0,0 mm 0,0 km/h (0 Bft) S 185 0 min 0,000 mm 0,0 UV-I 0 W/m 9,1 C 0,0 km/h (0 Bft)
22.08.2016 03:55 10,9 C 11,0 C 88 % 1025,4 hPa 0,0 mm 0,2 km/h (0 Bft) S 185 0 min 0,000 mm 0,0 UV-I 0 W/m 9,0 C 1,6 km/h (1 Bft)
22.08.2016 03:56 10,9 C 10,9 C 88 % 1025,4 hPa 0,0 mm 0,5 km/h (0 Bft) S 185 0 min 0,000 mm 0,0 UV-I 0 W/m 9,0 C 1,6 km/h (1 Bft)
22.08.2016 03:57 10,8 C 10,9 C 88 % 1025,5 hPa 0,0 mm 1,5 km/h (1 Bft) S 185 0 min 0,000 mm 0,0 UV-I 0 W/m 8,9 C 3,2 km/h (1 Bft)
22.08.2016 03:58 10,8 C 10,8 C 88 % 1025,4 hPa 0,0 mm 2,1 km/h (1 Bft) S 184 0 min 0,000 mm 0,0 UV-I 0 W/m 8,9 C 3,2 km/h (1 Bft)
22.08.2016 03:59 10,8 C 10,9 C 88 % 1025,5 hPa 0,0 mm 1,7 km/h (1 Bft) S 184 0 min 0,000 mm 0,0 UV-I 0 W/m 8,9 C 3,2 km/h (1 Bft)
22.08.2016 04:00 10,8 C 10,8 C 88 % 1025,5 hPa 0,0 mm 0,1 km/h (0 Bft) S 184 0 min 0,026 mm 0,0 UV-I 0 W/m 8,9 C 1,6 km/h (1 Bft)
22.08.2016 04:01 10,8 C 10,8 C 89 % 1025,4 hPa 0,0 mm 0,3 km/h (0 Bft) S 184 0 min 0,000 mm 0,0 UV-I 0 W/m 9,1 C 1,6 km/h (1 Bft)
22.08.2016 04:02 10,8 C 10,8 C 89 % 1025,4 hPa 0,0 mm 1,2 km/h (1 Bft) S 184 0 min 0,000 mm 0,0 UV-I 0 W/m 9,1 C 1,6 km/h (1 Bft)
22.08.2016 04:03 10,8 C 10,8 C 89 % 1025,4 hPa 0,0 mm 1,5 km/h (1 Bft) S 184 0 min 0,000 mm 0,0 UV-I 0 W/m 9,1 C 3,2 km/h (1 Bft)
22.08.2016 04:04 10,8 C 10,8 C 89 % 1025,5 hPa 0,0 mm 1,2 km/h (1 Bft) S 184 0 min 0,000 mm 0,0 UV-I 0 W/m 9,1 C 1,6 km/h (1 Bft)
22.08.2016 04:05 10,8 C 10,8 C 89 % 1025,5 hPa 0,0 mm 0,0 km/h (0 Bft) S 184 0 min 0,000 mm 0,0 UV-I 0 W/m 9,1 C 0,0 km/h (0 Bft)
22.08.2016 04:06 10,7 C 10,8 C 89 % 1025,5 hPa 0,0 mm 0,0 km/h (0 Bft) S 184 0 min 0,000 mm 0,0 UV-I 0 W/m 9,0 C 0,0 km/h (0 Bft)
22.08.2016 04:07 10,7 C 10,8 C 90 % 1025,5 hPa 0,0 mm 0,0 km/h (0 Bft) S 184 0 min 0,000 mm 0,0 UV-I 0 W/m 9,1 C 0,0 km/h (0 Bft)
22.08.2016 04:08 10,7 C 10,7 C 90 % 1025,5 hPa 0,0 mm 0,0 km/h (0 Bft) S 184 0 min 0,000 mm 0,0 UV-I 0 W/m 9,1 C 0,0 km/h (0 Bft)
22.08.2016 04:09 10,7 C 10,7 C 90 % 1025,5 hPa 0,0 mm 0,0 km/h (0 Bft) S 184 0 min 0,000 mm 0,0 UV-I 0 W/m 9,1 C 0,0 km/h (0 Bft)
22.08.2016 04:10 10,7 C 10,7 C 90 % 1025,5 hPa 0,0 mm 0,2 km/h (0 Bft) S-SW 213 0 min 0,000 mm 0,0 UV-I 0 W/m 9,1 C 1,6 km/h (1 Bft)
22.08.2016 04:11 10,7 C 10,7 C 90 % 1025,5 hPa 0,0 mm 2,4 km/h (1 Bft) SW 234 0 min 0,000 mm 0,0 UV-I 0 W/m 9,1 C 3,2 km/h (1 Bft)
22.08.2016 04:12 10,7 C 10,7 C 90 % 1025,5 hPa 0,0 mm 0,8 km/h (0 Bft) SW 234 0 min 0,000 mm 0,0 UV-I 0 W/m 9,1 C 1,6 km/h (1 Bft)
22.08.2016 04:13 10,7 C 10,7 C 89 % 1025,5 hPa 0,0 mm 1,1 km/h (1 Bft) SW 234 0 min 0,000 mm 0,0 UV-I 0 W/m 9,0 C 3,2 km/h (1 Bft)
22.08.2016 04:14 10,7 C 10,7 C 89 % 1025,5 hPa 0,0 mm 1,8 km/h (1 Bft) SW 232 0 min 0,000 mm 0,0 UV-I 0 W/m 9,0 C 3,2 km/h (1 Bft)
22.08.2016 04:15 10,7 C 10,7 C 89 % 1025,5 hPa 0,0 mm 2,1 km/h (1 Bft) SW 232 0 min 0,000 mm 0,0 UV-I 0 W/m 9,0 C 3,2 km/h (1 Bft)
22.08.2016 04:16 10,7 C 10,7 C 89 % 1025,5 hPa 0,0 mm 0,7 km/h (0 Bft) SW 232 0 min 0,000 mm 0,0 UV-I 0 W/m 9,0 C 1,6 km/h (1 Bft)
22.08.2016 04:17 10,7 C 10,7 C 90 % 1025,5 hPa 0,0 mm 0,9 km/h (0 Bft) SW 232 0 min 0,000 mm 0,0 UV-I 0 W/m 9,1 C 1,6 km/h (1 Bft)
22.08.2016 04:18 10,7 C 10,7 C 90 % 1025,5 hPa 0,0 mm 0,1 km/h (0 Bft) SW 232 0 min 0,000 mm 0,0 UV-I 0 W/m 9,1 C 1,6 km/h (1 Bft)
22.08.2016 04:19 10,7 C 10,7 C 89 % 1025,5 hPa 0,0 mm 0,2 km/h (0 Bft) SW 232 0 min 0,000 mm 0,0 UV-I 0 W/m 9,0 C 1,6 km/h (1 Bft)
22.08.2016 04:20 10,7 C 10,7 C 88 % 1025,5 hPa 0,0 mm 0,9 km/h (0 Bft) SW 232 0 min 0,000 mm 0,0 UV-I 0 W/m 8,8 C 1,6 km/h (1 Bft)
22.08.2016 04:21 10,8 C 10,8 C 89 % 1025,5 hPa 0,0 mm 0,1 km/h (0 Bft) SW 232 0 min 0,000 mm 0,0 UV-I 0 W/m 9,1 C 1,6 km/h (1 Bft)
22.08.2016 04:22 10,8 C 10,8 C 89 % 1025,6 hPa 0,0 mm 0,1 km/h (0 Bft) SW 232 0 min 0,000 mm 0,0 UV-I 0 W/m 9,1 C 1,6 km/h (1 Bft)
22.08.2016 04:23 10,7 C 10,8 C 89 % 1025,5 hPa 0,0 mm 0,0 km/h (0 Bft) SW 232 0 min 0,000 mm 0,0 UV-I 0 W/m 9,0 C 0,0 km/h (0 Bft)
22.08.2016 04:24 10,8 C 10,8 C 88 % 1025,6 hPa 0,0 mm 0,2 km/h (0 Bft) SW 215 0 min 0,000 mm 0,0 UV-I 0 W/m 8,9 C 1,6 km/h (1 Bft)
22.08.2016 04:25 10,8 C 10,8 C 89 % 1025,6 hPa 0,0 mm 2,0 km/h (1 Bft) S 188 0 min 0,000 mm 0,0 UV-I 0 W/m 9,1 C 3,2 km/h (1 Bft)
22.08.2016 04:26 10,8 C 10,8 C 89 % 1025,6 hPa 0,0 mm 1,8 km/h (1 Bft) S 189 0 min 0,000 mm 0,0 UV-I 0 W/m 9,1 C 3,2 km/h (1 Bft)
22.08.2016 04:27 10,8 C 10,8 C 89 % 1025,6 hPa 0,0 mm 2,0 km/h (1 Bft) S 188 0 min 0,000 mm 0,0 UV-I 0 W/m 9,1 C 3,2 km/h (1 Bft)
22.08.2016 04:28 10,8 C 10,8 C 89 % 1025,5 hPa 0,0 mm 2,6 km/h (1 Bft) S 173 0 min 0,000 mm 0,0 UV-I 0 W/m 9,1 C 4,8 km/h (1 Bft)
22.08.2016 04:29 10,8 C 10,8 C 89 % 1025,6 hPa 0,0 mm 3,1 km/h (1 Bft) S 171 0 min 0,000 mm 0,0 UV-I 0 W/m 9,1 C 3,2 km/h (1 Bft)
22.08.2016 04:30 10,7 C 10,8 C 89 % 1025,5 hPa 0,0 mm 1,5 km/h (1 Bft) S 171 0 min 0,000 mm 0,0 UV-I 0 W/m 9,0 C 3,2 km/h (1 Bft)
22.08.2016 04:31 10,7 C 10,7 C 89 % 1025,5 hPa 0,0 mm 0,1 km/h (0 Bft) S 171 0 min 0,000 mm 0,0 UV-I 0 W/m 9,0 C 1,6 km/h (1 Bft)
22.08.2016 04:32 10,7 C 10,7 C 89 % 1025,6 hPa 0,0 mm 1,3 km/h (1 Bft) S 171 0 min 0,000 mm 0,0 UV-I 0 W/m 9,0 C 3,2 km/h (1 Bft)
22.08.2016 04:33 10,7 C 10,7 C 90 % 1025,6 hPa 0,0 mm 0,1 km/h (0 Bft) S 171 0 min 0,000 mm 0,0 UV-I 0 W/m 9,1 C 1,6 km/h (1 Bft)
22.08.2016 04:34 10,7 C 10,7 C 90 % 1025,6 hPa 0,0 mm 0,1 km/h (0 Bft) S 171 0 min 0,000 mm 0,0 UV-I 0 W/m 9,1 C 1,6 km/h (1 Bft)
22.08.2016 04:35 10,7 C 10,7 C 90 % 1025,6 hPa 0,0 mm 0,1 km/h (0 Bft) S 171 0 min 0,000 mm 0,0 UV-I 0 W/m 9,1 C 1,6 km/h (1 Bft)
22.08.2016 04:36 10,7 C 10,7 C 90 % 1025,7 hPa 0,0 mm 0,7 km/h (0 Bft) S 171 0 min 0,000 mm 0,0 UV-I 0 W/m 9,1 C 1,6 km/h (1 Bft)
22.08.2016 04:37 10,7 C 10,7 C 90 % 1025,6 hPa 0,0 mm 0,0 km/h (0 Bft) S 171 0 min 0,000 mm 0,0 UV-I 0 W/m 9,1 C 0,0 km/h (0 Bft)
22.08.2016 04:38 10,6 C 10,7 C 90 % 1025,6 hPa 0,0 mm 0,0 km/h (0 Bft) S 171 0 min 0,000 mm 0,0 UV-I 0 W/m 9,0 C 0,0 km/h (0 Bft)
22.08.2016 04:39 10,6 C 10,6 C 90 % 1025,6 hPa 0,0 mm 0,1 km/h (0 Bft) S 171 0 min 0,000 mm 0,0 UV-I 0 W/m 9,0 C 1,6 km/h (1 Bft)
22.08.2016 04:40 10,6 C 10,6 C 91 % 1025,6 hPa 0,0 mm 0,0 km/h (0 Bft) S 171 0 min 0,000 mm 0,0 UV-I 0 W/m 9,2 C 0,0 km/h (0 Bft)
22.08.2016 04:41 10,6 C 10,6 C 90 % 1025,7 hPa 0,0 mm 0,0 km/h (0 Bft) S 171 0 min 0,000 mm 0,0 UV-I 0 W/m 9,0 C 0,0 km/h (0 Bft)
22.08.2016 04:42 10,6 C 10,6 C 91 % 1025,7 hPa 0,0 mm 0,0 km/h (0 Bft) S 171 0 min 0,000 mm 0,0 UV-I 0 W/m 9,2 C 0,0 km/h (0 Bft)
22.08.2016 04:43 10,6 C 10,6 C 91 % 1025,7 hPa 0,0 mm 0,7 km/h (0 Bft) S 171 0 min 0,000 mm 0,0 UV-I 0 W/m 9,2 C 1,6 km/h (1 Bft)
22.08.2016 04:44 10,5 C 10,6 C 91 % 1025,6 hPa 0,0 mm 0,5 km/h (0 Bft) S 171 0 min 0,000 mm 0,0 UV-I 0 W/m 9,1 C 1,6 km/h (1 Bft)
22.08.2016 04:45 10,5 C 10,5 C 91 % 1025,6 hPa 0,0 mm 0,0 km/h (0 Bft) S 171 0 min 0,000 mm 0,0 UV-I 0 W/m 9,1 C 0,0 km/h (0 Bft)
22.08.2016 04:46 10,4 C 10,5 C 91 % 1025,6 hPa 0,0 mm 0,0 km/h (0 Bft) S 171 0 min 0,000 mm 0,0 UV-I 0 W/m 9,0 C 0,0 km/h (0 Bft)
22.08.2016 04:47 10,4 C 10,5 C 91 % 1025,6 hPa 0,0 mm 0,0 km/h (0 Bft) S 171 0 min 0,000 mm 0,0 UV-I 0 W/m 9,0 C 0,0 km/h (0 Bft)
22.08.2016 04:48 10,4 C 10,5 C 91 % 1025,6 hPa 0,0 mm 0,3 km/h (0 Bft) S 171 0 min 0,000 mm 0,0 UV-I 0 W/m 9,0 C 1,6 km/h (1 Bft)
22.08.2016 04:49 10,4 C 10,5 C 90 % 1025,6 hPa 0,0 mm 1,7 km/h (1 Bft) S 171 0 min 0,000 mm 0,0 UV-I 0 W/m 8,8 C 3,2 km/h (1 Bft)
22.08.2016 04:50 10,5 C 10,5 C 91 % 1025,6 hPa 0,0 mm 0,9 km/h (0 Bft) S 171 0 min 0,000 mm 0,0 UV-I 0 W/m 9,1 C 1,6 km/h (1 Bft)
22.08.2016 04:51 10,6 C 10,6 C 90 % 1025,6 hPa 0,0 mm 1,4 km/h (1 Bft) S 171 0 min 0,000 mm 0,0 UV-I 0 W/m 9,0 C 3,2 km/h (1 Bft)
22.08.2016 04:52 10,6 C 10,6 C 90 % 1025,7 hPa 0,0 mm 0,9 km/h (0 Bft) S 171 0 min 0,000 mm 0,0 UV-I 0 W/m 9,0 C 1,6 km/h (1 Bft)
22.08.2016 04:53 10,6 C 10,6 C 90 % 1025,6 hPa 0,0 mm 0,8 km/h (0 Bft) S 171 0 min 0,000 mm 0,0 UV-I 0 W/m 9,0 C 1,6 km/h (1 Bft)
22.08.2016 04:54 10,6 C 10,6 C 90 % 1025,7 hPa 0,0 mm 0,1 km/h (0 Bft) S 171 0 min 0,000 mm 0,0 UV-I 0 W/m 9,0 C 1,6 km/h (1 Bft)
22.08.2016 04:55 10,7 C 10,7 C 90 % 1025,7 hPa 0,0 mm 0,0 km/h (0 Bft) S 171 0 min 0,000 mm 0,0 UV-I 0 W/m 9,1 C 0,0 km/h (0 Bft)
22.08.2016 04:56 10,7 C 10,7 C 90 % 1025,7 hPa 0,0 mm 0,0 km/h (0 Bft) S 171 0 min 0,000 mm 0,0 UV-I 0 W/m 9,1 C 0,0 km/h (0 Bft)
22.08.2016 04:57 10,7 C 10,7 C 91 % 1025,8 hPa 0,0 mm 0,0 km/h (0 Bft) S 171 0 min 0,000 mm 0,0 UV-I 0 W/m 9,3 C 0,0 km/h (0 Bft)
22.08.2016 04:58 10,6 C 10,7 C 90 % 1025,8 hPa 0,0 mm 0,9 km/h (0 Bft) S 171 0 min 0,000 mm 0,0 UV-I 0 W/m 9,0 C 1,6 km/h (1 Bft)
22.08.2016 04:59 10,7 C 10,7 C 90 % 1025,8 hPa 0,0 mm 0,3 km/h (0 Bft) S 171 0 min 0,000 mm 0,0 UV-I 0 W/m 9,1 C 1,6 km/h (1 Bft)
22.08.2016 05:00 10,6 C 10,7 C 90 % 1025,8 hPa 0,0 mm 0,7 km/h (0 Bft) S 171 0 min 0,000 mm 0,0 UV-I 0 W/m 9,0 C 1,6 km/h (1 Bft)
22.08.2016 05:01 10,7 C 10,7 C 90 % 1025,8 hPa 0,0 mm 0,7 km/h (0 Bft) S 171 0 min 0,000 mm 0,0 UV-I 0 W/m 9,1 C 1,6 km/h (1 Bft)
22.08.2016 05:02 10,7 C 10,7 C 90 % 1025,8 hPa 0,0 mm 0,5 km/h (0 Bft) S 171 0 min 0,000 mm 0,0 UV-I 0 W/m 9,1 C 1,6 km/h (1 Bft)
22.08.2016 05:03 10,7 C 10,7 C 89 % 1025,8 hPa 0,0 mm 0,0 km/h (0 Bft) S 171 0 min 0,000 mm 0,0 UV-I 0 W/m 9,0 C 0,0 km/h (0 Bft)
22.08.2016 05:04 10,7 C 10,7 C 89 % 1025,8 hPa 0,0 mm 0,0 km/h (0 Bft) S 171 0 min 0,000 mm 0,0 UV-I 0 W/m 9,0 C 0,0 km/h (0 Bft)
22.08.2016 05:05 10,7 C 10,7 C 89 % 1025,8 hPa 0,0 mm 0,0 km/h (0 Bft) S 171 0 min 0,000 mm 0,0 UV-I 0 W/m 9,0 C 0,0 km/h (0 Bft)
22.08.2016 05:06 10,6 C 10,7 C 89 % 1025,8 hPa 0,0 mm 0,3 km/h (0 Bft) S 171 0 min 0,000 mm 0,0 UV-I 0 W/m 8,9 C 1,6 km/h (1 Bft)
22.08.2016 05:07 10,7 C 10,7 C 90 % 1025,8 hPa 0,0 mm 0,7 km/h (0 Bft) S 171 0 min 0,000 mm 0,0 UV-I 0 W/m 9,1 C 1,6 km/h (1 Bft)
22.08.2016 05:08 10,7 C 10,7 C 91 % 1025,9 hPa 0,0 mm 0,0 km/h (0 Bft) S 171 0 min 0,000 mm 0,0 UV-I 0 W/m 9,3 C 0,0 km/h (0 Bft)
22.08.2016 05:09 10,6 C 10,7 C 91 % 1025,8 hPa 0,0 mm 0,2 km/h (0 Bft) S 171 0 min 0,000 mm 0,0 UV-I 0 W/m 9,2 C 1,6 km/h (1 Bft)
22.08.2016 05:10 10,5 C 10,6 C 91 % 1025,9 hPa 0,0 mm 1,4 km/h (1 Bft) S 171 0 min 0,000 mm 0,0 UV-I 0 W/m 9,1 C 1,6 km/h (1 Bft)
22.08.2016 05:11 10,4 C 10,5 C 92 % 1025,9 hPa 0,0 mm 0,7 km/h (0 Bft) S 171 0 min 0,000 mm 0,0 UV-I 0 W/m 9,2 C 1,6 km/h (1 Bft)
22.08.2016 05:12 10,4 C 10,4 C 92 % 1025,9 hPa 0,0 mm 0,0 km/h (0 Bft) S 171 0 min 0,000 mm 0,0 UV-I 0 W/m 9,2 C 0,0 km/h (0 Bft)
22.08.2016 05:13 10,4 C 10,4 C 92 % 1025,9 hPa 0,0 mm 0,0 km/h (0 Bft) S 171 0 min 0,000 mm 0,0 UV-I 0 W/m 9,2 C 0,0 km/h (0 Bft)
22.08.2016 05:14 10,3 C 10,4 C 92 % 1025,9 hPa 0,0 mm 0,5 km/h (0 Bft) S 171 0 min 0,000 mm 0,0 UV-I 0 W/m 9,1 C 1,6 km/h (1 Bft)
22.08.2016 05:15 10,3 C 10,3 C 92 % 1025,9 hPa 0,0 mm 0,0 km/h (0 Bft) S 171 0 min 0,000 mm 0,0 UV-I 0 W/m 9,1 C 0,0 km/h (0 Bft)
22.08.2016 05:16 10,3 C 10,3 C 93 % 1025,9 hPa 0,0 mm 0,0 km/h (0 Bft) S 171 0 min 0,000 mm 0,0 UV-I 0 W/m 9,2 C 0,0 km/h (0 Bft)
22.08.2016 05:17 10,3 C 10,3 C 93 % 1025,9 hPa 0,0 mm 0,0 km/h (0 Bft) S 171 0 min 0,000 mm 0,0 UV-I 0 W/m 9,2 C 0,0 km/h (0 Bft)
22.08.2016 05:18 10,3 C 10,3 C 92 % 1025,9 hPa 0,0 mm 0,0 km/h (0 Bft) S 171 0 min 0,000 mm 0,0 UV-I 0 W/m 9,1 C 0,0 km/h (0 Bft)
22.08.2016 05:19 10,3 C 10,3 C 92 % 1025,9 hPa 0,0 mm 0,0 km/h (0 Bft) S 171 0 min 0,000 mm 0,0 UV-I 0 W/m 9,1 C 0,0 km/h (0 Bft)
22.08.2016 05:20 10,3 C 10,4 C 92 % 1026,0 hPa 0,0 mm 0,0 km/h (0 Bft) S 171 0 min 0,000 mm 0,0 UV-I 0 W/m 9,1 C 0,0 km/h (0 Bft)
22.08.2016 05:21 10,4 C 10,4 C 92 % 1026,0 hPa 0,0 mm 0,0 km/h (0 Bft) S 171 0 min 0,000 mm 0,0 UV-I 0 W/m 9,2 C 0,0 km/h (0 Bft)
22.08.2016 05:22 10,4 C 10,4 C 92 % 1026,0 hPa 0,0 mm 0,0 km/h (0 Bft) S 171 0 min 0,000 mm 0,0 UV-I 0 W/m 9,2 C 0,0 km/h (0 Bft)
22.08.2016 05:23 10,4 C 10,4 C 92 % 1026,0 hPa 0,0 mm 0,4 km/h (0 Bft) S 171 0 min 0,000 mm 0,0 UV-I 0 W/m 9,2 C 1,6 km/h (1 Bft)
22.08.2016 05:24 10,4 C 10,4 C 92 % 1026,0 hPa 0,0 mm 0,5 km/h (0 Bft) S 171 0 min 0,000 mm 0,0 UV-I 0 W/m 9,2 C 1,6 km/h (1 Bft)
22.08.2016 05:25 10,4 C 10,4 C 92 % 1026,0 hPa 0,0 mm 1,0 km/h (0 Bft) S 171 0 min 0,000 mm 0,0 UV-I 0 W/m 9,2 C 3,2 km/h (1 Bft)
22.08.2016 05:26 10,4 C 10,5 C 91 % 1026,1 hPa 0,0 mm 1,1 km/h (1 Bft) S 171 0 min 0,000 mm 0,0 UV-I 0 W/m 9,0 C 1,6 km/h (1 Bft)
22.08.2016 05:27 10,5 C 10,5 C 91 % 1026,1 hPa 0,0 mm 0,6 km/h (0 Bft) S 171 0 min 0,000 mm 0,0 UV-I 0 W/m 9,1 C 1,6 km/h (1 Bft)
22.08.2016 05:28 10,5 C 10,6 C 91 % 1026,0 hPa 0,0 mm 0,7 km/h (0 Bft) S 171 0 min 0,000 mm 0,0 UV-I 0 W/m 9,1 C 1,6 km/h (1 Bft)
22.08.2016 05:29 10,5 C 10,6 C 91 % 1026,0 hPa 0,0 mm 0,3 km/h (0 Bft) S 171 0 min 0,000 mm 0,0 UV-I 0 W/m 9,1 C 1,6 km/h (1 Bft)
22.08.2016 05:30 10,6 C 10,6 C 91 % 1026,0 hPa 0,0 mm 1,1 km/h (1 Bft) S 171 0 min 0,000 mm 0,0 UV-I 0 W/m 9,2 C 1,6 km/h (1 Bft)
22.08.2016 05:31 10,6 C 10,6 C 91 % 1026,0 hPa 0,0 mm 1,9 km/h (1 Bft) S 171 0 min 0,000 mm 0,0 UV-I 0 W/m 9,2 C 3,2 km/h (1 Bft)
22.08.2016 05:32 10,6 C 10,6 C 91 % 1025,9 hPa 0,0 mm 0,1 km/h (0 Bft) S 171 0 min 0,000 mm 0,0 UV-I 0 W/m 9,2 C 1,6 km/h (1 Bft)
22.08.2016 05:33 10,6 C 10,6 C 90 % 1026,0 hPa 0,0 mm 0,0 km/h (0 Bft) S 171 0 min 0,000 mm 0,0 UV-I 0 W/m 9,0 C 0,0 km/h (0 Bft)
22.08.2016 05:34 10,6 C 10,6 C 90 % 1026,0 hPa 0,0 mm 1,6 km/h (1 Bft) S 187 0 min 0,000 mm 0,0 UV-I 0 W/m 9,0 C 4,8 km/h (1 Bft)
22.08.2016 05:35 10,7 C 10,7 C 89 % 1026,0 hPa 0,0 mm 0,5 km/h (0 Bft) S 187 0 min 0,000 mm 0,0 UV-I 0 W/m 9,0 C 1,6 km/h (1 Bft)
22.08.2016 05:36 10,7 C 10,7 C 89 % 1026,0 hPa 0,0 mm 0,3 km/h (0 Bft) S 189 0 min 0,000 mm 0,0 UV-I 0 W/m 9,0 C 1,6 km/h (1 Bft)
22.08.2016 05:37 10,7 C 10,7 C 89 % 1026,0 hPa 0,0 mm 1,5 km/h (1 Bft) SW 222 0 min 0,000 mm 0,0 UV-I 0 W/m 9,0 C 3,2 km/h (1 Bft)
22.08.2016 05:38 10,7 C 10,8 C 90 % 1026,0 hPa 0,0 mm 0,3 km/h (0 Bft) SW 222 0 min 0,000 mm 0,0 UV-I 0 W/m 9,1 C 1,6 km/h (1 Bft)
22.08.2016 05:39 10,7 C 10,7 C 91 % 1026,1 hPa 0,0 mm 0,1 km/h (0 Bft) SW 222 0 min 0,000 mm 0,0 UV-I 0 W/m 9,3 C 1,6 km/h (1 Bft)
22.08.2016 05:40 10,7 C 10,7 C 91 % 1026,1 hPa 0,0 mm 0,9 km/h (0 Bft) SW 222 0 min 0,000 mm 0,0 UV-I 0 W/m 9,3 C 1,6 km/h (1 Bft)
22.08.2016 05:41 10,6 C 10,7 C 90 % 1026,2 hPa 0,0 mm 0,0 km/h (0 Bft) SW 222 0 min 0,000 mm 0,0 UV-I 0 W/m 9,0 C 0,0 km/h (0 Bft)
22.08.2016 05:42 10,6 C 10,6 C 91 % 1026,1 hPa 0,0 mm 0,1 km/h (0 Bft) SW 222 0 min 0,000 mm 0,0 UV-I 0 W/m 9,2 C 1,6 km/h (1 Bft)
22.08.2016 05:43 10,6 C 10,6 C 91 % 1026,1 hPa 0,0 mm 0,1 km/h (0 Bft) SW 222 0 min 0,000 mm 0,0 UV-I 0 W/m 9,2 C 1,6 km/h (1 Bft)
22.08.2016 05:44 10,6 C 10,6 C 91 % 1026,1 hPa 0,0 mm 0,0 km/h (0 Bft) SW 222 0 min 0,000 mm 0,0 UV-I 0 W/m 9,2 C 0,0 km/h (0 Bft)
22.08.2016 05:45 10,6 C 10,6 C 91 % 1026,1 hPa 0,0 mm 0,0 km/h (0 Bft) SW 222 0 min 0,000 mm 0,0 UV-I 0 W/m 9,2 C 0,0 km/h (0 Bft)
22.08.2016 05:46 10,6 C 10,6 C 92 % 1026,2 hPa 0,0 mm 0,0 km/h (0 Bft) SW 222 0 min 0,000 mm 0,0 UV-I 0 W/m 9,4 C 0,0 km/h (0 Bft)
22.08.2016 05:47 10,5 C 10,6 C 91 % 1026,1 hPa 0,0 mm 0,1 km/h (0 Bft) SW 222 0 min 0,000 mm 0,0 UV-I 0 W/m 9,1 C 1,6 km/h (1 Bft)
22.08.2016 05:48 10,5 C 10,6 C 90 % 1026,0 hPa 0,0 mm 1,0 km/h (0 Bft) SW 222 0 min 0,000 mm 0,0 UV-I 0 W/m 8,9 C 3,2 km/h (1 Bft)
22.08.2016 05:49 10,6 C 10,6 C 88 % 1026,2 hPa 0,0 mm 1,5 km/h (1 Bft) S-SW 213 0 min 0,000 mm 0,0 UV-I 0 W/m 8,7 C 3,2 km/h (1 Bft)
22.08.2016 05:50 10,7 C 10,7 C 88 % 1026,1 hPa 0,0 mm 1,5 km/h (1 Bft) S-SW 213 0 min 0,000 mm 0,0 UV-I 0 W/m 8,8 C 3,2 km/h (1 Bft)
22.08.2016 05:51 10,8 C 10,8 C 88 % 1026,2 hPa 0,0 mm 3,0 km/h (1 Bft) S 185 0 min 0,000 mm 0,0 UV-I 0 W/m 8,9 C 4,8 km/h (1 Bft)
22.08.2016 05:52 10,9 C 10,9 C 88 % 1026,1 hPa 0,0 mm 1,4 km/h (1 Bft) S 185 0 min 0,000 mm 0,0 UV-I 0 W/m 9,0 C 3,2 km/h (1 Bft)
22.08.2016 05:53 10,9 C 10,9 C 88 % 1026,1 hPa 0,0 mm 2,7 km/h (1 Bft) S 190 0 min 0,000 mm 0,0 UV-I 0 W/m 9,0 C 4,8 km/h (1 Bft)
22.08.2016 05:54 10,9 C 10,9 C 88 % 1026,2 hPa 0,0 mm 2,2 km/h (1 Bft) S 190 0 min 0,000 mm 0,0 UV-I 0 W/m 9,0 C 3,2 km/h (1 Bft)
22.08.2016 05:55 10,9 C 11,0 C 87 % 1026,2 hPa 0,0 mm 0,7 km/h (0 Bft) S 190 0 min 0,000 mm 0,0 UV-I 0 W/m 8,8 C 1,6 km/h (1 Bft)
22.08.2016 05:56 11,0 C 11,0 C 88 % 1026,2 hPa 0,0 mm 3,0 km/h (1 Bft) S 181 0 min 0,000 mm 0,0 UV-I 0 W/m 9,1 C 4,8 km/h (1 Bft)
22.08.2016 05:57 10,9 C 11,0 C 89 % 1026,2 hPa 0,0 mm 1,3 km/h (1 Bft) S 181 0 min 0,000 mm 0,0 UV-I 0 W/m 9,2 C 1,6 km/h (1 Bft)
22.08.2016 05:58 10,9 C 10,9 C 89 % 1026,2 hPa 0,0 mm 0,9 km/h (0 Bft) S 181 0 min 0,000 mm 0,0 UV-I 0 W/m 9,2 C 1,6 km/h (1 Bft)
22.08.2016 05:59 10,8 C 10,9 C 89 % 1026,2 hPa 0,0 mm 1,6 km/h (1 Bft) S 181 0 min 0,000 mm 0,0 UV-I 0 W/m 9,1 C 3,2 km/h (1 Bft)
22.08.2016 06:00 10,8 C 10,8 C 89 % 1026,2 hPa 0,0 mm 2,8 km/h (1 Bft) S 181 0 min 0,000 mm 0,0 UV-I 0 W/m 9,1 C 3,2 km/h (1 Bft)
22.08.2016 06:01 10,8 C 10,8 C 88 % 1026,2 hPa 0,0 mm 3,2 km/h (1 Bft) S 180 0 min 0,000 mm 0,0 UV-I 0 W/m 8,9 C 4,8 km/h (1 Bft)
22.08.2016 06:02 10,8 C 10,8 C 88 % 1026,2 hPa 0,0 mm 6,1 km/h (2 Bft) S 187 0 min 0,000 mm 0,0 UV-I 0 W/m 8,9 C 8,0 km/h (2 Bft)
22.08.2016 06:03 10,8 C 10,8 C 88 % 1026,2 hPa 0,0 mm 5,7 km/h (1 Bft) S-SW 194 0 min 0,000 mm 0,0 UV-I 0 W/m 8,9 C 8,0 km/h (2 Bft)
22.08.2016 06:04 10,8 C 10,8 C 88 % 1026,2 hPa 0,0 mm 2,5 km/h (1 Bft) S-SW 194 0 min 0,000 mm 0,0 UV-I 0 W/m 8,9 C 4,8 km/h (1 Bft)
22.08.2016 06:05 10,8 C 10,8 C 88 % 1026,3 hPa 0,0 mm 0,3 km/h (0 Bft) S-SW 194 0 min 0,000 mm 0,0 UV-I 0 W/m 8,9 C 1,6 km/h (1 Bft)
22.08.2016 06:06 10,8 C 10,8 C 88 % 1026,3 hPa 0,0 mm 1,5 km/h (1 Bft) S-SW 196 0 min 0,000 mm 0,0 UV-I 0 W/m 8,9 C 3,2 km/h (1 Bft)
22.08.2016 06:07 10,8 C 10,8 C 88 % 1026,3 hPa 0,0 mm 2,5 km/h (1 Bft) S 182 0 min 0,000 mm 0,0 UV-I 0 W/m 8,9 C 3,2 km/h (1 Bft)
22.08.2016 06:08 10,8 C 10,8 C 88 % 1026,3 hPa 0,0 mm 2,0 km/h (1 Bft) S 182 0 min 0,000 mm 0,0 UV-I 0 W/m 8,9 C 3,2 km/h (1 Bft)
22.08.2016 06:09 10,7 C 10,8 C 89 % 1026,3 hPa 0,0 mm 1,1 km/h (1 Bft) S 182 0 min 0,000 mm 0,0 UV-I 0 W/m 9,0 C 3,2 km/h (1 Bft)
22.08.2016 06:10 10,7 C 10,7 C 88 % 1026,3 hPa 0,0 mm 2,2 km/h (1 Bft) S 189 0 min 0,000 mm 0,0 UV-I 0 W/m 8,8 C 3,2 km/h (1 Bft)
22.08.2016 06:11 10,7 C 10,7 C 88 % 1026,3 hPa 0,0 mm 2,6 km/h (1 Bft) S 187 0 min 0,000 mm 0,0 UV-I 0 W/m 8,8 C 3,2 km/h (1 Bft)
22.08.2016 06:12 10,7 C 10,7 C 88 % 1026,4 hPa 0,0 mm 2,1 km/h (1 Bft) S 185 0 min 0,000 mm 0,0 UV-I 0 W/m 8,8 C 3,2 km/h (1 Bft)
22.08.2016 06:13 10,7 C 10,7 C 87 % 1026,4 hPa 0,0 mm 4,1 km/h (1 Bft) S 186 0 min 0,000 mm 0,0 UV-I 0 W/m 8,6 C 6,4 km/h (2 Bft)
22.08.2016 06:14 10,8 C 10,8 C 87 % 1026,5 hPa 0,0 mm 4,0 km/h (1 Bft) S 178 0 min 0,000 mm 0,0 UV-I 0 W/m 8,7 C 6,4 km/h (2 Bft)
22.08.2016 06:15 10,8 C 10,8 C 87 % 1026,4 hPa 0,0 mm 1,6 km/h (1 Bft) S 180 0 min 0,000 mm 0,0 UV-I 0 W/m 8,7 C 3,2 km/h (1 Bft)
22.08.2016 06:16 10,8 C 10,8 C 87 % 1026,5 hPa 0,0 mm 1,8 km/h (1 Bft) S 180 0 min 0,000 mm 0,0 UV-I 0 W/m 8,7 C 3,2 km/h (1 Bft)
22.08.2016 06:17 10,8 C 10,8 C 87 % 1026,4 hPa 0,0 mm 1,1 km/h (1 Bft) S 180 0 min 0,000 mm 0,0 UV-I 0 W/m 8,7 C 3,2 km/h (1 Bft)
22.08.2016 06:18 10,8 C 10,8 C 87 % 1026,5 hPa 0,0 mm 1,9 km/h (1 Bft) S 180 0 min 0,000 mm 0,0 UV-I 0 W/m 8,7 C 3,2 km/h (1 Bft)
22.08.2016 06:19 10,8 C 10,8 C 88 % 1026,5 hPa 0,0 mm 3,6 km/h (1 Bft) S 183 0 min 0,000 mm 0,0 UV-I 0 W/m 8,9 C 4,8 km/h (1 Bft)
22.08.2016 06:20 10,7 C 10,8 C 89 % 1026,5 hPa 0,0 mm 1,7 km/h (1 Bft) S 183 0 min 0,000 mm 0,0 UV-I 0 W/m 9,0 C 3,2 km/h (1 Bft)
22.08.2016 06:21 10,7 C 10,7 C 88 % 1026,5 hPa 0,0 mm 2,4 km/h (1 Bft) S-SW 198 0 min 0,000 mm 0,0 UV-I 0 W/m 8,8 C 4,8 km/h (1 Bft)
22.08.2016 06:22 10,7 C 10,7 C 87 % 1026,5 hPa 0,0 mm 3,6 km/h (1 Bft) S 185 0 min 0,000 mm 0,0 UV-I 0 W/m 8,6 C 4,8 km/h (1 Bft)
22.08.2016 06:23 10,7 C 10,7 C 87 % 1026,5 hPa 0,0 mm 4,4 km/h (1 Bft) S 180 0 min 0,000 mm 0,0 UV-I 0 W/m 8,6 C 6,4 km/h (2 Bft)
22.08.2016 06:24 10,7 C 10,7 C 87 % 1026,5 hPa 0,0 mm 3,7 km/h (1 Bft) S-SW 196 0 min 0,000 mm 0,0 UV-I 0 W/m 8,6 C 6,4 km/h (2 Bft)
22.08.2016 06:25 10,6 C 10,7 C 89 % 1026,5 hPa 0,0 mm 3,3 km/h (1 Bft) S 182 0 min 0,000 mm 0,0 UV-I 0 W/m 8,9 C 4,8 km/h (1 Bft)
22.08.2016 06:26 10,6 C 10,6 C 88 % 1026,5 hPa 0,0 mm 2,0 km/h (1 Bft) S 182 0 min 0,000 mm 0,0 UV-I 0 W/m 8,7 C 3,2 km/h (1 Bft)
22.08.2016 06:27 10,6 C 10,6 C 88 % 1026,5 hPa 0,0 mm 2,4 km/h (1 Bft) S 182 0 min 0,000 mm 0,0 UV-I 5 W/m 8,7 C 4,8 km/h (1 Bft)
22.08.2016 06:28 10,6 C 10,6 C 88 % 1026,5 hPa 0,0 mm 2,4 km/h (1 Bft) S-SW 200 0 min 0,000 mm 0,0 UV-I 5 W/m 8,7 C 4,8 km/h (1 Bft)
22.08.2016 06:29 10,6 C 10,6 C 88 % 1026,5 hPa 0,0 mm 4,1 km/h (1 Bft) S-SW 202 0 min 0,000 mm 0,0 UV-I 5 W/m 8,7 C 6,4 km/h (2 Bft)
22.08.2016 06:30 10,6 C 10,6 C 87 % 1026,5 hPa 0,0 mm 1,8 km/h (1 Bft) S 170 0 min 0,000 mm 0,0 UV-I 5 W/m 8,5 C 6,4 km/h (2 Bft)
22.08.2016 06:31 10,7 C 10,7 C 87 % 1026,6 hPa 0,0 mm 4,2 km/h (1 Bft) S 173 0 min 0,000 mm 0,0 UV-I 5 W/m 8,6 C 6,4 km/h (2 Bft)
22.08.2016 06:32 10,7 C 10,7 C 87 % 1026,6 hPa 0,0 mm 4,5 km/h (1 Bft) S 183 0 min 0,000 mm 0,0 UV-I 5 W/m 8,6 C 6,4 km/h (2 Bft)
22.08.2016 06:33 10,7 C 10,7 C 88 % 1026,6 hPa 0,0 mm 2,6 km/h (1 Bft) S-SW 195 0 min 0,000 mm 0,0 UV-I 7 W/m 8,8 C 4,8 km/h (1 Bft)
22.08.2016 06:34 10,7 C 10,7 C 87 % 1026,6 hPa 0,0 mm 2,4 km/h (1 Bft) S 182 0 min 0,000 mm 0,0 UV-I 7 W/m 8,6 C 3,2 km/h (1 Bft)
22.08.2016 06:35 10,7 C 10,7 C 87 % 1026,6 hPa 0,0 mm 1,3 km/h (1 Bft) S 182 0 min 0,000 mm 0,0 UV-I 7 W/m 8,6 C 3,2 km/h (1 Bft)
22.08.2016 06:36 10,7 C 10,7 C 87 % 1026,7 hPa 0,0 mm 1,1 km/h (1 Bft) S 182 0 min 0,000 mm 0,0 UV-I 9 W/m 8,6 C 1,6 km/h (1 Bft)
22.08.2016 06:37 10,7 C 10,7 C 87 % 1026,7 hPa 0,0 mm 1,7 km/h (1 Bft) S 181 0 min 0,000 mm 0,0 UV-I 9 W/m 8,6 C 3,2 km/h (1 Bft)
22.08.2016 06:38 10,7 C 10,7 C 87 % 1026,7 hPa 0,0 mm 2,4 km/h (1 Bft) S 182 0 min 0,000 mm 0,0 UV-I 11 W/m 8,6 C 3,2 km/h (1 Bft)
22.08.2016 06:39 10,7 C 10,7 C 87 % 1026,7 hPa 0,0 mm 2,3 km/h (1 Bft) S-SO 163 0 min 0,000 mm 0,0 UV-I 12 W/m 8,6 C 3,2 km/h (1 Bft)
22.08.2016 06:40 10,7 C 10,7 C 88 % 1026,7 hPa 0,0 mm 2,8 km/h (1 Bft) S-SW 194 0 min 0,000 mm 0,0 UV-I 12 W/m 8,8 C 4,8 km/h (1 Bft)
22.08.2016 06:41 10,6 C 10,7 C 87 % 1026,7 hPa 0,0 mm 2,9 km/h (1 Bft) S-SW 194 0 min 0,000 mm 0,0 UV-I 12 W/m 8,5 C 4,8 km/h (1 Bft)
22.08.2016 06:42 10,6 C 10,6 C 87 % 1026,7 hPa 0,0 mm 3,6 km/h (1 Bft) S 185 0 min 0,000 mm 0,0 UV-I 12 W/m 8,5 C 4,8 km/h (1 Bft)
22.08.2016 06:43 10,5 C 10,6 C 87 % 1026,7 hPa 0,0 mm 2,4 km/h (1 Bft) S 184 0 min 0,000 mm 0,0 UV-I 14 W/m 8,4 C 3,2 km/h (1 Bft)
22.08.2016 06:44 10,6 C 10,6 C 88 % 1026,7 hPa 0,0 mm 2,7 km/h (1 Bft) S 183 0 min 0,000 mm 0,0 UV-I 14 W/m 8,7 C 4,8 km/h (1 Bft)
22.08.2016 06:45 10,5 C 10,6 C 89 % 1026,8 hPa 0,0 mm 4,4 km/h (1 Bft) S-SO 165 0 min 0,000 mm 0,0 UV-I 16 W/m 8,8 C 6,4 km/h (2 Bft)
22.08.2016 06:46 10,5 C 10,5 C 88 % 1026,7 hPa 0,0 mm 2,1 km/h (1 Bft) S-SO 161 0 min 0,000 mm 0,0 UV-I 16 W/m 8,6 C 3,2 km/h (1 Bft)
22.08.2016 06:47 10,5 C 10,5 C 88 % 1026,8 hPa 0,0 mm 2,7 km/h (1 Bft) S-SO 161 0 min 0,000 mm 0,0 UV-I 16 W/m 8,6 C 3,2 km/h (1 Bft)
22.08.2016 06:48 10,4 C 10,5 C 88 % 1026,8 hPa 0,0 mm 3,8 km/h (1 Bft) S 184 0 min 0,000 mm 0,0 UV-I 18 W/m 8,5 C 6,4 km/h (2 Bft)
22.08.2016 06:49 10,4 C 10,4 C 87 % 1026,8 hPa 0,0 mm 4,0 km/h (1 Bft) S 186 0 min 0,000 mm 0,0 UV-I 18 W/m 8,3 C 6,4 km/h (2 Bft)
22.08.2016 06:50 10,4 C 10,4 C 88 % 1026,8 hPa 0,0 mm 2,5 km/h (1 Bft) S 186 0 min 0,000 mm 0,0 UV-I 19 W/m 8,5 C 3,2 km/h (1 Bft)
22.08.2016 06:51 10,4 C 10,4 C 88 % 1026,8 hPa 0,0 mm 2,5 km/h (1 Bft) S 186 0 min 0,000 mm 0,0 UV-I 21 W/m 8,5 C 3,2 km/h (1 Bft)
22.08.2016 06:52 10,4 C 10,4 C 88 % 1026,9 hPa 0,0 mm 2,5 km/h (1 Bft) S 186 0 min 0,000 mm 0,0 UV-I 21 W/m 8,5 C 3,2 km/h (1 Bft)
22.08.2016 06:53 10,4 C 10,4 C 88 % 1026,8 hPa 0,0 mm 2,2 km/h (1 Bft) S 186 0 min 0,000 mm 0,0 UV-I 23 W/m 8,5 C 3,2 km/h (1 Bft)
22.08.2016 06:54 10,3 C 10,4 C 89 % 1026,8 hPa 0,0 mm 2,2 km/h (1 Bft) S 186 0 min 0,000 mm 0,0 UV-I 23 W/m 8,6 C 3,2 km/h (1 Bft)
22.08.2016 06:55 10,3 C 10,3 C 89 % 1026,8 hPa 0,0 mm 0,8 km/h (0 Bft) S 186 0 min 0,000 mm 0,0 UV-I 25 W/m 8,6 C 3,2 km/h (1 Bft)
22.08.2016 06:56 10,2 C 10,3 C 89 % 1026,8 hPa 0,0 mm 0,9 km/h (0 Bft) S 186 0 min 0,000 mm 0,0 UV-I 25 W/m 8,5 C 1,6 km/h (1 Bft)
22.08.2016 06:57 10,1 C 10,2 C 89 % 1026,8 hPa 0,0 mm 2,0 km/h (1 Bft) S 182 0 min 0,000 mm 0,0 UV-I 25 W/m 8,4 C 3,2 km/h (1 Bft)
22.08.2016 06:58 10,1 C 10,2 C 90 % 1026,8 hPa 0,0 mm 2,1 km/h (1 Bft) S 182 0 min 0,000 mm 0,0 UV-I 25 W/m 8,5 C 3,2 km/h (1 Bft)
22.08.2016 06:59 10,2 C 10,2 C 90 % 1026,8 hPa 0,0 mm 2,8 km/h (1 Bft) S 182 0 min 0,000 mm 0,0 UV-I 26 W/m 8,6 C 4,8 km/h (1 Bft)
22.08.2016 07:00 10,2 C 10,2 C 90 % 1026,8 hPa 0,0 mm 1,9 km/h (1 Bft) S 182 0 min 0,000 mm 0,0 UV-I 26 W/m 8,6 C 3,2 km/h (1 Bft)
22.08.2016 07:01 10,2 C 10,2 C 90 % 1026,8 hPa 0,0 mm 2,9 km/h (1 Bft) S 182 0 min 0,000 mm 0,0 UV-I 26 W/m 8,6 C 4,8 km/h (1 Bft)
22.08.2016 07:02 10,2 C 10,2 C 90 % 1026,9 hPa 0,0 mm 1,1 km/h (1 Bft) S 182 0 min 0,000 mm 0,0 UV-I 30 W/m 8,6 C 1,6 km/h (1 Bft)
22.08.2016 07:03 10,2 C 10,2 C 90 % 1026,8 hPa 0,0 mm 1,1 km/h (1 Bft) S 182 0 min 0,000 mm 0,0 UV-I 30 W/m 8,6 C 1,6 km/h (1 Bft)
22.08.2016 07:04 10,2 C 10,2 C 90 % 1026,8 hPa 0,0 mm 0,2 km/h (0 Bft) S 190 0 min 0,000 mm 0,0 UV-I 32 W/m 8,6 C 1,6 km/h (1 Bft)
22.08.2016 07:05 10,1 C 10,2 C 89 % 1026,8 hPa 0,0 mm 1,9 km/h (1 Bft) W 262 0 min 0,000 mm 0,0 UV-I 32 W/m 8,4 C 3,2 km/h (1 Bft)
22.08.2016 07:06 10,0 C 10,1 C 90 % 1026,8 hPa 0,0 mm 0,1 km/h (0 Bft) W 262 0 min 0,000 mm 0,0 UV-I 30 W/m 8,4 C 1,6 km/h (1 Bft)
22.08.2016 07:07 9,9 C 10,0 C 90 % 1026,8 hPa 0,0 mm 0,0 km/h (0 Bft) W 262 0 min 0,000 mm 0,0 UV-I 30 W/m 8,3 C 0,0 km/h (0 Bft)
22.08.2016 07:08 9,8 C 9,9 C 91 % 1026,8 hPa 0,0 mm 0,0 km/h (0 Bft) W 262 0 min 0,000 mm 0,0 UV-I 26 W/m 8,4 C 0,0 km/h (0 Bft)
22.08.2016 07:09 9,8 C 9,8 C 91 % 1026,8 hPa 0,0 mm 0,0 km/h (0 Bft) W 262 0 min 0,000 mm 0,0 UV-I 26 W/m 8,4 C 0,0 km/h (0 Bft)
22.08.2016 07:10 9,7 C 9,8 C 91 % 1026,8 hPa 0,0 mm 0,0 km/h (0 Bft) W 262 0 min 0,000 mm 0,0 UV-I 26 W/m 8,3 C 0,0 km/h (0 Bft)
22.08.2016 07:11 9,7 C 9,7 C 91 % 1026,8 hPa 0,0 mm 0,0 km/h (0 Bft) W 262 0 min 0,000 mm 0,0 UV-I 26 W/m 8,3 C 0,0 km/h (0 Bft)
22.08.2016 07:12 9,7 C 9,7 C 91 % 1026,8 hPa 0,0 mm 0,0 km/h (0 Bft) W 262 0 min 0,000 mm 0,0 UV-I 26 W/m 8,3 C 0,0 km/h (0 Bft)
22.08.2016 07:13 9,7 C 9,7 C 91 % 1026,8 hPa 0,0 mm 0,0 km/h (0 Bft) W 262 0 min 0,000 mm 0,0 UV-I 25 W/m 8,3 C 0,0 km/h (0 Bft)
22.08.2016 07:14 9,7 C 9,7 C 91 % 1026,8 hPa 0,0 mm 0,0 km/h (0 Bft) W 262 0 min 0,000 mm 0,0 UV-I 21 W/m 8,3 C 0,0 km/h (0 Bft)
22.08.2016 07:15 9,7 C 9,7 C 91 % 1026,8 hPa 0,0 mm 0,0 km/h (0 Bft) W 262 0 min 0,000 mm 0,0 UV-I 21 W/m 8,3 C 0,0 km/h (0 Bft)
22.08.2016 07:16 9,7 C 9,7 C 91 % 1026,8 hPa 0,0 mm 0,0 km/h (0 Bft) W 262 0 min 0,000 mm 0,0 UV-I 21 W/m 8,3 C 0,0 km/h (0 Bft)
22.08.2016 07:17 9,7 C 9,7 C 91 % 1026,8 hPa 0,0 mm 0,0 km/h (0 Bft) W 262 0 min 0,000 mm 0,0 UV-I 21 W/m 8,3 C 0,0 km/h (0 Bft)
22.08.2016 07:18 9,7 C 9,7 C 91 % 1026,8 hPa 0,0 mm 0,0 km/h (0 Bft) W 262 0 min 0,000 mm 0,0 UV-I 21 W/m 8,3 C 0,0 km/h (0 Bft)
22.08.2016 07:19 9,7 C 9,7 C 91 % 1026,9 hPa 0,0 mm 0,0 km/h (0 Bft) W 262 0 min 0,000 mm 0,0 UV-I 23 W/m 8,3 C 0,0 km/h (0 Bft)
22.08.2016 07:20 9,6 C 9,7 C 91 % 1026,8 hPa 0,0 mm 0,0 km/h (0 Bft) W 262 0 min 0,000 mm 0,0 UV-I 25 W/m 8,2 C 0,0 km/h (0 Bft)
22.08.2016 07:21 9,6 C 9,6 C 91 % 1026,9 hPa 0,0 mm 0,0 km/h (0 Bft) W 262 0 min 0,000 mm 0,0 UV-I 25 W/m 8,2 C 0,0 km/h (0 Bft)
22.08.2016 07:22 9,6 C 9,6 C 91 % 1026,9 hPa 0,0 mm 0,0 km/h (0 Bft) W 262 0 min 0,000 mm 0,0 UV-I 25 W/m 8,2 C 0,0 km/h (0 Bft)
22.08.2016 07:23 9,6 C 9,6 C 91 % 1026,9 hPa 0,0 mm 0,0 km/h (0 Bft) W 262 0 min 0,000 mm 0,0 UV-I 25 W/m 8,2 C 0,0 km/h (0 Bft)
22.08.2016 07:24 9,6 C 9,6 C 91 % 1026,9 hPa 0,0 mm 0,9 km/h (0 Bft) W 261 0 min 0,000 mm 0,0 UV-I 26 W/m 8,2 C 3,2 km/h (1 Bft)
22.08.2016 07:25 9,6 C 9,6 C 91 % 1027,0 hPa 0,0 mm 0,3 km/h (0 Bft) W 261 0 min 0,000 mm 0,0 UV-I 28 W/m 8,2 C 1,6 km/h (1 Bft)
22.08.2016 07:26 9,6 C 9,6 C 91 % 1027,0 hPa 0,0 mm 0,5 km/h (0 Bft) W 261 0 min 0,000 mm 0,0 UV-I 30 W/m 8,2 C 1,6 km/h (1 Bft)
22.08.2016 07:27 9,6 C 9,6 C 91 % 1027,0 hPa 0,0 mm 0,7 km/h (0 Bft) W 261 0 min 0,000 mm 0,0 UV-I 30 W/m 8,2 C 1,6 km/h (1 Bft)
22.08.2016 07:28 9,6 C 9,6 C 92 % 1027,0 hPa 0,0 mm 1,7 km/h (1 Bft) W 261 0 min 0,000 mm 0,0 UV-I 28 W/m 8,4 C 3,2 km/h (1 Bft)
22.08.2016 07:29 9,7 C 9,7 C 92 % 1027,0 hPa 0,0 mm 2,1 km/h (1 Bft) S-SW 206 0 min 0,000 mm 0,0 UV-I 28 W/m 8,5 C 3,2 km/h (1 Bft)
22.08.2016 07:30 9,7 C 9,7 C 92 % 1026,9 hPa 0,0 mm 2,9 km/h (1 Bft) S-SW 206 0 min 0,000 mm 0,0 UV-I 28 W/m 8,5 C 4,8 km/h (1 Bft)
22.08.2016 07:31 9,8 C 9,8 C 92 % 1026,9 hPa 0,0 mm 2,5 km/h (1 Bft) S-SW 206 0 min 0,000 mm 0,0 UV-I 33 W/m 8,6 C 3,2 km/h (1 Bft)
22.08.2016 07:32 9,8 C 9,8 C 92 % 1026,9 hPa 0,0 mm 2,1 km/h (1 Bft) S-SW 206 0 min 0,000 mm 0,0 UV-I 35 W/m 8,6 C 3,2 km/h (1 Bft)
22.08.2016 07:33 9,8 C 9,9 C 91 % 1026,9 hPa 0,0 mm 1,4 km/h (1 Bft) S-SW 206 0 min 0,000 mm 0,0 UV-I 35 W/m 8,4 C 3,2 km/h (1 Bft)
22.08.2016 07:34 9,9 C 9,9 C 91 % 1026,9 hPa 0,0 mm 0,9 km/h (0 Bft) S-SW 207 0 min 0,000 mm 0,0 UV-I 35 W/m 8,5 C 1,6 km/h (1 Bft)
22.08.2016 07:35 9,9 C 9,9 C 91 % 1027,0 hPa 0,0 mm 0,3 km/h (0 Bft) S-SW 206 0 min 0,000 mm 0,0 UV-I 37 W/m 8,5 C 1,6 km/h (1 Bft)
22.08.2016 07:36 9,9 C 9,9 C 91 % 1027,0 hPa 0,0 mm 0,5 km/h (0 Bft) S-SW 206 0 min 0,000 mm 0,0 UV-I 33 W/m 8,5 C 1,6 km/h (1 Bft)
22.08.2016 07:37 9,9 C 9,9 C 91 % 1027,0 hPa 0,0 mm 0,0 km/h (0 Bft) S-SW 206 0 min 0,000 mm 0,0 UV-I 35 W/m 8,5 C 0,0 km/h (0 Bft)
22.08.2016 07:38 10,0 C 10,0 C 91 % 1027,0 hPa 0,0 mm 0,0 km/h (0 Bft) S-SW 207 0 min 0,000 mm 0,0 UV-I 33 W/m 8,6 C 0,0 km/h (0 Bft)
22.08.2016 07:39 10,0 C 10,0 C 91 % 1027,0 hPa 0,0 mm 0,0 km/h (0 Bft) S-SW 206 0 min 0,000 mm 0,0 UV-I 35 W/m 8,6 C 0,0 km/h (0 Bft)
22.08.2016 07:40 10,1 C 10,1 C 91 % 1027,0 hPa 0,0 mm 0,0 km/h (0 Bft) S-SW 206 0 min 0,000 mm 0,0 UV-I 35 W/m 8,7 C 0,0 km/h (0 Bft)
22.08.2016 07:41 10,1 C 10,1 C 91 % 1027,0 hPa 0,0 mm 0,0 km/h (0 Bft) S-SW 207 0 min 0,000 mm 0,0 UV-I 35 W/m 8,7 C 0,0 km/h (0 Bft)
22.08.2016 07:42 10,0 C 10,1 C 91 % 1027,0 hPa 0,0 mm 0,0 km/h (0 Bft) S-SW 207 0 min 0,000 mm 0,0 UV-I 35 W/m 8,6 C 0,0 km/h (0 Bft)
22.08.2016 07:43 10,0 C 10,0 C 91 % 1027,0 hPa 0,0 mm 0,2 km/h (0 Bft) S-SW 207 0 min 0,000 mm 0,0 UV-I 42 W/m 8,6 C 1,6 km/h (1 Bft)
22.08.2016 07:44 10,0 C 10,1 C 91 % 1027,0 hPa 0,0 mm 0,2 km/h (0 Bft) S-SW 207 0 min 0,000 mm 0,5 UV-I 77 W/m 8,6 C 1,6 km/h (1 Bft)
22.08.2016 07:45 10,1 C 10,1 C 91 % 1027,1 hPa 0,0 mm 0,0 km/h (0 Bft) S-SW 207 1 min 0,000 mm 0,6 UV-I 132 W/m 8,7 C 0,0 km/h (0 Bft)
22.08.2016 07:46 10,1 C 10,1 C 91 % 1027,1 hPa 0,0 mm 0,0 km/h (0 Bft) S-SW 207 1 min 0,000 mm 0,6 UV-I 163 W/m 8,7 C 0,0 km/h (0 Bft)
22.08.2016 07:47 10,1 C 10,1 C 91 % 1027,1 hPa 0,0 mm 0,0 km/h (0 Bft) S-SW 207 1 min 0,000 mm 0,6 UV-I 167 W/m 8,7 C 0,0 km/h (0 Bft)
22.08.2016 07:48 10,1 C 10,1 C 91 % 1027,1 hPa 0,0 mm 0,0 km/h (0 Bft) S-SW 207 1 min 0,000 mm 0,6 UV-I 169 W/m 8,7 C 0,0 km/h (0 Bft)
22.08.2016 07:49 10,2 C 10,2 C 91 % 1027,1 hPa 0,0 mm 0,0 km/h (0 Bft) S-SW 207 1 min 0,000 mm 0,6 UV-I 172 W/m 8,8 C 0,0 km/h (0 Bft)
22.08.2016 07:50 10,3 C 10,3 C 92 % 1027,1 hPa 0,0 mm 0,0 km/h (0 Bft) S-SW 207 1 min 0,000 mm 0,7 UV-I 172 W/m 9,1 C 0,0 km/h (0 Bft)
22.08.2016 07:51 10,4 C 10,4 C 92 % 1027,1 hPa 0,0 mm 0,0 km/h (0 Bft) S-SW 207 1 min 0,000 mm 0,7 UV-I 174 W/m 9,2 C 0,0 km/h (0 Bft)
22.08.2016 07:52 10,4 C 10,4 C 91 % 1027,1 hPa 0,0 mm 0,5 km/h (0 Bft) S-SW 207 1 min 0,000 mm 0,7 UV-I 176 W/m 9,0 C 1,6 km/h (1 Bft)
22.08.2016 07:53 10,4 C 10,4 C 91 % 1027,1 hPa 0,0 mm 1,6 km/h (1 Bft) S-SW 207 1 min 0,000 mm 0,7 UV-I 178 W/m 9,0 C 3,2 km/h (1 Bft)
22.08.2016 07:54 10,5 C 10,5 C 91 % 1027,1 hPa 0,0 mm 2,0 km/h (1 Bft) S-SW 207 1 min 0,000 mm 0,7 UV-I 179 W/m 9,1 C 3,2 km/h (1 Bft)
22.08.2016 07:55 10,6 C 10,6 C 91 % 1027,1 hPa 0,0 mm 2,5 km/h (1 Bft) S-SW 206 1 min 0,000 mm 0,7 UV-I 181 W/m 9,2 C 3,2 km/h (1 Bft)
22.08.2016 07:56 10,6 C 10,6 C 91 % 1027,1 hPa 0,0 mm 3,0 km/h (1 Bft) S-SW 206 1 min 0,000 mm 0,7 UV-I 181 W/m 9,2 C 3,2 km/h (1 Bft)
22.08.2016 07:57 10,7 C 10,7 C 90 % 1027,1 hPa 0,0 mm 3,2 km/h (1 Bft) S-SW 206 1 min 0,000 mm 0,8 UV-I 185 W/m 9,1 C 4,8 km/h (1 Bft)
22.08.2016 07:58 10,8 C 10,8 C 90 % 1027,1 hPa 0,0 mm 2,8 km/h (1 Bft) S-SW 206 1 min 0,000 mm 0,8 UV-I 185 W/m 9,2 C 3,2 km/h (1 Bft)
22.08.2016 07:59 10,9 C 10,9 C 89 % 1027,1 hPa 0,0 mm 2,7 km/h (1 Bft) S-SW 206 1 min 0,000 mm 0,8 UV-I 192 W/m 9,2 C 3,2 km/h (1 Bft)
22.08.2016 08:00 11,1 C 11,1 C 89 % 1027,1 hPa 0,0 mm 1,9 km/h (1 Bft) S-SW 206 1 min 0,000 mm 0,8 UV-I 193 W/m 9,4 C 3,2 km/h (1 Bft)
22.08.2016 08:01 11,1 C 11,1 C 89 % 1027,1 hPa 0,0 mm 1,7 km/h (1 Bft) S-SW 206 1 min 0,025 mm 0,8 UV-I 199 W/m 9,4 C 3,2 km/h (1 Bft)
22.08.2016 08:02 11,2 C 11,2 C 89 % 1027,1 hPa 0,0 mm 1,3 km/h (1 Bft) S-SW 206 1 min 0,000 mm 0,8 UV-I 202 W/m 9,5 C 3,2 km/h (1 Bft)
22.08.2016 08:03 11,3 C 11,3 C 89 % 1027,2 hPa 0,0 mm 0,9 km/h (0 Bft) S-SW 206 1 min 0,000 mm 0,8 UV-I 204 W/m 9,6 C 3,2 km/h (1 Bft)
22.08.2016 08:04 11,4 C 11,4 C 89 % 1027,2 hPa 0,0 mm 1,0 km/h (0 Bft) S-SW 206 1 min 0,000 mm 0,9 UV-I 207 W/m 9,7 C 3,2 km/h (1 Bft)
22.08.2016 08:05 11,5 C 11,5 C 88 % 1027,2 hPa 0,0 mm 0,0 km/h (0 Bft) S-SW 206 1 min 0,000 mm 0,9 UV-I 209 W/m 9,6 C 0,0 km/h (0 Bft)
22.08.2016 08:06 11,5 C 11,5 C 86 % 1027,2 hPa 0,0 mm 0,9 km/h (0 Bft) S-SW 206 1 min 0,000 mm 0,9 UV-I 211 W/m 9,2 C 1,6 km/h (1 Bft)
22.08.2016 08:07 11,6 C 11,6 C 85 % 1027,2 hPa 0,0 mm 3,2 km/h (1 Bft) S 174 1 min 0,000 mm 0,9 UV-I 216 W/m 9,2 C 4,8 km/h (1 Bft)
22.08.2016 08:08 11,6 C 11,6 C 86 % 1027,2 hPa 0,0 mm 1,9 km/h (1 Bft) S 174 1 min 0,000 mm 0,9 UV-I 220 W/m 9,3 C 3,2 km/h (1 Bft)
22.08.2016 08:09 11,7 C 11,7 C 85 % 1027,2 hPa 0,0 mm 1,3 km/h (1 Bft) S 175 1 min 0,000 mm 0,9 UV-I 223 W/m 9,3 C 3,2 km/h (1 Bft)
22.08.2016 08:10 11,6 C 11,7 C 85 % 1027,1 hPa 0,0 mm 0,5 km/h (0 Bft) S 175 1 min 0,000 mm 1,0 UV-I 225 W/m 9,2 C 1,6 km/h (1 Bft)
22.08.2016 08:11 11,6 C 11,6 C 87 % 1027,2 hPa 0,0 mm 0,3 km/h (0 Bft) S 175 1 min 0,000 mm 1,0 UV-I 229 W/m 9,5 C 1,6 km/h (1 Bft)
22.08.2016 08:12 11,6 C 11,7 C 86 % 1027,2 hPa 0,0 mm 1,0 km/h (0 Bft) S 175 1 min 0,000 mm 1,0 UV-I 236 W/m 9,3 C 1,6 km/h (1 Bft)
22.08.2016 08:13 11,7 C 11,7 C 85 % 1027,2 hPa 0,0 mm 1,6 km/h (1 Bft) S 175 1 min 0,000 mm 1,0 UV-I 237 W/m 9,3 C 3,2 km/h (1 Bft)
22.08.2016 08:14 11,7 C 11,7 C 86 % 1027,2 hPa 0,0 mm 2,3 km/h (1 Bft) S 188 1 min 0,000 mm 1,0 UV-I 241 W/m 9,4 C 3,2 km/h (1 Bft)
22.08.2016 08:15 11,8 C 11,8 C 84 % 1027,2 hPa 0,0 mm 1,6 km/h (1 Bft) S 188 1 min 0,000 mm 1,0 UV-I 243 W/m 9,2 C 3,2 km/h (1 Bft)
22.08.2016 08:16 11,8 C 11,8 C 85 % 1027,2 hPa 0,0 mm 1,3 km/h (1 Bft) S 188 1 min 0,000 mm 1,1 UV-I 246 W/m 9,4 C 3,2 km/h (1 Bft)
22.08.2016 08:17 11,8 C 11,8 C 86 % 1027,2 hPa 0,0 mm 0,3 km/h (0 Bft) S 188 1 min 0,000 mm 1,1 UV-I 250 W/m 9,5 C 1,6 km/h (1 Bft)
22.08.2016 08:18 11,9 C 11,9 C 87 % 1027,3 hPa 0,0 mm 1,7 km/h (1 Bft) S 188 1 min 0,000 mm 1,1 UV-I 255 W/m 9,8 C 3,2 km/h (1 Bft)
22.08.2016 08:19 11,9 C 11,9 C 86 % 1027,3 hPa 0,0 mm 1,8 km/h (1 Bft) W 269 1 min 0,000 mm 1,1 UV-I 258 W/m 9,6 C 3,2 km/h (1 Bft)
22.08.2016 08:20 12,1 C 12,1 C 88 % 1027,4 hPa 0,0 mm 2,7 km/h (1 Bft) SW 219 1 min 0,000 mm 1,1 UV-I 262 W/m 10,2 C 6,4 km/h (2 Bft)
22.08.2016 08:21 12,3 C 12,3 C 84 % 1027,3 hPa 0,0 mm 1,7 km/h (1 Bft) SW 221 1 min 0,000 mm 1,2 UV-I 265 W/m 9,7 C 3,2 km/h (1 Bft)
22.08.2016 08:22 12,3 C 12,3 C 85 % 1027,4 hPa 0,0 mm 1,6 km/h (1 Bft) SW 221 1 min 0,000 mm 1,2 UV-I 269 W/m 9,9 C 3,2 km/h (1 Bft)
22.08.2016 08:23 12,4 C 12,4 C 83 % 1027,3 hPa 0,0 mm 0,3 km/h (0 Bft) SW 221 1 min 0,000 mm 1,2 UV-I 271 W/m 9,6 C 3,2 km/h (1 Bft)
22.08.2016 08:24 12,6 C 12,6 C 85 % 1027,3 hPa 0,0 mm 1,9 km/h (1 Bft) S-SW 209 1 min 0,000 mm 1,2 UV-I 278 W/m 10,1 C 3,2 km/h (1 Bft)
22.08.2016 08:25 12,6 C 12,6 C 82 % 1027,3 hPa 0,0 mm 2,3 km/h (1 Bft) SW 217 1 min 0,000 mm 1,3 UV-I 281 W/m 9,6 C 3,2 km/h (1 Bft)
22.08.2016 08:26 12,6 C 12,7 C 83 % 1027,4 hPa 0,0 mm 1,6 km/h (1 Bft) SW 232 1 min 0,000 mm 1,3 UV-I 285 W/m 9,8 C 3,2 km/h (1 Bft)
22.08.2016 08:27 12,5 C 12,6 C 84 % 1027,3 hPa 0,0 mm 0,7 km/h (0 Bft) SW 232 1 min 0,000 mm 1,3 UV-I 288 W/m 9,9 C 1,6 km/h (1 Bft)
22.08.2016 08:28 12,6 C 12,6 C 84 % 1027,3 hPa 0,0 mm 2,3 km/h (1 Bft) S 169 1 min 0,000 mm 1,3 UV-I 292 W/m 10,0 C 3,2 km/h (1 Bft)
22.08.2016 08:29 12,6 C 12,6 C 83 % 1027,3 hPa 0,0 mm 4,2 km/h (1 Bft) SW 215 1 min 0,000 mm 1,3 UV-I 295 W/m 9,8 C 6,4 km/h (2 Bft)
22.08.2016 08:30 12,7 C 12,7 C 85 % 1027,3 hPa 0,0 mm 4,0 km/h (1 Bft) W-SW 250 1 min 0,000 mm 1,3 UV-I 301 W/m 10,2 C 6,4 km/h (2 Bft)
22.08.2016 08:31 12,8 C 12,8 C 82 % 1027,3 hPa 0,0 mm 3,0 km/h (1 Bft) W-SW 251 1 min 0,000 mm 1,4 UV-I 302 W/m 9,8 C 4,8 km/h (1 Bft)
22.08.2016 08:32 12,9 C 12,9 C 85 % 1027,3 hPa 0,0 mm 4,0 km/h (1 Bft) SW 216 1 min 0,000 mm 1,4 UV-I 306 W/m 10,4 C 8,0 km/h (2 Bft)
22.08.2016 08:33 13,0 C 13,0 C 81 % 1027,3 hPa 0,0 mm 3,5 km/h (1 Bft) S 185 1 min 0,000 mm 1,4 UV-I 309 W/m 9,8 C 4,8 km/h (1 Bft)
22.08.2016 08:34 13,0 C 13,1 C 81 % 1027,3 hPa 0,0 mm 2,7 km/h (1 Bft) S-SW 198 1 min 0,000 mm 1,4 UV-I 311 W/m 9,8 C 6,4 km/h (2 Bft)
22.08.2016 08:35 13,0 C 13,1 C 82 % 1027,3 hPa 0,0 mm 1,5 km/h (1 Bft) S-SW 192 1 min 0,000 mm 1,5 UV-I 315 W/m 10,0 C 3,2 km/h (1 Bft)
22.08.2016 08:36 12,9 C 13,0 C 82 % 1027,3 hPa 0,0 mm 2,7 km/h (1 Bft) W-SW 248 1 min 0,000 mm 1,5 UV-I 318 W/m 9,9 C 6,4 km/h (2 Bft)
22.08.2016 08:37 13,0 C 13,0 C 81 % 1027,3 hPa 0,0 mm 3,2 km/h (1 Bft) W-SW 237 1 min 0,000 mm 1,5 UV-I 322 W/m 9,8 C 4,8 km/h (1 Bft)
22.08.2016 08:38 13,1 C 13,1 C 80 % 1027,2 hPa 0,0 mm 0,7 km/h (0 Bft) SW 236 1 min 0,000 mm 1,5 UV-I 323 W/m 9,7 C 3,2 km/h (1 Bft)
22.08.2016 08:39 13,1 C 13,1 C 79 % 1027,2 hPa 0,0 mm 1,9 km/h (1 Bft) S-SW 213 1 min 0,000 mm 1,6 UV-I 329 W/m 9,5 C 3,2 km/h (1 Bft)
22.08.2016 08:40 13,1 C 13,1 C 82 % 1027,2 hPa 0,0 mm 1,2 km/h (1 Bft) SW 219 1 min 0,000 mm 1,6 UV-I 330 W/m 10,1 C 3,2 km/h (1 Bft)
22.08.2016 08:41 13,1 C 13,1 C 81 % 1027,3 hPa 0,0 mm 1,2 km/h (1 Bft) SW 219 1 min 0,000 mm 1,6 UV-I 332 W/m 9,9 C 1,6 km/h (1 Bft)
22.08.2016 08:42 13,1 C 13,1 C 81 % 1027,3 hPa 0,0 mm 1,1 km/h (1 Bft) SW 219 1 min 0,000 mm 1,6 UV-I 338 W/m 9,9 C 3,2 km/h (1 Bft)
22.08.2016 08:43 12,9 C 13,1 C 81 % 1027,3 hPa 0,0 mm 2,2 km/h (1 Bft) SW 219 1 min 0,000 mm 1,7 UV-I 341 W/m 9,7 C 3,2 km/h (1 Bft)
22.08.2016 08:44 12,9 C 12,9 C 82 % 1027,3 hPa 0,0 mm 2,1 km/h (1 Bft) SW 219 1 min 0,000 mm 1,7 UV-I 343 W/m 9,9 C 3,2 km/h (1 Bft)
22.08.2016 08:45 13,1 C 13,1 C 85 % 1027,3 hPa 0,0 mm 2,3 km/h (1 Bft) W-SW 250 1 min 0,000 mm 1,7 UV-I 345 W/m 10,6 C 3,2 km/h (1 Bft)
22.08.2016 08:46 13,2 C 13,2 C 84 % 1027,4 hPa 0,0 mm 2,5 km/h (1 Bft) W 274 1 min 0,000 mm 1,7 UV-I 346 W/m 10,6 C 3,2 km/h (1 Bft)
22.08.2016 08:47 13,1 C 13,2 C 82 % 1027,4 hPa 0,0 mm 1,0 km/h (0 Bft) W 274 1 min 0,000 mm 1,8 UV-I 348 W/m 10,1 C 1,6 km/h (1 Bft)
22.08.2016 08:48 12,9 C 13,1 C 81 % 1027,4 hPa 0,0 mm 2,4 km/h (1 Bft) S-SW 210 1 min 0,000 mm 1,8 UV-I 355 W/m 9,7 C 3,2 km/h (1 Bft)
22.08.2016 08:49 12,9 C 12,9 C 80 % 1027,4 hPa 0,0 mm 1,3 km/h (1 Bft) S-SW 210 1 min 0,000 mm 1,8 UV-I 359 W/m 9,5 C 1,6 km/h (1 Bft)
22.08.2016 08:50 12,9 C 12,9 C 81 % 1027,4 hPa 0,0 mm 0,9 km/h (0 Bft) S-SW 209 1 min 0,000 mm 1,8 UV-I 362 W/m 9,7 C 3,2 km/h (1 Bft)
22.08.2016 08:51 12,9 C 12,9 C 83 % 1027,4 hPa 0,0 mm 0,5 km/h (0 Bft) S-SW 209 1 min 0,000 mm 1,8 UV-I 346 W/m 10,1 C 1,6 km/h (1 Bft)
22.08.2016 08:52 12,8 C 12,9 C 84 % 1027,4 hPa 0,0 mm 0,5 km/h (0 Bft) SW 217 1 min 0,000 mm 1,9 UV-I 353 W/m 10,2 C 1,6 km/h (1 Bft)
22.08.2016 08:53 12,9 C 12,9 C 84 % 1027,4 hPa 0,0 mm 2,2 km/h (1 Bft) W-SW 250 1 min 0,000 mm 1,9 UV-I 367 W/m 10,3 C 3,2 km/h (1 Bft)
22.08.2016 08:54 13,1 C 13,1 C 84 % 1027,4 hPa 0,0 mm 1,9 km/h (1 Bft) W-SW 250 1 min 0,000 mm 1,9 UV-I 373 W/m 10,5 C 3,2 km/h (1 Bft)
22.08.2016 08:55 13,2 C 13,2 C 86 % 1027,4 hPa 0,0 mm 0,3 km/h (0 Bft) W-SW 250 1 min 0,000 mm 2,0 UV-I 374 W/m 10,9 C 1,6 km/h (1 Bft)
22.08.2016 08:56 13,2 C 13,2 C 83 % 1027,4 hPa 0,0 mm 0,2 km/h (0 Bft) W-SW 250 1 min 0,000 mm 2,0 UV-I 378 W/m 10,4 C 1,6 km/h (1 Bft)
22.08.2016 08:57 13,1 C 13,2 C 80 % 1027,4 hPa 0,0 mm 1,4 km/h (1 Bft) SW 232 1 min 0,000 mm 2,0 UV-I 381 W/m 9,7 C 3,2 km/h (1 Bft)
22.08.2016 08:58 12,9 C 13,1 C 82 % 1027,4 hPa 0,0 mm 2,1 km/h (1 Bft) SW 232 1 min 0,000 mm 2,0 UV-I 383 W/m 9,9 C 3,2 km/h (1 Bft)
22.08.2016 08:59 12,9 C 12,9 C 81 % 1027,4 hPa 0,0 mm 0,1 km/h (0 Bft) SW 232 1 min 0,000 mm 2,0 UV-I 388 W/m 9,7 C 1,6 km/h (1 Bft)
22.08.2016 09:00 12,9 C 12,9 C 81 % 1027,4 hPa 0,0 mm 1,4 km/h (1 Bft) SW 234 1 min 0,152 mm 2,1 UV-I 392 W/m 9,7 C 3,2 km/h (1 Bft)
22.08.2016 09:01 13,2 C 13,2 C 83 % 1027,5 hPa 0,0 mm 4,3 km/h (1 Bft) W 274 1 min 0,000 mm 2,1 UV-I 394 W/m 10,4 C 6,4 km/h (2 Bft)
22.08.2016 09:02 13,4 C 13,4 C 81 % 1027,4 hPa 0,0 mm 3,9 km/h (1 Bft) W 261 1 min 0,000 mm 2,1 UV-I 396 W/m 10,2 C 6,4 km/h (2 Bft)
22.08.2016 09:03 13,5 C 13,5 C 81 % 1027,4 hPa 0,0 mm 3,8 km/h (1 Bft) SW 227 1 min 0,000 mm 2,1 UV-I 397 W/m 10,3 C 6,4 km/h (2 Bft)
22.08.2016 09:04 13,6 C 13,6 C 79 % 1027,4 hPa 0,0 mm 3,3 km/h (1 Bft) W 277 1 min 0,000 mm 2,1 UV-I 401 W/m 10,0 C 6,4 km/h (2 Bft)
22.08.2016 09:05 13,7 C 13,7 C 80 % 1027,4 hPa 0,0 mm 6,9 km/h (2 Bft) W 275 1 min 0,000 mm 2,2 UV-I 406 W/m 10,3 C 11,3 km/h (2 Bft)
22.08.2016 09:06 13,8 C 13,8 C 78 % 1027,4 hPa 0,0 mm 3,7 km/h (1 Bft) W 273 1 min 0,000 mm 2,2 UV-I 408 W/m 10,0 C 4,8 km/h (1 Bft)
22.08.2016 09:07 13,8 C 13,8 C 77 % 1027,5 hPa 0,0 mm 3,4 km/h (1 Bft) W-NW 293 1 min 0,000 mm 2,2 UV-I 411 W/m 9,8 C 4,8 km/h (1 Bft)
22.08.2016 09:08 13,8 C 13,8 C 75 % 1027,4 hPa 0,0 mm 1,8 km/h (1 Bft) W-NW 293 1 min 0,000 mm 2,2 UV-I 415 W/m 9,4 C 3,2 km/h (1 Bft)
22.08.2016 09:09 13,9 C 13,9 C 79 % 1027,5 hPa 0,0 mm 1,7 km/h (1 Bft) W-NW 296 1 min 0,000 mm 2,2 UV-I 417 W/m 10,3 C 3,2 km/h (1 Bft)
22.08.2016 09:10 14,1 C 14,1 C 76 % 1027,4 hPa 0,0 mm 2,3 km/h (1 Bft) NW 307 1 min 0,000 mm 2,2 UV-I 418 W/m 9,9 C 4,8 km/h (1 Bft)
22.08.2016 09:11 14,1 C 14,1 C 76 % 1027,5 hPa 0,0 mm 2,9 km/h (1 Bft) W-NW 287 1 min 0,000 mm 2,3 UV-I 424 W/m 9,9 C 4,8 km/h (1 Bft)
22.08.2016 09:12 14,2 C 14,2 C 78 % 1027,5 hPa 0,0 mm 4,4 km/h (1 Bft) N 360 1 min 0,000 mm 2,3 UV-I 425 W/m 10,4 C 6,4 km/h (2 Bft)
22.08.2016 09:13 14,2 C 14,2 C 77 % 1027,5 hPa 0,0 mm 4,2 km/h (1 Bft) W-SW 237 1 min 0,000 mm 2,3 UV-I 427 W/m 10,2 C 6,4 km/h (2 Bft)
22.08.2016 09:14 14,2 C 14,2 C 77 % 1027,5 hPa 0,0 mm 3,9 km/h (1 Bft) W 279 1 min 0,000 mm 2,3 UV-I 431 W/m 10,2 C 4,8 km/h (1 Bft)
22.08.2016 09:15 14,2 C 14,2 C 77 % 1027,5 hPa 0,0 mm 3,4 km/h (1 Bft) NW 314 1 min 0,000 mm 2,4 UV-I 432 W/m 10,2 C 4,8 km/h (1 Bft)
22.08.2016 09:16 14,3 C 14,3 C 81 % 1027,5 hPa 0,0 mm 2,1 km/h (1 Bft) W-NW 289 1 min 0,000 mm 2,4 UV-I 436 W/m 11,1 C 3,2 km/h (1 Bft)
22.08.2016 09:17 14,3 C 14,3 C 78 % 1027,6 hPa 0,0 mm 3,8 km/h (1 Bft) W-NW 292 1 min 0,000 mm 2,4 UV-I 441 W/m 10,5 C 6,4 km/h (2 Bft)
22.08.2016 09:18 14,3 C 14,3 C 77 % 1027,6 hPa 0,0 mm 2,9 km/h (1 Bft) W 265 1 min 0,000 mm 2,5 UV-I 443 W/m 10,3 C 4,8 km/h (1 Bft)
22.08.2016 09:19 14,3 C 14,3 C 78 % 1027,5 hPa 0,0 mm 1,3 km/h (1 Bft) W 265 1 min 0,000 mm 2,5 UV-I 446 W/m 10,5 C 4,8 km/h (1 Bft)
22.08.2016 09:20 14,4 C 14,4 C 79 % 1027,6 hPa 0,0 mm 5,0 km/h (1 Bft) NW 309 1 min 0,000 mm 2,5 UV-I 450 W/m 10,8 C 8,0 km/h (2 Bft)
22.08.2016 09:21 14,4 C 14,4 C 73 % 1027,6 hPa 0,0 mm 3,0 km/h (1 Bft) W-NW 302 1 min 0,000 mm 2,5 UV-I 452 W/m 9,6 C 6,4 km/h (2 Bft)
22.08.2016 09:22 14,4 C 14,4 C 76 % 1027,5 hPa 0,0 mm 1,8 km/h (1 Bft) W-NW 300 1 min 0,000 mm 2,5 UV-I 457 W/m 10,2 C 3,2 km/h (1 Bft)
22.08.2016 09:23 14,4 C 14,4 C 76 % 1027,6 hPa 0,0 mm 3,1 km/h (1 Bft) NW 313 1 min 0,000 mm 2,6 UV-I 462 W/m 10,2 C 4,8 km/h (1 Bft)
22.08.2016 09:24 14,4 C 14,4 C 74 % 1027,5 hPa 0,0 mm 3,6 km/h (1 Bft) W-NW 296 1 min 0,000 mm 2,6 UV-I 466 W/m 9,8 C 4,8 km/h (1 Bft)
22.08.2016 09:25 14,4 C 14,4 C 74 % 1027,5 hPa 0,0 mm 2,1 km/h (1 Bft) N-NW 340 1 min 0,000 mm 2,6 UV-I 471 W/m 9,8 C 3,2 km/h (1 Bft)
22.08.2016 09:26 14,4 C 14,5 C 73 % 1027,6 hPa 0,0 mm 5,6 km/h (1 Bft) W-NW 287 1 min 0,000 mm 2,7 UV-I 471 W/m 9,6 C 8,0 km/h (2 Bft)
22.08.2016 09:27 14,4 C 14,4 C 75 % 1027,6 hPa 0,0 mm 3,9 km/h (1 Bft) NW 305 1 min 0,000 mm 2,7 UV-I 473 W/m 10,0 C 4,8 km/h (1 Bft)
22.08.2016 09:28 14,4 C 14,4 C 76 % 1027,6 hPa 0,0 mm 2,3 km/h (1 Bft) NW 306 1 min 0,000 mm 2,7 UV-I 476 W/m 10,2 C 4,8 km/h (1 Bft)
22.08.2016 09:29 14,4 C 14,5 C 75 % 1027,6 hPa 0,0 mm 2,4 km/h (1 Bft) NO 45 1 min 0,000 mm 2,7 UV-I 480 W/m 10,0 C 4,8 km/h (1 Bft)
22.08.2016 09:30 14,6 C 14,6 C 76 % 1027,6 hPa 0,0 mm 4,0 km/h (1 Bft) SW 222 1 min 0,000 mm 2,7 UV-I 480 W/m 10,4 C 6,4 km/h (2 Bft)
22.08.2016 09:31 14,6 C 14,6 C 77 % 1027,7 hPa 0,0 mm 8,5 km/h (2 Bft) W 259 1 min 0,000 mm 2,8 UV-I 483 W/m 10,6 C 11,3 km/h (2 Bft)
22.08.2016 09:32 14,7 C 14,7 C 77 % 1027,6 hPa 0,0 mm 6,5 km/h (2 Bft) W-SW 242 1 min 0,000 mm 2,8 UV-I 487 W/m 10,7 C 9,7 km/h (2 Bft)
22.08.2016 09:33 14,6 C 14,7 C 74 % 1027,6 hPa 0,0 mm 5,8 km/h (2 Bft) W 271 1 min 0,000 mm 2,8 UV-I 489 W/m 10,0 C 9,7 km/h (2 Bft)
22.08.2016 09:34 14,7 C 14,7 C 77 % 1027,7 hPa 0,0 mm 2,5 km/h (1 Bft) W 273 1 min 0,000 mm 2,9 UV-I 496 W/m 10,7 C 3,2 km/h (1 Bft)
22.08.2016 09:35 14,7 C 14,7 C 76 % 1027,6 hPa 0,0 mm 5,6 km/h (1 Bft) W-NW 292 1 min 0,000 mm 2,9 UV-I 504 W/m 10,5 C 9,7 km/h (2 Bft)
22.08.2016 09:36 14,7 C 14,7 C 76 % 1027,6 hPa 0,0 mm 5,6 km/h (1 Bft) W-NW 286 1 min 0,000 mm 2,9 UV-I 512 W/m 10,5 C 9,7 km/h (2 Bft)
22.08.2016 09:37 14,7 C 14,7 C 74 % 1027,7 hPa 0,0 mm 4,1 km/h (1 Bft) NW 314 1 min 0,000 mm 2,9 UV-I 508 W/m 10,1 C 6,4 km/h (2 Bft)
22.08.2016 09:38 14,7 C 14,7 C 74 % 1027,6 hPa 0,0 mm 3,4 km/h (1 Bft) N-NW 348 1 min 0,000 mm 2,9 UV-I 506 W/m 10,1 C 4,8 km/h (1 Bft)
22.08.2016 09:39 14,7 C 14,7 C 74 % 1027,6 hPa 0,0 mm 1,7 km/h (1 Bft) N-NW 335 1 min 0,000 mm 2,9 UV-I 504 W/m 10,1 C 3,2 km/h (1 Bft)
22.08.2016 09:40 14,7 C 14,7 C 72 % 1027,6 hPa 0,0 mm 1,2 km/h (1 Bft) N-NW 335 1 min 0,000 mm 3,0 UV-I 512 W/m 9,7 C 3,2 km/h (1 Bft)
22.08.2016 09:41 14,7 C 14,7 C 74 % 1027,6 hPa 0,0 mm 2,5 km/h (1 Bft) W 270 1 min 0,000 mm 3,0 UV-I 512 W/m 10,1 C 4,8 km/h (1 Bft)
22.08.2016 09:42 14,6 C 14,7 C 74 % 1027,6 hPa 0,0 mm 4,6 km/h (1 Bft) NW 308 1 min 0,000 mm 3,1 UV-I 515 W/m 10,0 C 6,4 km/h (2 Bft)
22.08.2016 09:43 14,6 C 14,6 C 72 % 1027,6 hPa 0,0 mm 3,3 km/h (1 Bft) NW 315 1 min 0,000 mm 3,1 UV-I 519 W/m 9,6 C 4,8 km/h (1 Bft)
22.08.2016 09:44 14,6 C 14,6 C 75 % 1027,6 hPa 0,0 mm 3,8 km/h (1 Bft) NW 304 1 min 0,000 mm 3,1 UV-I 524 W/m 10,2 C 6,4 km/h (2 Bft)
22.08.2016 09:45 14,7 C 14,7 C 73 % 1027,6 hPa 0,0 mm 2,9 km/h (1 Bft) W-NW 301 1 min 0,000 mm 3,1 UV-I 531 W/m 9,9 C 4,8 km/h (1 Bft)
22.08.2016 09:46 14,7 C 14,7 C 73 % 1027,6 hPa 0,0 mm 3,4 km/h (1 Bft) W-SW 257 1 min 0,000 mm 3,1 UV-I 534 W/m 9,9 C 12,9 km/h (3 Bft)
22.08.2016 09:47 14,8 C 14,8 C 73 % 1027,6 hPa 0,0 mm 8,4 km/h (2 Bft) W 263 1 min 0,000 mm 3,2 UV-I 534 W/m 10,0 C 12,9 km/h (3 Bft)
22.08.2016 09:48 14,8 C 14,8 C 73 % 1027,6 hPa 0,0 mm 3,3 km/h (1 Bft) W 271 1 min 0,000 mm 3,3 UV-I 563 W/m 10,0 C 9,7 km/h (2 Bft)
22.08.2016 09:49 14,8 C 14,8 C 75 % 1027,6 hPa 0,0 mm 4,2 km/h (1 Bft) SW 220 1 min 0,000 mm 3,3 UV-I 568 W/m 10,4 C 4,8 km/h (1 Bft)
22.08.2016 09:50 14,9 C 14,9 C 74 % 1027,6 hPa 0,0 mm 4,4 km/h (1 Bft) W-NW 290 1 min 0,000 mm 3,3 UV-I 573 W/m 10,3 C 8,0 km/h (2 Bft)
22.08.2016 09:51 15,0 C 15,0 C 75 % 1027,6 hPa 0,0 mm 6,6 km/h (2 Bft) W-NW 294 1 min 0,000 mm 3,3 UV-I 571 W/m 10,6 C 14,5 km/h (3 Bft)
22.08.2016 09:52 14,9 C 15,0 C 75 % 1027,6 hPa 0,0 mm 10,6 km/h (2 Bft) W 279 1 min 0,000 mm 3,3 UV-I 564 W/m 10,5 C 14,5 km/h (3 Bft)
22.08.2016 09:53 14,9 C 14,9 C 71 % 1027,6 hPa 0,0 mm 4,3 km/h (1 Bft) W-NW 299 1 min 0,000 mm 2,4 UV-I 564 W/m 9,7 C 6,4 km/h (2 Bft)
22.08.2016 09:54 14,8 C 14,9 C 72 % 1027,6 hPa 0,0 mm 2,1 km/h (1 Bft) W-NW 298 1 min 0,000 mm 3,4 UV-I 462 W/m 9,8 C 3,2 km/h (1 Bft)
22.08.2016 09:55 14,8 C 14,8 C 73 % 1027,6 hPa 0,0 mm 3,2 km/h (1 Bft) NW 325 1 min 0,000 mm 1,9 UV-I 462 W/m 10,0 C 4,8 km/h (1 Bft)
22.08.2016 09:56 14,9 C 14,9 C 73 % 1027,6 hPa 0,0 mm 4,6 km/h (1 Bft) N 9 1 min 0,000 mm 3,4 UV-I 577 W/m 10,1 C 8,0 km/h (2 Bft)
22.08.2016 09:57 14,9 C 14,9 C 72 % 1027,6 hPa 0,0 mm 3,8 km/h (1 Bft) N-NW 331 1 min 0,000 mm 1,8 UV-I 577 W/m 9,9 C 4,8 km/h (1 Bft)
22.08.2016 09:58 14,9 C 14,9 C 70 % 1027,6 hPa 0,0 mm 1,3 km/h (1 Bft) N-NW 340 1 min 0,000 mm 3,5 UV-I 580 W/m 9,5 C 3,2 km/h (1 Bft)
22.08.2016 09:59 14,8 C 14,9 C 74 % 1027,6 hPa 0,0 mm 4,8 km/h (1 Bft) W 265 1 min 0,000 mm 3,5 UV-I 582 W/m 10,2 C 9,7 km/h (2 Bft)
22.08.2016 10:00 14,9 C 14,9 C 74 % 1027,6 hPa 0,0 mm 4,0 km/h (1 Bft) NW 312 1 min 0,254 mm 3,5 UV-I 589 W/m 10,3 C 6,4 km/h (2 Bft)
22.08.2016 10:01 14,9 C 14,9 C 71 % 1027,7 hPa 0,0 mm 3,5 km/h (1 Bft) NW 322 1 min 0,000 mm 3,5 UV-I 596 W/m 9,7 C 6,4 km/h (2 Bft)
22.08.2016 10:02 15,0 C 15,0 C 73 % 1027,6 hPa 0,0 mm 4,3 km/h (1 Bft) NW 321 1 min 0,000 mm 3,6 UV-I 605 W/m 10,2 C 6,4 km/h (2 Bft)
22.08.2016 10:03 14,9 C 15,0 C 69 % 1027,7 hPa 0,0 mm 1,9 km/h (1 Bft) NW 318 1 min 0,000 mm 3,5 UV-I 548 W/m 9,3 C 3,2 km/h (1 Bft)
22.08.2016 10:04 14,9 C 14,9 C 70 % 1027,7 hPa 0,0 mm 2,7 km/h (1 Bft) W-SW 244 1 min 0,000 mm 3,7 UV-I 513 W/m 9,5 C 4,8 km/h (1 Bft)
22.08.2016 10:05 15,1 C 15,1 C 74 % 1027,7 hPa 0,0 mm 3,7 km/h (1 Bft) N-NW 328 1 min 0,000 mm 3,7 UV-I 656 W/m 10,5 C 12,9 km/h (3 Bft)
22.08.2016 10:06 15,2 C 15,2 C 74 % 1027,7 hPa 0,0 mm 7,2 km/h (2 Bft) W-NW 302 1 min 0,000 mm 3,8 UV-I 656 W/m 10,6 C 12,9 km/h (3 Bft)
22.08.2016 10:07 15,2 C 15,2 C 71 % 1027,7 hPa 0,0 mm 9,5 km/h (2 Bft) NW 321 1 min 0,000 mm 3,6 UV-I 663 W/m 10,0 C 16,1 km/h (3 Bft)
22.08.2016 10:08 15,2 C 15,2 C 73 % 1027,7 hPa 0,0 mm 9,5 km/h (2 Bft) W-NW 297 1 min 0,000 mm 2,3 UV-I 663 W/m 10,4 C 12,9 km/h (3 Bft)
22.08.2016 10:09 15,1 C 15,2 C 72 % 1027,7 hPa 0,0 mm 5,8 km/h (2 Bft) NW 306 0 min 0,000 mm 2,0 UV-I 172 W/m 10,1 C 11,3 km/h (2 Bft)
22.08.2016 10:10 15,0 C 15,1 C 72 % 1027,7 hPa 0,0 mm 6,5 km/h (2 Bft) W-NW 283 0 min 0,000 mm 2,4 UV-I 221 W/m 10,0 C 11,3 km/h (2 Bft)
22.08.2016 10:11 14,8 C 15,0 C 72 % 1027,7 hPa 0,0 mm 6,4 km/h (2 Bft) W-NW 282 0 min 0,000 mm 2,2 UV-I 176 W/m 9,8 C 11,3 km/h (2 Bft)
22.08.2016 10:12 14,7 C 14,8 C 71 % 1027,7 hPa 0,0 mm 5,4 km/h (1 Bft) NW 318 0 min 0,000 mm 3,4 UV-I 186 W/m 9,5 C 8,0 km/h (2 Bft)
22.08.2016 10:13 14,7 C 14,7 C 72 % 1027,6 hPa 0,0 mm 4,4 km/h (1 Bft) NW 312 0 min 0,000 mm 3,5 UV-I 186 W/m 9,7 C 6,4 km/h (2 Bft)
22.08.2016 10:14 14,8 C 14,8 C 72 % 1027,7 hPa 0,0 mm 6,1 km/h (2 Bft) NW 319 0 min 0,000 mm 3,5 UV-I 186 W/m 9,8 C 8,0 km/h (2 Bft)
22.08.2016 10:15 14,9 C 14,9 C 74 % 1027,7 hPa 0,0 mm 3,1 km/h (1 Bft) NW 308 1 min 0,000 mm 4,1 UV-I 735 W/m 10,3 C 4,8 km/h (1 Bft)
22.08.2016 10:16 15,2 C 15,2 C 75 % 1027,7 hPa 0,0 mm 4,0 km/h (1 Bft) NW 313 1 min 0,000 mm 4,1 UV-I 735 W/m 10,8 C 4,8 km/h (1 Bft)
22.08.2016 10:17 15,3 C 15,3 C 72 % 1027,7 hPa 0,0 mm 2,0 km/h (1 Bft) NW 306 1 min 0,000 mm 2,4 UV-I 729 W/m 10,3 C 4,8 km/h (1 Bft)
22.08.2016 10:18 15,4 C 15,4 C 71 % 1027,8 hPa 0,0 mm 2,3 km/h (1 Bft) N-NW 327 1 min 0,000 mm 3,6 UV-I 744 W/m 10,2 C 3,2 km/h (1 Bft)
22.08.2016 10:19 15,4 C 15,4 C 71 % 1027,7 hPa 0,0 mm 4,8 km/h (1 Bft) W 275 1 min 0,000 mm 4,0 UV-I 744 W/m 10,2 C 12,9 km/h (3 Bft)
22.08.2016 10:20 15,4 C 15,4 C 70 % 1027,7 hPa 0,0 mm 3,1 km/h (1 Bft) W-NW 284 1 min 0,000 mm 2,1 UV-I 744 W/m 10,0 C 4,8 km/h (1 Bft)
22.08.2016 10:21 15,3 C 15,4 C 70 % 1027,7 hPa 0,0 mm 4,9 km/h (1 Bft) W 268 0 min 0,000 mm 2,1 UV-I 202 W/m 9,9 C 8,0 km/h (2 Bft)
22.08.2016 10:22 15,2 C 15,3 C 70 % 1027,7 hPa 0,0 mm 4,3 km/h (1 Bft) W-NW 288 0 min 0,000 mm 2,6 UV-I 202 W/m 9,8 C 4,8 km/h (1 Bft)
22.08.2016 10:23 15,1 C 15,2 C 69 % 1027,8 hPa 0,0 mm 4,2 km/h (1 Bft) N 351 0 min 0,000 mm 4,4 UV-I 202 W/m 9,5 C 4,8 km/h (1 Bft)
22.08.2016 10:24 15,2 C 15,2 C 71 % 1027,7 hPa 0,0 mm 4,8 km/h (1 Bft) N-NW 332 1 min 0,000 mm 4,0 UV-I 682 W/m 10,0 C 9,7 km/h (2 Bft)
22.08.2016 10:25 15,2 C 15,2 C 73 % 1027,8 hPa 0,0 mm 6,4 km/h (2 Bft) NW 321 1 min 0,000 mm 2,4 UV-I 682 W/m 10,4 C 12,9 km/h (3 Bft)
22.08.2016 10:26 15,2 C 15,3 C 72 % 1027,8 hPa 0,0 mm 4,6 km/h (1 Bft) NW 325 1 min 0,000 mm 4,4 UV-I 682 W/m 10,2 C 6,4 km/h (2 Bft)
22.08.2016 10:27 15,3 C 15,3 C 73 % 1027,8 hPa 0,0 mm 6,1 km/h (2 Bft) N-NW 329 1 min 0,000 mm 4,3 UV-I 689 W/m 10,5 C 8,0 km/h (2 Bft)
22.08.2016 10:28 15,3 C 15,3 C 73 % 1027,9 hPa 0,0 mm 6,6 km/h (2 Bft) N-NO 21 1 min 0,000 mm 2,2 UV-I 689 W/m 10,5 C 9,7 km/h (2 Bft)
22.08.2016 10:29 15,3 C 15,3 C 70 % 1027,8 hPa 0,0 mm 4,6 km/h (1 Bft) N 5 0 min 0,000 mm 2,2 UV-I 158 W/m 9,9 C 6,4 km/h (2 Bft)
22.08.2016 10:30 15,2 C 15,3 C 71 % 1027,8 hPa 0,0 mm 5,3 km/h (1 Bft) N-NW 336 0 min 0,000 mm 2,2 UV-I 151 W/m 10,0 C 8,0 km/h (2 Bft)
22.08.2016 10:31 15,1 C 15,2 C 72 % 1027,9 hPa 0,0 mm 3,4 km/h (1 Bft) NW 315 0 min 0,000 mm 2,2 UV-I 158 W/m 10,1 C 6,4 km/h (2 Bft)
22.08.2016 10:32 14,9 C 15,1 C 73 % 1027,9 hPa 0,0 mm 5,2 km/h (1 Bft) NW 313 0 min 0,000 mm 2,3 UV-I 163 W/m 10,1 C 11,3 km/h (2 Bft)
22.08.2016 10:33 14,8 C 14,9 C 71 % 1027,9 hPa 0,0 mm 5,4 km/h (1 Bft) W-NW 303 1 min 0,000 mm 4,0 UV-I 751 W/m 9,6 C 8,0 km/h (2 Bft)
22.08.2016 10:34 14,8 C 14,8 C 73 % 1027,9 hPa 0,0 mm 5,7 km/h (1 Bft) NW 316 1 min 0,000 mm 4,4 UV-I 728 W/m 10,0 C 12,9 km/h (3 Bft)
22.08.2016 10:35 15,1 C 15,1 C 76 % 1027,9 hPa 0,0 mm 8,6 km/h (2 Bft) W 277 1 min 0,000 mm 4,4 UV-I 726 W/m 10,9 C 12,9 km/h (3 Bft)
22.08.2016 10:36 15,2 C 15,2 C 72 % 1027,9 hPa 0,0 mm 7,2 km/h (2 Bft) N-NW 332 1 min 0,000 mm 4,1 UV-I 726 W/m 10,2 C 11,3 km/h (2 Bft)
22.08.2016 10:37 15,2 C 15,2 C 70 % 1027,9 hPa 0,0 mm 6,3 km/h (2 Bft) W 273 1 min 0,000 mm 2,2 UV-I 726 W/m 9,8 C 9,7 km/h (2 Bft)
22.08.2016 10:38 15,1 C 15,2 C 71 % 1027,9 hPa 0,0 mm 4,4 km/h (1 Bft) W-SW 257 0 min 0,000 mm 2,1 UV-I 123 W/m 9,9 C 9,7 km/h (2 Bft)
22.08.2016 10:39 14,9 C 15,1 C 71 % 1027,9 hPa 0,0 mm 3,8 km/h (1 Bft) NW 310 0 min 0,000 mm 2,1 UV-I 102 W/m 9,7 C 8,0 km/h (2 Bft)
22.08.2016 10:40 14,8 C 14,9 C 72 % 1027,9 hPa 0,0 mm 5,4 km/h (1 Bft) W-NW 297 0 min 0,000 mm 2,2 UV-I 113 W/m 9,8 C 8,0 km/h (2 Bft)
22.08.2016 10:41 14,7 C 14,8 C 72 % 1028,0 hPa 0,0 mm 4,5 km/h (1 Bft) W 277 0 min 0,000 mm 2,9 UV-I 113 W/m 9,7 C 8,0 km/h (2 Bft)
22.08.2016 10:42 14,7 C 14,7 C 73 % 1028,0 hPa 0,0 mm 3,7 km/h (1 Bft) NW 309 0 min 0,000 mm 4,5 UV-I 113 W/m 9,9 C 4,8 km/h (1 Bft)
22.08.2016 10:43 14,8 C 14,8 C 73 % 1028,0 hPa 0,0 mm 5,7 km/h (1 Bft) W 277 1 min 0,000 mm 4,5 UV-I 749 W/m 10,0 C 9,7 km/h (2 Bft)
22.08.2016 10:44 14,9 C 14,9 C 74 % 1028,0 hPa 0,0 mm 4,8 km/h (1 Bft) W 263 1 min 0,000 mm 3,0 UV-I 749 W/m 10,3 C 6,4 km/h (2 Bft)
22.08.2016 10:45 15,1 C 15,1 C 75 % 1028,0 hPa 0,0 mm 3,6 km/h (1 Bft) SW 231 1 min 0,000 mm 3,0 UV-I 752 W/m 10,7 C 4,8 km/h (1 Bft)
22.08.2016 10:46 15,3 C 15,3 C 73 % 1027,9 hPa 0,0 mm 1,3 km/h (1 Bft) SW 236 1 min 0,000 mm 4,7 UV-I 752 W/m 10,5 C 3,2 km/h (1 Bft)
22.08.2016 10:47 15,6 C 15,6 C 72 % 1028,0 hPa 0,0 mm 5,6 km/h (1 Bft) W-NW 298 1 min 0,000 mm 4,7 UV-I 749 W/m 10,6 C 9,7 km/h (2 Bft)
22.08.2016 10:48 15,8 C 15,8 C 71 % 1028,0 hPa 0,0 mm 7,6 km/h (2 Bft) W-NW 290 1 min 0,000 mm 4,7 UV-I 751 W/m 10,6 C 11,3 km/h (2 Bft)
22.08.2016 10:49 15,8 C 15,8 C 70 % 1028,0 hPa 0,0 mm 5,1 km/h (1 Bft) W-NW 302 1 min 0,000 mm 4,7 UV-I 754 W/m 10,3 C 6,4 km/h (2 Bft)
22.08.2016 10:50 15,9 C 15,9 C 71 % 1028,0 hPa 0,0 mm 9,1 km/h (2 Bft) W-NW 286 1 min 0,000 mm 4,7 UV-I 754 W/m 10,6 C 12,9 km/h (3 Bft)
22.08.2016 10:51 15,9 C 16,0 C 71 % 1028,0 hPa 0,0 mm 11,9 km/h (2 Bft) NW 319 1 min 0,000 mm 4,8 UV-I 772 W/m 10,6 C 20,9 km/h (4 Bft)
22.08.2016 10:52 16,0 C 16,0 C 70 % 1028,0 hPa 0,0 mm 9,5 km/h (2 Bft) NW 325 1 min 0,000 mm 4,9 UV-I 782 W/m 10,5 C 14,5 km/h (3 Bft)
22.08.2016 10:53 16,1 C 16,1 C 73 % 1028,0 hPa 0,0 mm 5,3 km/h (1 Bft) W-NW 300 1 min 0,000 mm 4,9 UV-I 802 W/m 11,3 C 11,3 km/h (2 Bft)
22.08.2016 10:54 16,1 C 16,1 C 69 % 1028,0 hPa 0,0 mm 3,8 km/h (1 Bft) N-NW 330 1 min 0,000 mm 5,1 UV-I 830 W/m 10,4 C 6,4 km/h (2 Bft)
22.08.2016 10:55 16,1 C 16,1 C 70 % 1028,0 hPa 0,0 mm 4,2 km/h (1 Bft) N-NW 339 1 min 0,000 mm 5,1 UV-I 858 W/m 10,6 C 8,0 km/h (2 Bft)
22.08.2016 10:56 16,2 C 16,2 C 70 % 1028,0 hPa 0,0 mm 6,2 km/h (2 Bft) NW 320 1 min 0,000 mm 2,9 UV-I 858 W/m 10,7 C 11,3 km/h (2 Bft)
22.08.2016 10:57 16,3 C 16,3 C 72 % 1028,0 hPa 0,0 mm 9,0 km/h (2 Bft) W 277 1 min 0,000 mm 4,1 UV-I 858 W/m 11,2 C 12,9 km/h (3 Bft)
22.08.2016 10:58 16,4 C 16,4 C 71 % 1028,0 hPa 0,0 mm 7,0 km/h (2 Bft) W 277 1 min 0,000 mm 4,9 UV-I 819 W/m 11,1 C 12,9 km/h (3 Bft)
22.08.2016 10:59 16,4 C 16,4 C 72 % 1028,1 hPa 0,0 mm 5,9 km/h (2 Bft) NW 315 1 min 0,000 mm 3,3 UV-I 819 W/m 11,3 C 9,7 km/h (2 Bft)
22.08.2016 11:00 16,3 C 16,4 C 69 % 1028,1 hPa 0,0 mm 8,0 km/h (2 Bft) W-NW 301 1 min 0,000 mm 2,4 UV-I 819 W/m 10,6 C 11,3 km/h (2 Bft)
22.08.2016 11:01 16,1 C 16,3 C 68 % 1028,1 hPa 0,0 mm 6,7 km/h (2 Bft) W-NW 298 0 min 0,279 mm 2,3 UV-I 199 W/m 10,2 C 11,3 km/h (2 Bft)
22.08.2016 11:02 15,8 C 16,1 C 68 % 1028,1 hPa 0,0 mm 7,1 km/h (2 Bft) SW 232 0 min 0,001 mm 2,3 UV-I 186 W/m 9,9 C 11,3 km/h (2 Bft)
22.08.2016 11:03 15,7 C 15,8 C 69 % 1028,1 hPa 0,0 mm 5,0 km/h (1 Bft) SW 232 0 min 0,000 mm 2,4 UV-I 190 W/m 10,0 C 6,4 km/h (2 Bft)
22.08.2016 11:04 15,4 C 15,7 C 68 % 1028,1 hPa 0,0 mm 3,2 km/h (1 Bft) S-SW 213 0 min 0,000 mm 2,7 UV-I 214 W/m 9,5 C 8,0 km/h (2 Bft)
22.08.2016 11:05 15,3 C 15,4 C 70 % 1028,0 hPa 0,0 mm 8,1 km/h (2 Bft) W 264 0 min 0,000 mm 2,8 UV-I 236 W/m 9,9 C 14,5 km/h (3 Bft)
22.08.2016 11:06 15,2 C 15,3 C 69 % 1028,1 hPa 0,0 mm 7,1 km/h (2 Bft) W 259 0 min 0,000 mm 2,7 UV-I 232 W/m 9,6 C 11,3 km/h (2 Bft)
22.08.2016 11:07 15,1 C 15,2 C 69 % 1028,1 hPa 0,0 mm 5,9 km/h (2 Bft) W 263 0 min 0,000 mm 2,7 UV-I 214 W/m 9,5 C 11,3 km/h (2 Bft)
22.08.2016 11:08 15,1 C 15,1 C 69 % 1028,0 hPa 0,0 mm 3,1 km/h (1 Bft) W 261 0 min 0,000 mm 4,4 UV-I 214 W/m 9,5 C 6,4 km/h (2 Bft)
22.08.2016 11:09 15,2 C 15,2 C 72 % 1028,0 hPa 0,0 mm 4,4 km/h (1 Bft) W-SW 245 1 min 0,000 mm 5,0 UV-I 821 W/m 10,2 C 6,4 km/h (2 Bft)
22.08.2016 11:10 15,4 C 15,4 C 72 % 1028,0 hPa 0,0 mm 7,2 km/h (2 Bft) SW 219 1 min 0,000 mm 5,4 UV-I 795 W/m 10,4 C 11,3 km/h (2 Bft)
22.08.2016 11:11 15,6 C 15,6 C 72 % 1028,0 hPa 0,0 mm 4,7 km/h (1 Bft) W-SW 248 1 min 0,000 mm 5,5 UV-I 795 W/m 10,6 C 12,9 km/h (3 Bft)
22.08.2016 11:12 15,7 C 15,7 C 73 % 1028,0 hPa 0,0 mm 4,7 km/h (1 Bft) W-NW 284 1 min 0,000 mm 5,4 UV-I 795 W/m 10,9 C 9,7 km/h (2 Bft)
22.08.2016 11:13 15,9 C 15,9 C 71 % 1028,0 hPa 0,0 mm 0,8 km/h (0 Bft) W-NW 284 1 min 0,000 mm 5,5 UV-I 826 W/m 10,6 C 3,2 km/h (1 Bft)
22.08.2016 11:14 16,0 C 16,0 C 67 % 1028,0 hPa 0,0 mm 1,2 km/h (1 Bft) W-SW 244 1 min 0,000 mm 5,5 UV-I 861 W/m 9,9 C 8,0 km/h (2 Bft)
22.08.2016 11:15 16,1 C 16,1 C 73 % 1028,0 hPa 0,0 mm 2,6 km/h (1 Bft) W 262 1 min 0,000 mm 5,6 UV-I 879 W/m 11,3 C 6,4 km/h (2 Bft)
22.08.2016 11:16 16,2 C 16,2 C 69 % 1028,0 hPa 0,0 mm 2,7 km/h (1 Bft) SW 228 1 min 0,000 mm 5,6 UV-I 888 W/m 10,5 C 4,8 km/h (1 Bft)
22.08.2016 11:17 16,3 C 16,3 C 71 % 1028,0 hPa 0,0 mm 3,8 km/h (1 Bft) N-NW 329 1 min 0,000 mm 5,5 UV-I 888 W/m 11,0 C 6,4 km/h (2 Bft)
22.08.2016 11:18 16,4 C 16,4 C 67 % 1028,0 hPa 0,0 mm 5,3 km/h (1 Bft) N 360 1 min 0,000 mm 5,5 UV-I 891 W/m 10,3 C 8,0 km/h (2 Bft)
22.08.2016 11:19 16,4 C 16,4 C 69 % 1028,0 hPa 0,0 mm 8,4 km/h (2 Bft) N-NO 29 1 min 0,000 mm 5,5 UV-I 904 W/m 10,7 C 12,9 km/h (3 Bft)
22.08.2016 11:20 16,4 C 16,5 C 67 % 1028,0 hPa 0,0 mm 6,8 km/h (2 Bft) N-NO 23 1 min 0,000 mm 5,5 UV-I 933 W/m 10,3 C 16,1 km/h (3 Bft)
22.08.2016 11:21 16,5 C 16,5 C 70 % 1028,0 hPa 0,0 mm 11,7 km/h (2 Bft) NW 313 1 min 0,000 mm 4,2 UV-I 933 W/m 11,0 C 17,7 km/h (3 Bft)
22.08.2016 11:22 16,6 C 16,6 C 72 % 1028,0 hPa 0,0 mm 7,0 km/h (2 Bft) NW 320 1 min 0,000 mm 2,6 UV-I 933 W/m 11,5 C 9,7 km/h (2 Bft)
22.08.2016 11:23 16,4 C 16,6 C 71 % 1028,0 hPa 0,0 mm 7,8 km/h (2 Bft) NW 324 0 min 0,000 mm 2,6 UV-I 248 W/m 11,1 C 12,9 km/h (3 Bft)
22.08.2016 11:24 16,2 C 16,4 C 69 % 1028,0 hPa 0,0 mm 5,1 km/h (1 Bft) N-NW 329 0 min 0,000 mm 2,6 UV-I 265 W/m 10,5 C 8,0 km/h (2 Bft)
22.08.2016 11:25 16,1 C 16,2 C 72 % 1028,0 hPa 0,0 mm 5,9 km/h (2 Bft) N 355 0 min 0,000 mm 2,6 UV-I 374 W/m 11,0 C 12,9 km/h (3 Bft)
22.08.2016 11:26 15,9 C 16,1 C 70 % 1028,0 hPa 0,0 mm 8,1 km/h (2 Bft) NW 316 0 min 0,000 mm 3,2 UV-I 374 W/m 10,4 C 14,5 km/h (3 Bft)
22.08.2016 11:27 15,9 C 15,9 C 71 % 1028,0 hPa 0,0 mm 5,8 km/h (2 Bft) N 5 0 min 0,000 mm 2,3 UV-I 374 W/m 10,6 C 9,7 km/h (2 Bft)
22.08.2016 11:28 15,8 C 15,9 C 70 % 1028,0 hPa 0,0 mm 7,2 km/h (2 Bft) N-NW 343 0 min 0,000 mm 2,2 UV-I 239 W/m 10,3 C 9,7 km/h (2 Bft)
22.08.2016 11:29 15,8 C 15,8 C 70 % 1028,0 hPa 0,0 mm 6,4 km/h (2 Bft) NW 320 0 min 0,000 mm 2,1 UV-I 230 W/m 10,3 C 9,7 km/h (2 Bft)
22.08.2016 11:30 15,7 C 15,8 C 68 % 1028,0 hPa 0,0 mm 3,8 km/h (1 Bft) NW 317 0 min 0,000 mm 2,1 UV-I 223 W/m 9,8 C 4,8 km/h (1 Bft)
22.08.2016 11:31 15,6 C 15,7 C 68 % 1028,0 hPa 0,0 mm 5,3 km/h (1 Bft) NW 316 0 min 0,000 mm 2,0 UV-I 216 W/m 9,7 C 8,0 km/h (2 Bft)
22.08.2016 11:32 15,4 C 15,6 C 70 % 1028,0 hPa 0,0 mm 8,2 km/h (2 Bft) NW 315 0 min 0,000 mm 2,0 UV-I 213 W/m 10,0 C 12,9 km/h (3 Bft)
22.08.2016 11:33 15,3 C 15,4 C 72 % 1028,0 hPa 0,0 mm 5,2 km/h (1 Bft) NW 314 0 min 0,000 mm 2,1 UV-I 218 W/m 10,3 C 8,0 km/h (2 Bft)
22.08.2016 11:34 15,2 C 15,3 C 69 % 1028,0 hPa 0,0 mm 5,1 km/h (1 Bft) NW 320 0 min 0,000 mm 2,2 UV-I 227 W/m 9,6 C 12,9 km/h (3 Bft)
22.08.2016 11:35 15,2 C 15,2 C 71 % 1028,0 hPa 0,0 mm 6,2 km/h (2 Bft) NW 306 0 min 0,000 mm 2,3 UV-I 251 W/m 10,0 C 8,0 km/h (2 Bft)
22.08.2016 11:36 15,2 C 15,2 C 71 % 1028,0 hPa 0,0 mm 5,3 km/h (1 Bft) NW 308 0 min 0,000 mm 2,4 UV-I 271 W/m 10,0 C 6,4 km/h (2 Bft)
22.08.2016 11:37 15,2 C 15,2 C 72 % 1028,0 hPa 0,0 mm 5,7 km/h (1 Bft) N-NW 327 0 min 0,000 mm 2,4 UV-I 269 W/m 10,2 C 11,3 km/h (2 Bft)
22.08.2016 11:38 15,2 C 15,2 C 71 % 1028,1 hPa 0,0 mm 7,1 km/h (2 Bft) W-NW 296 0 min 0,000 mm 2,3 UV-I 253 W/m 10,0 C 11,3 km/h (2 Bft)
22.08.2016 11:39 15,3 C 15,3 C 70 % 1028,0 hPa 0,0 mm 6,2 km/h (2 Bft) W-NW 299 0 min 0,000 mm 2,3 UV-I 250 W/m 9,9 C 11,3 km/h (2 Bft)
22.08.2016 11:40 15,3 C 15,3 C 70 % 1028,0 hPa 0,0 mm 4,6 km/h (1 Bft) W-NW 294 0 min 0,000 mm 2,3 UV-I 251 W/m 9,9 C 11,3 km/h (2 Bft)
22.08.2016 11:41 15,3 C 15,3 C 72 % 1028,0 hPa 0,0 mm 9,3 km/h (2 Bft) W-NW 299 0 min 0,000 mm 2,4 UV-I 258 W/m 10,3 C 12,9 km/h (3 Bft)
22.08.2016 11:42 15,2 C 15,3 C 68 % 1028,0 hPa 0,0 mm 8,4 km/h (2 Bft) W-NW 295 0 min 0,000 mm 2,4 UV-I 265 W/m 9,3 C 12,9 km/h (3 Bft)
22.08.2016 11:43 15,2 C 15,2 C 68 % 1028,0 hPa 0,0 mm 5,3 km/h (1 Bft) W 259 0 min 0,000 mm 2,5 UV-I 283 W/m 9,3 C 11,3 km/h (2 Bft)
22.08.2016 11:44 15,1 C 15,2 C 69 % 1028,0 hPa 0,0 mm 7,1 km/h (2 Bft) W-SW 238 0 min 0,000 mm 2,5 UV-I 276 W/m 9,5 C 11,3 km/h (2 Bft)
22.08.2016 11:45 15,1 C 15,1 C 67 % 1028,1 hPa 0,0 mm 8,1 km/h (2 Bft) W-SW 257 0 min 0,000 mm 2,5 UV-I 276 W/m 9,0 C 11,3 km/h (2 Bft)
22.08.2016 11:46 15,1 C 15,1 C 67 % 1028,0 hPa 0,0 mm 4,6 km/h (1 Bft) NW 311 0 min 0,000 mm 2,5 UV-I 269 W/m 9,0 C 8,0 km/h (2 Bft)
22.08.2016 11:47 15,1 C 15,1 C 69 % 1028,0 hPa 0,0 mm 5,0 km/h (1 Bft) W-SW 257 0 min 0,000 mm 2,6 UV-I 272 W/m 9,5 C 6,4 km/h (2 Bft)
22.08.2016 11:48 15,1 C 15,1 C 69 % 1028,0 hPa 0,0 mm 4,0 km/h (1 Bft) N-NW 333 0 min 0,000 mm 2,6 UV-I 267 W/m 9,5 C 8,0 km/h (2 Bft)
22.08.2016 11:49 15,1 C 15,1 C 68 % 1028,0 hPa 0,0 mm 3,6 km/h (1 Bft) NW 309 0 min 0,000 mm 2,6 UV-I 269 W/m 9,2 C 4,8 km/h (1 Bft)
22.08.2016 11:50 15,1 C 15,1 C 71 % 1028,0 hPa 0,0 mm 7,2 km/h (2 Bft) NW 313 0 min 0,000 mm 2,7 UV-I 271 W/m 9,9 C 11,3 km/h (2 Bft)
22.08.2016 11:51 15,2 C 15,2 C 70 % 1028,0 hPa 0,0 mm 5,6 km/h (1 Bft) W-NW 296 0 min 0,000 mm 3,1 UV-I 294 W/m 9,8 C 8,0 km/h (2 Bft)
22.08.2016 11:52 15,4 C 15,4 C 72 % 1028,0 hPa 0,0 mm 5,0 km/h (1 Bft) NW 307 0 min 0,000 mm 6,1 UV-I 294 W/m 10,4 C 8,0 km/h (2 Bft)
22.08.2016 11:53 15,4 C 15,4 C 69 % 1028,0 hPa 0,0 mm 2,7 km/h (1 Bft) W 280 0 min 0,000 mm 3,5 UV-I 294 W/m 9,7 C 4,8 km/h (1 Bft)
22.08.2016 11:54 15,6 C 15,6 C 71 % 1028,0 hPa 0,0 mm 6,8 km/h (2 Bft) W-NW 282 0 min 0,000 mm 3,5 UV-I 332 W/m 10,4 C 9,7 km/h (2 Bft)
22.08.2016 11:55 15,8 C 15,8 C 70 % 1028,0 hPa 0,0 mm 6,0 km/h (2 Bft) W-NW 294 0 min 0,000 mm 4,9 UV-I 332 W/m 10,3 C 9,7 km/h (2 Bft)
22.08.2016 11:56 15,8 C 15,8 C 67 % 1028,0 hPa 0,0 mm 2,2 km/h (1 Bft) W-NW 294 0 min 0,000 mm 3,5 UV-I 362 W/m 9,7 C 3,2 km/h (1 Bft)
22.08.2016 11:57 15,8 C 15,8 C 67 % 1028,0 hPa 0,0 mm 2,3 km/h (1 Bft) W-NW 294 0 min 0,000 mm 3,4 UV-I 320 W/m 9,7 C 3,2 km/h (1 Bft)
22.08.2016 11:58 15,7 C 15,8 C 67 % 1028,0 hPa 0,0 mm 4,1 km/h (1 Bft) W-NW 290 0 min 0,000 mm 3,4 UV-I 318 W/m 9,6 C 8,0 km/h (2 Bft)
22.08.2016 11:59 15,7 C 15,7 C 69 % 1028,0 hPa 0,0 mm 5,6 km/h (1 Bft) W-NW 298 0 min 0,000 mm 3,7 UV-I 339 W/m 10,0 C 8,0 km/h (2 Bft)
22.08.2016 12:00 15,8 C 15,8 C 69 % 1028,0 hPa 0,0 mm 5,4 km/h (1 Bft) N-NW 337 0 min 0,000 mm 6,0 UV-I 339 W/m 10,1 C 8,0 km/h (2 Bft)
22.08.2016 12:01 16,0 C 16,0 C 70 % 1028,0 hPa 0,0 mm 4,4 km/h (1 Bft) W-NW 300 1 min 0,254 mm 5,4 UV-I 693 W/m 10,5 C 8,0 km/h (2 Bft)
22.08.2016 12:02 16,2 C 16,2 C 68 % 1028,0 hPa 0,0 mm 2,7 km/h (1 Bft) N 355 1 min 0,000 mm 6,6 UV-I 976 W/m 10,3 C 4,8 km/h (1 Bft)
22.08.2016 12:03 16,3 C 16,3 C 73 % 1028,0 hPa 0,0 mm 4,6 km/h (1 Bft) N-NW 346 1 min 0,000 mm 6,5 UV-I 965 W/m 11,4 C 8,0 km/h (2 Bft)
22.08.2016 12:04 16,2 C 16,3 C 64 % 1028,0 hPa 0,0 mm 0,7 km/h (0 Bft) N 350 1 min 0,000 mm 6,5 UV-I 949 W/m 9,4 C 1,6 km/h (1 Bft)
22.08.2016 12:05 16,1 C 16,2 C 66 % 1028,0 hPa 0,0 mm 0,9 km/h (0 Bft) N-NO 19 1 min 0,000 mm 6,5 UV-I 937 W/m 9,7 C 3,2 km/h (1 Bft)
22.08.2016 12:06 16,1 C 16,1 C 68 % 1028,0 hPa 0,0 mm 2,2 km/h (1 Bft) NO 51 1 min 0,000 mm 6,4 UV-I 921 W/m 10,2 C 6,4 km/h (2 Bft)
22.08.2016 12:07 16,2 C 16,2 C 69 % 1027,9 hPa 0,0 mm 6,0 km/h (2 Bft) O-NO 67 1 min 0,000 mm 6,4 UV-I 900 W/m 10,5 C 9,7 km/h (2 Bft)
22.08.2016 12:08 16,2 C 16,3 C 68 % 1027,9 hPa 0,0 mm 3,5 km/h (1 Bft) O-NO 68 1 min 0,000 mm 6,4 UV-I 898 W/m 10,3 C 4,8 km/h (1 Bft)
22.08.2016 12:09 16,2 C 16,3 C 65 % 1027,9 hPa 0,0 mm 1,6 km/h (1 Bft) O-NO 68 1 min 0,000 mm 6,4 UV-I 896 W/m 9,6 C 3,2 km/h (1 Bft)
22.08.2016 12:10 16,2 C 16,2 C 68 % 1027,9 hPa 0,0 mm 2,0 km/h (1 Bft) W 259 1 min 0,000 mm 6,4 UV-I 900 W/m 10,3 C 4,8 km/h (1 Bft)
22.08.2016 12:11 16,3 C 16,3 C 65 % 1027,9 hPa 0,0 mm 3,4 km/h (1 Bft) W-NW 282 1 min 0,000 mm 6,5 UV-I 907 W/m 9,7 C 4,8 km/h (1 Bft)
22.08.2016 12:12 16,4 C 16,4 C 65 % 1028,0 hPa 0,0 mm 1,7 km/h (1 Bft) W-NW 290 1 min 0,000 mm 6,5 UV-I 916 W/m 9,8 C 3,2 km/h (1 Bft)
22.08.2016 12:13 16,5 C 16,5 C 65 % 1027,9 hPa 0,0 mm 1,3 km/h (1 Bft) N-NO 29 1 min 0,000 mm 6,5 UV-I 933 W/m 9,9 C 4,8 km/h (1 Bft)
22.08.2016 12:14 16,6 C 16,6 C 68 % 1027,9 hPa 0,0 mm 5,8 km/h (2 Bft) N-NO 18 1 min 0,000 mm 6,5 UV-I 912 W/m 10,7 C 8,0 km/h (2 Bft)
22.08.2016 12:15 16,6 C 16,6 C 66 % 1027,9 hPa 0,0 mm 3,2 km/h (1 Bft) N-NO 33 1 min 0,000 mm 6,5 UV-I 911 W/m 10,2 C 6,4 km/h (2 Bft)
22.08.2016 12:16 16,6 C 16,6 C 68 % 1027,9 hPa 0,0 mm 2,3 km/h (1 Bft) W 263 1 min 0,000 mm 6,5 UV-I 907 W/m 10,7 C 4,8 km/h (1 Bft)
22.08.2016 12:17 16,7 C 16,7 C 60 % 1027,9 hPa 0,0 mm 5,0 km/h (1 Bft) SW 221 1 min 0,000 mm 5,8 UV-I 870 W/m 8,9 C 9,7 km/h (2 Bft)
22.08.2016 12:18 16,6 C 16,7 C 61 % 1027,8 hPa 0,0 mm 4,2 km/h (1 Bft) S 179 1 min 0,000 mm 5,6 UV-I 930 W/m 9,0 C 6,4 km/h (2 Bft)
22.08.2016 12:19 16,6 C 16,6 C 63 % 1027,8 hPa 0,0 mm 1,6 km/h (1 Bft) S 179 1 min 0,000 mm 6,1 UV-I 888 W/m 9,5 C 3,2 km/h (1 Bft)
22.08.2016 12:20 16,6 C 16,6 C 65 % 1027,9 hPa 0,0 mm 1,4 km/h (1 Bft) N-NW 329 1 min 0,000 mm 5,9 UV-I 888 W/m 10,0 C 3,2 km/h (1 Bft)
22.08.2016 12:21 16,7 C 16,7 C 66 % 1027,8 hPa 0,0 mm 1,9 km/h (1 Bft) W-NW 291 1 min 0,000 mm 6,6 UV-I 928 W/m 10,3 C 4,8 km/h (1 Bft)
22.08.2016 12:22 16,7 C 16,7 C 65 % 1027,9 hPa 0,0 mm 4,4 km/h (1 Bft) NW 309 1 min 0,000 mm 6,8 UV-I 932 W/m 10,1 C 8,0 km/h (2 Bft)
22.08.2016 12:23 16,8 C 16,8 C 62 % 1027,8 hPa 0,0 mm 5,3 km/h (1 Bft) W-NW 287 1 min 0,000 mm 6,7 UV-I 944 W/m 9,5 C 8,0 km/h (2 Bft)
22.08.2016 12:24 16,9 C 16,9 C 61 % 1027,8 hPa 0,0 mm 7,4 km/h (2 Bft) NW 308 1 min 0,000 mm 6,3 UV-I 944 W/m 9,3 C 11,3 km/h (2 Bft)
22.08.2016 12:25 17,1 C 17,1 C 65 % 1027,8 hPa 0,0 mm 5,3 km/h (1 Bft) W 264 1 min 0,000 mm 6,7 UV-I 958 W/m 10,5 C 9,7 km/h (2 Bft)
22.08.2016 12:26 17,2 C 17,2 C 64 % 1027,8 hPa 0,0 mm 5,0 km/h (1 Bft) W-NW 300 1 min 0,000 mm 3,6 UV-I 958 W/m 10,3 C 6,4 km/h (2 Bft)
22.08.2016 12:27 17,1 C 17,2 C 61 % 1027,8 hPa 0,0 mm 6,1 km/h (2 Bft) W-SW 258 1 min 0,000 mm 3,3 UV-I 958 W/m 9,5 C 11,3 km/h (2 Bft)
22.08.2016 12:28 16,8 C 17,1 C 61 % 1027,8 hPa 0,0 mm 5,2 km/h (1 Bft) N-NW 336 1 min 0,000 mm 5,6 UV-I 958 W/m 9,2 C 11,3 km/h (2 Bft)
22.08.2016 12:29 16,8 C 16,8 C 63 % 1027,8 hPa 0,0 mm 5,4 km/h (1 Bft) W-NW 288 1 min 0,000 mm 6,8 UV-I 958 W/m 9,7 C 8,0 km/h (2 Bft)
22.08.2016 12:30 16,9 C 16,9 C 64 % 1027,7 hPa 0,0 mm 3,8 km/h (1 Bft) NW 315 1 min 0,000 mm 6,8 UV-I 960 W/m 10,0 C 6,4 km/h (2 Bft)
22.08.2016 12:31 17,1 C 17,1 C 62 % 1027,8 hPa 0,0 mm 6,4 km/h (2 Bft) W-NW 297 1 min 0,000 mm 6,8 UV-I 976 W/m 9,8 C 8,0 km/h (2 Bft)
22.08.2016 12:32 17,2 C 17,2 C 62 % 1027,8 hPa 0,0 mm 11,5 km/h (2 Bft) N 360 1 min 0,000 mm 6,9 UV-I 986 W/m 9,9 C 16,1 km/h (3 Bft)
22.08.2016 12:33 17,4 C 17,4 C 64 % 1027,9 hPa 0,0 mm 7,2 km/h (2 Bft) W-NW 302 1 min 0,000 mm 7,1 UV-I 1023 W/m 10,5 C 14,5 km/h (3 Bft)
22.08.2016 12:34 17,4 C 17,4 C 59 % 1027,9 hPa 0,0 mm 6,3 km/h (2 Bft) NW 308 1 min 0,000 mm 7,2 UV-I 1023 W/m 9,3 C 12,9 km/h (3 Bft)
22.08.2016 12:35 17,4 C 17,4 C 60 % 1027,8 hPa 0,0 mm 7,0 km/h (2 Bft) NO 51 1 min 0,000 mm 7,0 UV-I 1023 W/m 9,6 C 12,9 km/h (3 Bft)
22.08.2016 12:36 17,4 C 17,4 C 63 % 1027,9 hPa 0,0 mm 7,1 km/h (2 Bft) N-NW 346 1 min 0,000 mm 6,9 UV-I 1037 W/m 10,3 C 12,9 km/h (3 Bft)
22.08.2016 12:37 17,6 C 17,6 C 61 % 1027,8 hPa 0,0 mm 7,6 km/h (2 Bft) N 5 1 min 0,000 mm 3,4 UV-I 1037 W/m 10,0 C 12,9 km/h (3 Bft)
22.08.2016 12:38 17,6 C 17,6 C 62 % 1027,8 hPa 0,0 mm 10,5 km/h (2 Bft) W-NW 297 1 min 0,000 mm 2,8 UV-I 1037 W/m 10,2 C 19,3 km/h (3 Bft)
22.08.2016 12:39 17,4 C 17,6 C 60 % 1027,8 hPa 0,0 mm 11,7 km/h (2 Bft) NW 305 0 min 0,000 mm 2,6 UV-I 278 W/m 9,6 C 17,7 km/h (3 Bft)
22.08.2016 12:40 17,2 C 17,4 C 60 % 1027,8 hPa 0,0 mm 9,0 km/h (2 Bft) W-NW 300 0 min 0,000 mm 2,5 UV-I 272 W/m 9,4 C 14,5 km/h (3 Bft)
22.08.2016 12:41 16,9 C 17,2 C 63 % 1027,8 hPa 0,0 mm 10,5 km/h (2 Bft) NW 326 0 min 0,000 mm 2,5 UV-I 271 W/m 9,8 C 14,5 km/h (3 Bft)
22.08.2016 12:42 16,8 C 16,9 C 63 % 1027,8 hPa 0,0 mm 10,5 km/h (2 Bft) NW 309 0 min 0,000 mm 2,4 UV-I 265 W/m 9,7 C 16,1 km/h (3 Bft)
22.08.2016 12:43 16,6 C 16,8 C 64 % 1027,8 hPa 0,0 mm 8,5 km/h (2 Bft) NW 317 0 min 0,000 mm 2,2 UV-I 244 W/m 9,8 C 12,9 km/h (3 Bft)
22.08.2016 12:44 16,4 C 16,6 C 64 % 1027,8 hPa 0,0 mm 6,4 km/h (2 Bft) W-NW 282 0 min 0,000 mm 2,2 UV-I 241 W/m 9,6 C 9,7 km/h (2 Bft)
22.08.2016 12:45 16,4 C 16,4 C 67 % 1027,9 hPa 0,0 mm 6,9 km/h (2 Bft) N-NW 340 0 min 0,000 mm 2,2 UV-I 234 W/m 10,3 C 14,5 km/h (3 Bft)
22.08.2016 12:46 16,3 C 16,4 C 66 % 1027,9 hPa 0,0 mm 12,3 km/h (3 Bft) W-NW 303 0 min 0,000 mm 2,1 UV-I 225 W/m 9,9 C 16,1 km/h (3 Bft)
22.08.2016 12:47 16,3 C 16,3 C 66 % 1027,9 hPa 0,0 mm 6,1 km/h (2 Bft) NW 315 0 min 0,000 mm 2,1 UV-I 221 W/m 9,9 C 8,0 km/h (2 Bft)
22.08.2016 12:48 16,2 C 16,3 C 65 % 1027,9 hPa 0,0 mm 5,2 km/h (1 Bft) W-NW 292 0 min 0,000 mm 2,2 UV-I 225 W/m 9,6 C 8,0 km/h (2 Bft)
22.08.2016 12:49 16,2 C 16,2 C 66 % 1027,9 hPa 0,0 mm 10,4 km/h (2 Bft) NW 321 0 min 0,000 mm 2,3 UV-I 232 W/m 9,8 C 14,5 km/h (3 Bft)
22.08.2016 12:50 16,1 C 16,2 C 67 % 1027,9 hPa 0,0 mm 7,2 km/h (2 Bft) N-NW 333 0 min 0,000 mm 2,4 UV-I 236 W/m 10,0 C 11,3 km/h (2 Bft)
22.08.2016 12:51 16,1 C 16,1 C 68 % 1027,8 hPa 0,0 mm 6,9 km/h (2 Bft) W 267 0 min 0,000 mm 2,5 UV-I 241 W/m 10,2 C 12,9 km/h (3 Bft)
22.08.2016 12:52 16,1 C 16,2 C 66 % 1027,9 hPa 0,0 mm 4,9 km/h (1 Bft) W 263 0 min 0,000 mm 2,5 UV-I 248 W/m 9,7 C 6,4 km/h (2 Bft)
22.08.2016 12:53 16,1 C 16,2 C 66 % 1027,9 hPa 0,0 mm 5,8 km/h (2 Bft) NW 306 0 min 0,000 mm 2,6 UV-I 255 W/m 9,7 C 9,7 km/h (2 Bft)
22.08.2016 12:54 16,1 C 16,1 C 67 % 1027,8 hPa 0,0 mm 7,1 km/h (2 Bft) W 281 0 min 0,000 mm 2,7 UV-I 262 W/m 10,0 C 11,3 km/h (2 Bft)
22.08.2016 12:55 16,1 C 16,1 C 66 % 1027,8 hPa 0,0 mm 7,5 km/h (2 Bft) NW 304 0 min 0,000 mm 2,8 UV-I 265 W/m 9,7 C 11,3 km/h (2 Bft)
22.08.2016 12:56 16,1 C 16,1 C 65 % 1027,8 hPa 0,0 mm 4,0 km/h (1 Bft) NW 319 0 min 0,000 mm 2,9 UV-I 274 W/m 9,5 C 4,8 km/h (1 Bft)
22.08.2016 12:57 16,1 C 16,1 C 67 % 1027,8 hPa 0,0 mm 4,1 km/h (1 Bft) NW 315 0 min 0,000 mm 3,0 UV-I 278 W/m 10,0 C 6,4 km/h (2 Bft)
22.08.2016 12:58 16,1 C 16,1 C 65 % 1027,8 hPa 0,0 mm 3,8 km/h (1 Bft) N-NW 333 0 min 0,000 mm 3,0 UV-I 279 W/m 9,5 C 6,4 km/h (2 Bft)
22.08.2016 12:59 16,1 C 16,1 C 64 % 1027,8 hPa 0,0 mm 2,5 km/h (1 Bft) N-NW 330 0 min 0,000 mm 3,0 UV-I 285 W/m 9,3 C 4,8 km/h (1 Bft)
22.08.2016 13:00 16,1 C 16,1 C 65 % 1027,8 hPa 0,0 mm 5,5 km/h (1 Bft) N-NW 340 0 min 0,381 mm 3,1 UV-I 281 W/m 9,5 C 8,0 km/h (2 Bft)
22.08.2016 13:01 16,2 C 16,2 C 66 % 1027,8 hPa 0,0 mm 5,2 km/h (1 Bft) NW 311 0 min 0,000 mm 3,1 UV-I 281 W/m 9,8 C 8,0 km/h (2 Bft)
22.08.2016 13:02 16,3 C 16,3 C 66 % 1027,8 hPa 0,0 mm 4,0 km/h (1 Bft) N 360 0 min 0,000 mm 3,2 UV-I 288 W/m 9,9 C 6,4 km/h (2 Bft)
22.08.2016 13:03 16,3 C 16,3 C 64 % 1027,8 hPa 0,0 mm 5,5 km/h (1 Bft) N-NW 341 0 min 0,000 mm 6,6 UV-I 288 W/m 9,5 C 6,4 km/h (2 Bft)
22.08.2016 13:04 16,4 C 16,4 C 62 % 1027,8 hPa 0,0 mm 6,2 km/h (2 Bft) N 9 0 min 0,000 mm 7,0 UV-I 288 W/m 9,1 C 9,7 km/h (2 Bft)
22.08.2016 13:05 16,6 C 16,6 C 61 % 1027,8 hPa 0,0 mm 5,8 km/h (2 Bft) N 5 0 min 0,000 mm 5,6 UV-I 288 W/m 9,0 C 11,3 km/h (2 Bft)
22.08.2016 13:06 16,8 C 16,8 C 68 % 1027,8 hPa 0,0 mm 3,4 km/h (1 Bft) N 5 0 min 0,000 mm 4,2 UV-I 390 W/m 10,9 C 4,8 km/h (1 Bft)
22.08.2016 13:07 16,9 C 16,9 C 64 % 1027,8 hPa 0,0 mm 4,4 km/h (1 Bft) N-NW 327 0 min 0,000 mm 5,1 UV-I 390 W/m 10,0 C 6,4 km/h (2 Bft)
22.08.2016 13:08 16,9 C 17,0 C 61 % 1027,8 hPa 0,0 mm 2,2 km/h (1 Bft) NW 308 0 min 0,000 mm 4,8 UV-I 390 W/m 9,3 C 3,2 km/h (1 Bft)
22.08.2016 13:09 17,1 C 17,1 C 65 % 1027,8 hPa 0,0 mm 2,8 km/h (1 Bft) W-SW 251 0 min 0,000 mm 6,7 UV-I 390 W/m 10,5 C 6,4 km/h (2 Bft)
22.08.2016 13:10 16,9 C 17,1 C 60 % 1027,8 hPa 0,0 mm 2,7 km/h (1 Bft) W-SW 251 0 min 0,000 mm 6,9 UV-I 390 W/m 9,1 C 4,8 km/h (1 Bft)
22.08.2016 13:11 17,1 C 17,1 C 62 % 1027,8 hPa 0,0 mm 0,5 km/h (0 Bft) W-SW 251 1 min 0,000 mm 7,0 UV-I 983 W/m 9,8 C 1,6 km/h (1 Bft)
22.08.2016 13:12 17,1 C 17,1 C 62 % 1027,8 hPa 0,0 mm 1,1 km/h (1 Bft) W 277 1 min 0,000 mm 6,9 UV-I 956 W/m 9,8 C 3,2 km/h (1 Bft)
22.08.2016 13:13 17,1 C 17,1 C 64 % 1027,8 hPa 0,0 mm 3,1 km/h (1 Bft) NW 322 1 min 0,000 mm 6,9 UV-I 946 W/m 10,2 C 6,4 km/h (2 Bft)
22.08.2016 13:14 17,1 C 17,2 C 59 % 1027,8 hPa 0,0 mm 5,1 km/h (1 Bft) W 277 1 min 0,000 mm 6,9 UV-I 939 W/m 9,0 C 8,0 km/h (2 Bft)
22.08.2016 13:15 17,2 C 17,2 C 61 % 1027,8 hPa 0,0 mm 2,5 km/h (1 Bft) W 281 1 min 0,000 mm 6,9 UV-I 937 W/m 9,6 C 3,2 km/h (1 Bft)
22.08.2016 13:16 17,2 C 17,2 C 62 % 1027,8 hPa 0,0 mm 3,5 km/h (1 Bft) W-SW 250 1 min 0,000 mm 6,9 UV-I 933 W/m 9,9 C 6,4 km/h (2 Bft)
22.08.2016 13:17 17,3 C 17,3 C 64 % 1027,8 hPa 0,0 mm 2,4 km/h (1 Bft) N 9 1 min 0,000 mm 6,9 UV-I 926 W/m 10,4 C 6,4 km/h (2 Bft)
22.08.2016 13:18 17,6 C 17,6 C 63 % 1027,7 hPa 0,0 mm 7,6 km/h (2 Bft) W-NW 284 1 min 0,000 mm 6,9 UV-I 923 W/m 10,5 C 12,9 km/h (3 Bft)
22.08.2016 13:19 17,7 C 17,7 C 63 % 1027,8 hPa 0,0 mm 9,4 km/h (2 Bft) W 259 1 min 0,000 mm 6,8 UV-I 921 W/m 10,6 C 12,9 km/h (3 Bft)
22.08.2016 13:20 17,9 C 17,9 C 68 % 1027,8 hPa 0,0 mm 5,7 km/h (1 Bft) W 281 1 min 0,000 mm 6,8 UV-I 912 W/m 11,9 C 11,3 km/h (2 Bft)
22.08.2016 13:21 18,0 C 18,0 C 62 % 1027,8 hPa 0,0 mm 8,9 km/h (2 Bft) W 273 1 min 0,000 mm 6,8 UV-I 907 W/m 10,6 C 16,1 km/h (3 Bft)
22.08.2016 13:22 18,1 C 18,1 C 62 % 1027,7 hPa 0,0 mm 10,5 km/h (2 Bft) W 264 1 min 0,000 mm 6,8 UV-I 898 W/m 10,7 C 12,9 km/h (3 Bft)
22.08.2016 13:23 17,8 C 18,1 C 59 % 1027,8 hPa 0,0 mm 9,1 km/h (2 Bft) W-SW 254 1 min 0,000 mm 6,8 UV-I 882 W/m 9,7 C 12,9 km/h (3 Bft)
22.08.2016 13:24 17,7 C 17,8 C 60 % 1027,8 hPa 0,0 mm 9,3 km/h (2 Bft) NW 309 1 min 0,000 mm 6,7 UV-I 874 W/m 9,8 C 12,9 km/h (3 Bft)
22.08.2016 13:25 17,6 C 17,7 C 62 % 1027,7 hPa 0,0 mm 8,2 km/h (2 Bft) W 277 1 min 0,000 mm 6,7 UV-I 865 W/m 10,2 C 12,9 km/h (3 Bft)
22.08.2016 13:26 17,6 C 17,6 C 61 % 1027,8 hPa 0,0 mm 11,1 km/h (2 Bft) W-NW 294 1 min 0,000 mm 6,7 UV-I 860 W/m 10,0 C 14,5 km/h (3 Bft)
22.08.2016 13:27 17,6 C 17,6 C 60 % 1027,7 hPa 0,0 mm 8,5 km/h (2 Bft) W-NW 284 1 min 0,000 mm 6,7 UV-I 856 W/m 9,7 C 14,5 km/h (3 Bft)
22.08.2016 13:28 17,4 C 17,6 C 58 % 1027,7 hPa 0,0 mm 9,2 km/h (2 Bft) W-SW 238 1 min 0,000 mm 6,7 UV-I 860 W/m 9,1 C 14,5 km/h (3 Bft)
22.08.2016 13:29 17,3 C 17,4 C 60 % 1027,7 hPa 0,0 mm 10,0 km/h (2 Bft) W-NW 283 1 min 0,000 mm 6,6 UV-I 851 W/m 9,5 C 14,5 km/h (3 Bft)
22.08.2016 13:30 17,3 C 17,3 C 63 % 1027,7 hPa 0,0 mm 10,8 km/h (2 Bft) W-NW 290 1 min 0,000 mm 6,6 UV-I 860 W/m 10,2 C 16,1 km/h (3 Bft)
22.08.2016 13:31 17,4 C 17,4 C 59 % 1027,7 hPa 0,0 mm 8,5 km/h (2 Bft) SW 236 1 min 0,000 mm 6,6 UV-I 830 W/m 9,3 C 12,9 km/h (3 Bft)
22.08.2016 13:32 17,4 C 17,4 C 60 % 1027,7 hPa 0,0 mm 8,3 km/h (2 Bft) W-SW 252 1 min 0,000 mm 6,7 UV-I 893 W/m 9,6 C 14,5 km/h (3 Bft)
22.08.2016 13:33 17,3 C 17,4 C 59 % 1027,7 hPa 0,0 mm 9,0 km/h (2 Bft) W-NW 295 1 min 0,000 mm 6,7 UV-I 898 W/m 9,2 C 16,1 km/h (3 Bft)
22.08.2016 13:34 17,4 C 17,4 C 63 % 1027,7 hPa 0,0 mm 11,1 km/h (2 Bft) W-SW 253 1 min 0,000 mm 6,7 UV-I 898 W/m 10,3 C 16,1 km/h (3 Bft)
22.08.2016 13:35 17,5 C 17,5 C 62 % 1027,7 hPa 0,0 mm 7,8 km/h (2 Bft) W-NW 302 1 min 0,000 mm 6,7 UV-I 904 W/m 10,1 C 14,5 km/h (3 Bft)
22.08.2016 13:36 17,6 C 17,6 C 66 % 1027,6 hPa 0,0 mm 2,9 km/h (1 Bft) W 259 1 min 0,000 mm 6,6 UV-I 860 W/m 11,2 C 6,4 km/h (2 Bft)
22.08.2016 13:37 17,8 C 17,8 C 63 % 1027,6 hPa 0,0 mm 7,1 km/h (2 Bft) W-NW 284 1 min 0,000 mm 6,6 UV-I 856 W/m 10,7 C 11,3 km/h (2 Bft)
22.08.2016 13:38 17,8 C 17,8 C 63 % 1027,6 hPa 0,0 mm 9,2 km/h (2 Bft) W-NW 290 1 min 0,000 mm 5,5 UV-I 809 W/m 10,7 C 14,5 km/h (3 Bft)
22.08.2016 13:39 17,7 C 17,8 C 62 % 1027,6 hPa 0,0 mm 5,7 km/h (1 Bft) W-NW 294 1 min 0,000 mm 5,7 UV-I 896 W/m 10,3 C 11,3 km/h (2 Bft)
22.08.2016 13:40 17,7 C 17,8 C 58 % 1027,7 hPa 0,0 mm 7,9 km/h (2 Bft) W-NW 295 1 min 0,000 mm 6,3 UV-I 896 W/m 9,3 C 12,9 km/h (3 Bft)
22.08.2016 13:41 17,6 C 17,7 C 60 % 1027,6 hPa 0,0 mm 7,6 km/h (2 Bft) W-SW 256 1 min 0,000 mm 5,3 UV-I 663 W/m 9,7 C 12,9 km/h (3 Bft)
22.08.2016 13:42 17,5 C 17,6 C 61 % 1027,6 hPa 0,0 mm 5,6 km/h (1 Bft) W-SW 245 1 min 0,000 mm 3,4 UV-I 663 W/m 9,9 C 11,3 km/h (2 Bft)
22.08.2016 13:43 17,3 C 17,5 C 64 % 1027,7 hPa 0,0 mm 7,2 km/h (2 Bft) W 263 0 min 0,000 mm 3,4 UV-I 236 W/m 10,4 C 11,3 km/h (2 Bft)
22.08.2016 13:44 17,2 C 17,3 C 61 % 1027,7 hPa 0,0 mm 6,2 km/h (2 Bft) NW 306 0 min 0,000 mm 6,2 UV-I 236 W/m 9,6 C 11,3 km/h (2 Bft)
22.08.2016 13:45 17,0 C 17,2 C 60 % 1027,6 hPa 0,0 mm 6,3 km/h (2 Bft) W-NW 293 0 min 0,000 mm 3,3 UV-I 236 W/m 9,2 C 12,9 km/h (3 Bft)
22.08.2016 13:46 16,8 C 17,0 C 60 % 1027,8 hPa 0,0 mm 6,7 km/h (2 Bft) W-NW 289 0 min 0,000 mm 3,3 UV-I 257 W/m 9,0 C 9,7 km/h (2 Bft)
22.08.2016 13:47 16,7 C 16,8 C 60 % 1027,7 hPa 0,0 mm 3,5 km/h (1 Bft) W-NW 303 0 min 0,000 mm 3,4 UV-I 269 W/m 8,9 C 6,4 km/h (2 Bft)
22.08.2016 13:48 16,6 C 16,7 C 60 % 1027,6 hPa 0,0 mm 5,8 km/h (2 Bft) W-NW 287 0 min 0,000 mm 4,1 UV-I 343 W/m 8,8 C 9,7 km/h (2 Bft)
22.08.2016 13:49 16,6 C 16,6 C 63 % 1027,7 hPa 0,0 mm 4,9 km/h (1 Bft) W 266 0 min 0,000 mm 3,8 UV-I 346 W/m 9,5 C 8,0 km/h (2 Bft)
22.08.2016 13:50 16,6 C 16,6 C 60 % 1027,7 hPa 0,0 mm 2,5 km/h (1 Bft) W 276 0 min 0,000 mm 3,9 UV-I 320 W/m 8,8 C 4,8 km/h (1 Bft)
22.08.2016 13:51 16,6 C 16,6 C 62 % 1027,7 hPa 0,0 mm 3,9 km/h (1 Bft) W 265 0 min 0,000 mm 4,1 UV-I 383 W/m 9,3 C 4,8 km/h (1 Bft)
22.08.2016 13:52 16,6 C 16,6 C 60 % 1027,7 hPa 0,0 mm 2,8 km/h (1 Bft) W-NW 294 0 min 0,000 mm 4,1 UV-I 301 W/m 8,8 C 6,4 km/h (2 Bft)
22.08.2016 13:53 16,5 C 16,6 C 62 % 1027,6 hPa 0,0 mm 5,8 km/h (2 Bft) W-NW 292 0 min 0,000 mm 3,8 UV-I 309 W/m 9,2 C 9,7 km/h (2 Bft)
22.08.2016 13:54 16,6 C 16,6 C 63 % 1027,6 hPa 0,0 mm 6,4 km/h (2 Bft) W 277 0 min 0,000 mm 3,7 UV-I 325 W/m 9,5 C 9,7 km/h (2 Bft)
22.08.2016 13:55 16,7 C 16,7 C 65 % 1027,6 hPa 0,0 mm 7,6 km/h (2 Bft) NW 308 0 min 0,000 mm 3,9 UV-I 336 W/m 10,1 C 12,9 km/h (3 Bft)
22.08.2016 13:56 16,8 C 16,8 C 63 % 1027,7 hPa 0,0 mm 5,7 km/h (1 Bft) W-SW 242 0 min 0,000 mm 4,1 UV-I 360 W/m 9,7 C 8,0 km/h (2 Bft)
22.08.2016 13:57 16,8 C 16,8 C 60 % 1027,7 hPa 0,0 mm 5,9 km/h (2 Bft) W 264 0 min 0,000 mm 4,1 UV-I 408 W/m 9,0 C 9,7 km/h (2 Bft)
22.08.2016 13:58 16,7 C 16,8 C 62 % 1027,7 hPa 0,0 mm 3,2 km/h (1 Bft) W-NW 283 0 min 0,000 mm 4,4 UV-I 408 W/m 9,4 C 6,4 km/h (2 Bft)
22.08.2016 13:59 16,8 C 16,8 C 61 % 1027,7 hPa 0,0 mm 5,6 km/h (1 Bft) W-SW 253 0 min 0,000 mm 5,3 UV-I 408 W/m 9,2 C 11,3 km/h (2 Bft)
22.08.2016 14:00 16,9 C 16,9 C 63 % 1027,7 hPa 0,0 mm 4,7 km/h (1 Bft) W 281 0 min 0,000 mm 5,1 UV-I 408 W/m 9,8 C 9,7 km/h (2 Bft)
22.08.2016 14:01 17,0 C 17,0 C 63 % 1027,7 hPa 0,0 mm 7,3 km/h (2 Bft) W-NW 295 1 min 0,406 mm 5,0 UV-I 626 W/m 9,9 C 11,3 km/h (2 Bft)
22.08.2016 14:02 17,2 C 17,2 C 63 % 1027,7 hPa 0,0 mm 6,7 km/h (2 Bft) W-SW 242 1 min 0,000 mm 6,2 UV-I 715 W/m 10,1 C 9,7 km/h (2 Bft)
22.08.2016 14:03 17,3 C 17,3 C 64 % 1027,7 hPa 0,0 mm 3,7 km/h (1 Bft) W-SW 240 1 min 0,000 mm 6,8 UV-I 715 W/m 10,4 C 6,4 km/h (2 Bft)
22.08.2016 14:04 17,4 C 17,4 C 64 % 1027,6 hPa 0,0 mm 5,2 km/h (1 Bft) S 177 1 min 0,000 mm 6,7 UV-I 930 W/m 10,5 C 8,0 km/h (2 Bft)
22.08.2016 14:05 17,5 C 17,5 C 61 % 1027,7 hPa 0,0 mm 3,2 km/h (1 Bft) SW 236 1 min 0,000 mm 6,5 UV-I 930 W/m 9,9 C 4,8 km/h (1 Bft)
22.08.2016 14:06 17,6 C 17,6 C 61 % 1027,6 hPa 0,0 mm 6,9 km/h (2 Bft) W 259 1 min 0,000 mm 6,5 UV-I 930 W/m 10,0 C 16,1 km/h (3 Bft)
22.08.2016 14:07 17,6 C 17,6 C 60 % 1027,6 hPa 0,0 mm 9,0 km/h (2 Bft) W-SW 240 1 min 0,000 mm 6,4 UV-I 851 W/m 9,7 C 12,9 km/h (3 Bft)
22.08.2016 14:08 17,4 C 17,6 C 60 % 1027,6 hPa 0,0 mm 4,3 km/h (1 Bft) SW 219 1 min 0,000 mm 6,4 UV-I 838 W/m 9,6 C 6,4 km/h (2 Bft)
22.08.2016 14:09 17,4 C 17,5 C 57 % 1027,7 hPa 0,0 mm 4,5 km/h (1 Bft) S-SW 205 1 min 0,000 mm 6,4 UV-I 842 W/m 8,8 C 4,8 km/h (1 Bft)
22.08.2016 14:10 17,5 C 17,5 C 60 % 1027,6 hPa 0,0 mm 5,6 km/h (1 Bft) W-SW 258 1 min 0,000 mm 6,4 UV-I 851 W/m 9,6 C 9,7 km/h (2 Bft)
22.08.2016 14:11 17,6 C 17,6 C 62 % 1027,7 hPa 0,0 mm 6,7 km/h (2 Bft) W-SW 247 1 min 0,000 mm 6,4 UV-I 854 W/m 10,2 C 11,3 km/h (2 Bft)
22.08.2016 14:12 17,7 C 17,7 C 61 % 1027,6 hPa 0,0 mm 4,0 km/h (1 Bft) NW 324 1 min 0,000 mm 6,4 UV-I 854 W/m 10,1 C 6,4 km/h (2 Bft)
22.08.2016 14:13 17,9 C 17,9 C 62 % 1027,6 hPa 0,0 mm 1,3 km/h (1 Bft) NW 308 1 min 0,000 mm 6,4 UV-I 856 W/m 10,5 C 3,2 km/h (1 Bft)
22.08.2016 14:14 18,1 C 18,1 C 64 % 1027,5 hPa 0,0 mm 3,0 km/h (1 Bft) S 177 1 min 0,000 mm 6,5 UV-I 861 W/m 11,2 C 4,8 km/h (1 Bft)
22.08.2016 14:15 18,3 C 18,3 C 63 % 1027,6 hPa 0,0 mm 6,6 km/h (2 Bft) S 186 1 min 0,000 mm 6,5 UV-I 875 W/m 11,1 C 9,7 km/h (2 Bft)
22.08.2016 14:16 18,2 C 18,3 C 53 % 1027,6 hPa 0,0 mm 5,6 km/h (1 Bft) S-SO 166 1 min 0,000 mm 6,5 UV-I 875 W/m 8,5 C 8,0 km/h (2 Bft)
22.08.2016 14:17 18,1 C 18,2 C 56 % 1027,5 hPa 0,0 mm 3,9 km/h (1 Bft) S-SW 200 1 min 0,000 mm 6,3 UV-I 875 W/m 9,2 C 6,4 km/h (2 Bft)
22.08.2016 14:18 18,1 C 18,1 C 54 % 1027,5 hPa 0,0 mm 2,1 km/h (1 Bft) S 178 1 min 0,000 mm 6,3 UV-I 830 W/m 8,6 C 6,4 km/h (2 Bft)
22.08.2016 14:19 18,2 C 18,2 C 63 % 1027,5 hPa 0,0 mm 5,5 km/h (1 Bft) SW 232 1 min 0,000 mm 6,3 UV-I 831 W/m 11,0 C 11,3 km/h (2 Bft)
22.08.2016 14:20 18,3 C 18,3 C 59 % 1027,5 hPa 0,0 mm 5,7 km/h (1 Bft) S-SW 193 1 min 0,000 mm 6,2 UV-I 814 W/m 10,1 C 11,3 km/h (2 Bft)
22.08.2016 14:21 18,4 C 18,4 C 58 % 1027,5 hPa 0,0 mm 6,2 km/h (2 Bft) SW 214 1 min 0,000 mm 6,2 UV-I 802 W/m 10,0 C 9,7 km/h (2 Bft)
22.08.2016 14:22 18,4 C 18,4 C 60 % 1027,4 hPa 0,0 mm 5,1 km/h (1 Bft) S 173 1 min 0,000 mm 6,3 UV-I 817 W/m 10,5 C 6,4 km/h (2 Bft)
22.08.2016 14:23 18,3 C 18,4 C 59 % 1027,4 hPa 0,0 mm 2,6 km/h (1 Bft) W 260 1 min 0,000 mm 6,3 UV-I 812 W/m 10,1 C 6,4 km/h (2 Bft)
22.08.2016 14:24 18,3 C 18,3 C 60 % 1027,4 hPa 0,0 mm 7,5 km/h (2 Bft) W 261 1 min 0,000 mm 6,3 UV-I 814 W/m 10,4 C 11,3 km/h (2 Bft)
22.08.2016 14:25 18,4 C 18,4 C 61 % 1027,4 hPa 0,0 mm 12,3 km/h (3 Bft) SW 233 1 min 0,000 mm 6,3 UV-I 814 W/m 10,7 C 16,1 km/h (3 Bft)
22.08.2016 14:26 18,4 C 18,4 C 58 % 1027,4 hPa 0,0 mm 8,0 km/h (2 Bft) S-SW 192 1 min 0,000 mm 6,2 UV-I 812 W/m 10,0 C 12,9 km/h (3 Bft)
22.08.2016 14:27 18,3 C 18,4 C 55 % 1027,4 hPa 0,0 mm 2,4 km/h (1 Bft) SO 125 1 min 0,000 mm 6,3 UV-I 821 W/m 9,1 C 4,8 km/h (1 Bft)
22.08.2016 14:28 18,3 C 18,3 C 61 % 1027,4 hPa 0,0 mm 2,6 km/h (1 Bft) W 271 1 min 0,000 mm 6,3 UV-I 816 W/m 10,6 C 4,8 km/h (1 Bft)
22.08.2016 14:29 18,3 C 18,3 C 60 % 1027,4 hPa 0,0 mm 5,0 km/h (1 Bft) W-NW 288 1 min 0,000 mm 6,2 UV-I 819 W/m 10,4 C 9,7 km/h (2 Bft)
22.08.2016 14:30 18,2 C 18,3 C 57 % 1027,4 hPa 0,0 mm 7,3 km/h (2 Bft) W 262 1 min 0,000 mm 6,1 UV-I 816 W/m 9,5 C 11,3 km/h (2 Bft)
22.08.2016 14:31 18,1 C 18,2 C 61 % 1027,4 hPa 0,0 mm 4,7 km/h (1 Bft) W 279 1 min 0,000 mm 6,0 UV-I 788 W/m 10,5 C 6,4 km/h (2 Bft)
22.08.2016 14:32 17,9 C 18,1 C 54 % 1027,4 hPa 0,0 mm 2,0 km/h (1 Bft) W 279 1 min 0,000 mm 6,1 UV-I 812 W/m 8,5 C 3,2 km/h (1 Bft)
22.08.2016 14:33 17,9 C 17,9 C 57 % 1027,4 hPa 0,0 mm 1,7 km/h (1 Bft) W 279 1 min 0,000 mm 6,1 UV-I 817 W/m 9,3 C 3,2 km/h (1 Bft)
22.08.2016 14:34 17,9 C 17,9 C 57 % 1027,4 hPa 0,0 mm 3,0 km/h (1 Bft) NW 311 1 min 0,000 mm 6,1 UV-I 817 W/m 9,3 C 4,8 km/h (1 Bft)
22.08.2016 14:35 17,9 C 17,9 C 58 % 1027,5 hPa 0,0 mm 4,5 km/h (1 Bft) W 261 1 min 0,000 mm 6,1 UV-I 817 W/m 9,5 C 6,4 km/h (2 Bft)
22.08.2016 14:36 17,9 C 17,9 C 58 % 1027,4 hPa 0,0 mm 2,5 km/h (1 Bft) W-NW 302 1 min 0,000 mm 5,7 UV-I 784 W/m 9,5 C 4,8 km/h (1 Bft)
22.08.2016 14:37 18,0 C 18,0 C 58 % 1027,4 hPa 0,0 mm 0,8 km/h (0 Bft) SW 227 1 min 0,000 mm 6,1 UV-I 800 W/m 9,6 C 1,6 km/h (1 Bft)
22.08.2016 14:38 18,1 C 18,1 C 60 % 1027,4 hPa 0,0 mm 2,4 km/h (1 Bft) NW 304 1 min 0,000 mm 6,1 UV-I 817 W/m 10,2 C 6,4 km/h (2 Bft)
22.08.2016 14:39 18,1 C 18,1 C 56 % 1027,4 hPa 0,0 mm 2,3 km/h (1 Bft) NW 325 1 min 0,000 mm 6,1 UV-I 817 W/m 9,2 C 4,8 km/h (1 Bft)
22.08.2016 14:40 18,1 C 18,1 C 58 % 1027,4 hPa 0,0 mm 4,2 km/h (1 Bft) N 355 1 min 0,000 mm 6,1 UV-I 817 W/m 9,7 C 6,4 km/h (2 Bft)
22.08.2016 14:41 18,0 C 18,1 C 53 % 1027,4 hPa 0,0 mm 5,2 km/h (1 Bft) N 5 1 min 0,000 mm 6,0 UV-I 821 W/m 8,3 C 8,0 km/h (2 Bft)
22.08.2016 14:42 17,9 C 18,0 C 55 % 1027,4 hPa 0,0 mm 5,2 km/h (1 Bft) N-NO 15 1 min 0,000 mm 5,9 UV-I 817 W/m 8,7 C 8,0 km/h (2 Bft)
22.08.2016 14:43 17,8 C 17,9 C 55 % 1027,3 hPa 0,0 mm 3,6 km/h (1 Bft) O 79 1 min 0,000 mm 5,9 UV-I 826 W/m 8,6 C 6,4 km/h (2 Bft)
22.08.2016 14:44 17,7 C 17,8 C 59 % 1027,4 hPa 0,0 mm 4,4 km/h (1 Bft) SO 134 1 min 0,000 mm 6,0 UV-I 844 W/m 9,6 C 4,8 km/h (1 Bft)
22.08.2016 14:45 17,7 C 17,7 C 55 % 1027,3 hPa 0,0 mm 1,7 km/h (1 Bft) N 5 1 min 0,000 mm 5,1 UV-I 744 W/m 8,5 C 4,8 km/h (1 Bft)
22.08.2016 14:46 17,7 C 17,7 C 58 % 1027,4 hPa 0,0 mm 2,0 km/h (1 Bft) N 5 1 min 0,000 mm 5,9 UV-I 744 W/m 9,3 C 3,2 km/h (1 Bft)
22.08.2016 14:47 17,7 C 17,7 C 55 % 1027,3 hPa 0,0 mm 2,3 km/h (1 Bft) N-NW 340 1 min 0,000 mm 5,9 UV-I 828 W/m 8,5 C 4,8 km/h (1 Bft)
22.08.2016 14:48 17,9 C 17,9 C 60 % 1027,3 hPa 0,0 mm 2,0 km/h (1 Bft) W 277 1 min 0,000 mm 5,9 UV-I 826 W/m 10,0 C 4,8 km/h (1 Bft)
22.08.2016 14:49 18,1 C 18,1 C 56 % 1027,3 hPa 0,0 mm 3,8 km/h (1 Bft) NW 311 1 min 0,000 mm 6,0 UV-I 840 W/m 9,2 C 6,4 km/h (2 Bft)
22.08.2016 14:50 18,1 C 18,1 C 57 % 1027,3 hPa 0,0 mm 6,1 km/h (2 Bft) N 351 1 min 0,000 mm 6,0 UV-I 851 W/m 9,4 C 8,0 km/h (2 Bft)
22.08.2016 14:51 18,3 C 18,3 C 60 % 1027,3 hPa 0,0 mm 5,4 km/h (1 Bft) N-NW 343 1 min 0,000 mm 6,0 UV-I 842 W/m 10,4 C 8,0 km/h (2 Bft)
22.08.2016 14:52 18,4 C 18,4 C 61 % 1027,4 hPa 0,0 mm 6,8 km/h (2 Bft) W-NW 288 1 min 0,000 mm 5,8 UV-I 833 W/m 10,7 C 11,3 km/h (2 Bft)
22.08.2016 14:53 18,4 C 18,5 C 56 % 1027,4 hPa 0,0 mm 5,2 km/h (1 Bft) W-NW 299 1 min 0,000 mm 5,8 UV-I 847 W/m 9,5 C 11,3 km/h (2 Bft)
22.08.2016 14:54 18,5 C 18,5 C 55 % 1027,4 hPa 0,0 mm 9,8 km/h (2 Bft) W 281 1 min 0,000 mm 5,8 UV-I 853 W/m 9,3 C 12,9 km/h (3 Bft)
22.08.2016 14:55 18,4 C 18,5 C 55 % 1027,4 hPa 0,0 mm 5,4 km/h (1 Bft) NW 306 1 min 0,000 mm 5,7 UV-I 863 W/m 9,2 C 9,7 km/h (2 Bft)
22.08.2016 14:56 18,4 C 18,4 C 54 % 1027,3 hPa 0,0 mm 2,3 km/h (1 Bft) N-NW 346 1 min 0,000 mm 5,5 UV-I 861 W/m 8,9 C 4,8 km/h (1 Bft)
22.08.2016 14:57 18,4 C 18,4 C 57 % 1027,3 hPa 0,0 mm 2,4 km/h (1 Bft) W-SW 237 1 min 0,000 mm 3,4 UV-I 861 W/m 9,7 C 6,4 km/h (2 Bft)
22.08.2016 14:58 18,3 C 18,4 C 61 % 1027,3 hPa 0,0 mm 6,9 km/h (2 Bft) W 259 1 min 0,000 mm 5,0 UV-I 861 W/m 10,6 C 9,7 km/h (2 Bft)
22.08.2016 14:59 18,2 C 18,3 C 54 % 1027,2 hPa 0,0 mm 4,8 km/h (1 Bft) W 277 1 min 0,000 mm 5,3 UV-I 861 W/m 8,7 C 6,4 km/h (2 Bft)
22.08.2016 15:00 18,2 C 18,2 C 55 % 1027,2 hPa 0,0 mm 2,1 km/h (1 Bft) W 277 1 min 0,000 mm 5,2 UV-I 830 W/m 9,0 C 4,8 km/h (1 Bft)
22.08.2016 15:01 18,2 C 18,2 C 60 % 1027,3 hPa 0,0 mm 1,3 km/h (1 Bft) NW 325 1 min 0,457 mm 5,1 UV-I 786 W/m 10,3 C 3,2 km/h (1 Bft)
22.08.2016 15:02 18,2 C 18,2 C 55 % 1027,2 hPa 0,0 mm 2,5 km/h (1 Bft) W-SW 254 1 min 0,000 mm 5,0 UV-I 772 W/m 9,0 C 4,8 km/h (1 Bft)
22.08.2016 15:03 18,3 C 18,3 C 58 % 1027,2 hPa 0,0 mm 3,2 km/h (1 Bft) W-NW 293 1 min 0,000 mm 5,0 UV-I 756 W/m 9,9 C 4,8 km/h (1 Bft)
22.08.2016 15:04 18,3 C 18,3 C 55 % 1027,2 hPa 0,0 mm 6,6 km/h (2 Bft) W 279 1 min 0,000 mm 5,0 UV-I 733 W/m 9,1 C 11,3 km/h (2 Bft)
22.08.2016 15:05 18,3 C 18,4 C 59 % 1027,1 hPa 0,0 mm 6,2 km/h (2 Bft) W 265 1 min 0,000 mm 5,0 UV-I 756 W/m 10,1 C 9,7 km/h (2 Bft)
22.08.2016 15:06 18,3 C 18,3 C 59 % 1027,1 hPa 0,0 mm 6,3 km/h (2 Bft) W-SW 248 1 min 0,000 mm 5,0 UV-I 775 W/m 10,1 C 8,0 km/h (2 Bft)
22.08.2016 15:07 18,2 C 18,3 C 56 % 1027,1 hPa 0,0 mm 6,6 km/h (2 Bft) NW 311 1 min 0,000 mm 5,0 UV-I 786 W/m 9,3 C 9,7 km/h (2 Bft)
22.08.2016 15:08 18,2 C 18,2 C 56 % 1027,1 hPa 0,0 mm 3,1 km/h (1 Bft) W-NW 286 1 min 0,000 mm 4,9 UV-I 628 W/m 9,3 C 8,0 km/h (2 Bft)
22.08.2016 15:09 18,2 C 18,2 C 55 % 1027,1 hPa 0,0 mm 2,2 km/h (1 Bft) SW 236 1 min 0,000 mm 4,9 UV-I 628 W/m 9,0 C 4,8 km/h (1 Bft)
22.08.2016 15:10 18,3 C 18,3 C 61 % 1027,1 hPa 0,0 mm 3,9 km/h (1 Bft) W 272 1 min 0,000 mm 5,0 UV-I 796 W/m 10,6 C 4,8 km/h (1 Bft)
22.08.2016 15:11 18,4 C 18,4 C 61 % 1027,1 hPa 0,0 mm 3,5 km/h (1 Bft) SW 230 1 min 0,000 mm 2,8 UV-I 796 W/m 10,7 C 4,8 km/h (1 Bft)
22.08.2016 15:12 18,3 C 18,4 C 55 % 1027,1 hPa 0,0 mm 5,6 km/h (1 Bft) SW 235 0 min 0,000 mm 2,7 UV-I 153 W/m 9,1 C 9,7 km/h (2 Bft)
22.08.2016 15:13 18,2 C 18,3 C 59 % 1027,1 hPa 0,0 mm 6,1 km/h (2 Bft) W-NW 300 0 min 0,000 mm 4,0 UV-I 153 W/m 10,1 C 11,3 km/h (2 Bft)
22.08.2016 15:14 18,2 C 18,2 C 60 % 1027,1 hPa 0,0 mm 5,7 km/h (1 Bft) W 274 1 min 0,000 mm 4,8 UV-I 770 W/m 10,3 C 9,7 km/h (2 Bft)
22.08.2016 15:15 18,2 C 18,2 C 57 % 1027,1 hPa 0,0 mm 4,6 km/h (1 Bft) W-SW 237 1 min 0,000 mm 4,9 UV-I 740 W/m 9,5 C 9,7 km/h (2 Bft)
22.08.2016 15:16 18,2 C 18,2 C 63 % 1027,1 hPa 0,0 mm 6,3 km/h (2 Bft) SW 236 1 min 0,000 mm 4,9 UV-I 777 W/m 11,0 C 11,3 km/h (2 Bft)
22.08.2016 15:17 18,3 C 18,3 C 58 % 1027,1 hPa 0,0 mm 5,3 km/h (1 Bft) W-SW 238 1 min 0,000 mm 4,8 UV-I 761 W/m 9,9 C 8,0 km/h (2 Bft)
22.08.2016 15:18 18,4 C 18,4 C 56 % 1027,0 hPa 0,0 mm 2,8 km/h (1 Bft) S-SW 202 1 min 0,000 mm 4,7 UV-I 761 W/m 9,5 C 4,8 km/h (1 Bft)
22.08.2016 15:19 18,4 C 18,4 C 55 % 1026,9 hPa 0,0 mm 1,5 km/h (1 Bft) S-SW 209 1 min 0,000 mm 3,9 UV-I 735 W/m 9,2 C 4,8 km/h (1 Bft)
22.08.2016 15:20 18,3 C 18,4 C 57 % 1026,8 hPa 0,0 mm 4,4 km/h (1 Bft) W-SW 248 0 min 0,000 mm 2,7 UV-I 172 W/m 9,6 C 6,4 km/h (2 Bft)
22.08.2016 15:21 18,2 C 18,3 C 56 % 1026,8 hPa 0,0 mm 12,3 km/h (3 Bft) W-NW 300 0 min 0,000 mm 2,7 UV-I 190 W/m 9,3 C 16,1 km/h (3 Bft)
22.08.2016 15:22 18,1 C 18,2 C 60 % 1026,8 hPa 0,0 mm 7,7 km/h (2 Bft) W 273 0 min 0,000 mm 2,9 UV-I 214 W/m 10,2 C 14,5 km/h (3 Bft)
22.08.2016 15:23 17,9 C 18,1 C 58 % 1026,8 hPa 0,0 mm 4,2 km/h (1 Bft) W 278 0 min 0,000 mm 3,1 UV-I 202 W/m 9,5 C 6,4 km/h (2 Bft)
22.08.2016 15:24 17,8 C 17,9 C 58 % 1026,8 hPa 0,0 mm 4,6 km/h (1 Bft) N-NW 333 0 min 0,000 mm 4,7 UV-I 202 W/m 9,4 C 8,0 km/h (2 Bft)
22.08.2016 15:25 17,8 C 17,8 C 59 % 1026,8 hPa 0,0 mm 8,7 km/h (2 Bft) W-SW 252 1 min 0,000 mm 4,8 UV-I 663 W/m 9,7 C 12,9 km/h (3 Bft)
22.08.2016 15:26 17,8 C 17,8 C 57 % 1026,8 hPa 0,0 mm 6,4 km/h (2 Bft) N-NW 346 1 min 0,000 mm 4,6 UV-I 624 W/m 9,2 C 9,7 km/h (2 Bft)
22.08.2016 15:27 17,9 C 17,9 C 59 % 1026,8 hPa 0,0 mm 7,5 km/h (2 Bft) NW 321 1 min 0,000 mm 4,6 UV-I 640 W/m 9,8 C 11,3 km/h (2 Bft)
22.08.2016 15:28 18,2 C 18,2 C 60 % 1026,8 hPa 0,0 mm 2,7 km/h (1 Bft) NO 39 1 min 0,000 mm 4,0 UV-I 640 W/m 10,3 C 4,8 km/h (1 Bft)
22.08.2016 15:29 18,2 C 18,2 C 58 % 1026,9 hPa 0,0 mm 4,3 km/h (1 Bft) N-NW 341 1 min 0,000 mm 4,7 UV-I 640 W/m 9,8 C 8,0 km/h (2 Bft)
22.08.2016 15:30 18,4 C 18,4 C 58 % 1026,9 hPa 0,0 mm 6,2 km/h (2 Bft) N 355 1 min 0,000 mm 4,7 UV-I 647 W/m 10,0 C 14,5 km/h (3 Bft)
22.08.2016 15:31 18,6 C 18,6 C 57 % 1026,9 hPa 0,0 mm 4,6 km/h (1 Bft) N-NW 336 1 min 0,000 mm 4,8 UV-I 687 W/m 9,9 C 8,0 km/h (2 Bft)
22.08.2016 15:32 18,6 C 18,6 C 58 % 1026,9 hPa 0,0 mm 7,2 km/h (2 Bft) NW 305 1 min 0,000 mm 4,9 UV-I 640 W/m 10,2 C 11,3 km/h (2 Bft)
22.08.2016 15:33 18,6 C 18,6 C 59 % 1026,9 hPa 0,0 mm 4,8 km/h (1 Bft) W-NW 300 1 min 0,000 mm 4,5 UV-I 577 W/m 10,4 C 6,4 km/h (2 Bft)
22.08.2016 15:34 18,5 C 18,6 C 55 % 1026,8 hPa 0,0 mm 3,9 km/h (1 Bft) W-NW 296 1 min 0,000 mm 5,0 UV-I 577 W/m 9,3 C 6,4 km/h (2 Bft)
22.08.2016 15:35 18,4 C 18,5 C 59 % 1026,9 hPa 0,0 mm 7,2 km/h (2 Bft) N-NO 17 1 min 0,000 mm 4,9 UV-I 722 W/m 10,2 C 12,9 km/h (3 Bft)
22.08.2016 15:36 18,4 C 18,4 C 57 % 1027,0 hPa 0,0 mm 7,3 km/h (2 Bft) N 360 1 min 0,000 mm 5,1 UV-I 761 W/m 9,7 C 12,9 km/h (3 Bft)
22.08.2016 15:37 18,6 C 18,6 C 58 % 1027,0 hPa 0,0 mm 6,2 km/h (2 Bft) N-NW 331 1 min 0,000 mm 5,1 UV-I 765 W/m 10,2 C 8,0 km/h (2 Bft)
22.08.2016 15:38 18,7 C 18,7 C 61 % 1027,1 hPa 0,0 mm 5,9 km/h (2 Bft) N 355 1 min 0,000 mm 5,1 UV-I 761 W/m 11,0 C 8,0 km/h (2 Bft)
22.08.2016 15:39 18,8 C 18,8 C 57 % 1027,1 hPa 0,0 mm 5,3 km/h (1 Bft) N 355 1 min 0,000 mm 4,7 UV-I 691 W/m 10,1 C 8,0 km/h (2 Bft)
22.08.2016 15:40 18,7 C 18,8 C 55 % 1027,1 hPa 0,0 mm 3,2 km/h (1 Bft) SW 231 1 min 0,000 mm 4,9 UV-I 754 W/m 9,5 C 4,8 km/h (1 Bft)
22.08.2016 15:41 18,6 C 18,7 C 55 % 1027,1 hPa 0,0 mm 2,7 km/h (1 Bft) W-NW 296 1 min 0,000 mm 4,6 UV-I 696 W/m 9,4 C 4,8 km/h (1 Bft)
22.08.2016 15:42 18,6 C 18,7 C 54 % 1027,1 hPa 0,0 mm 6,8 km/h (2 Bft) W 275 1 min 0,000 mm 4,8 UV-I 729 W/m 9,1 C 9,7 km/h (2 Bft)
22.08.2016 15:43 18,5 C 18,6 C 56 % 1027,1 hPa 0,0 mm 3,2 km/h (1 Bft) W-NW 303 1 min 0,000 mm 4,8 UV-I 729 W/m 9,6 C 6,4 km/h (2 Bft)
22.08.2016 15:44 18,5 C 18,5 C 56 % 1027,1 hPa 0,0 mm 5,2 km/h (1 Bft) NW 309 1 min 0,000 mm 4,8 UV-I 719 W/m 9,6 C 9,7 km/h (2 Bft)
22.08.2016 15:45 18,6 C 18,6 C 59 % 1027,2 hPa 0,0 mm 8,8 km/h (2 Bft) NW 312 1 min 0,000 mm 4,8 UV-I 719 W/m 10,4 C 11,3 km/h (2 Bft)
22.08.2016 15:46 18,6 C 18,6 C 59 % 1027,1 hPa 0,0 mm 7,8 km/h (2 Bft) W-NW 302 1 min 0,000 mm 4,8 UV-I 714 W/m 10,4 C 12,9 km/h (3 Bft)
22.08.2016 15:47 18,6 C 18,6 C 58 % 1027,2 hPa 0,0 mm 8,2 km/h (2 Bft) W 260 1 min 0,000 mm 4,7 UV-I 705 W/m 10,2 C 12,9 km/h (3 Bft)
22.08.2016 15:48 18,6 C 18,6 C 56 % 1027,2 hPa 0,0 mm 6,4 km/h (2 Bft) NW 315 1 min 0,000 mm 4,7 UV-I 696 W/m 9,6 C 12,9 km/h (3 Bft)
22.08.2016 15:49 18,7 C 18,7 C 56 % 1027,2 hPa 0,0 mm 12,8 km/h (3 Bft) NW 319 1 min 0,000 mm 4,6 UV-I 686 W/m 9,7 C 17,7 km/h (3 Bft)
22.08.2016 15:50 18,7 C 18,7 C 56 % 1027,3 hPa 0,0 mm 9,4 km/h (2 Bft) NW 324 1 min 0,000 mm 4,6 UV-I 675 W/m 9,7 C 14,5 km/h (3 Bft)
22.08.2016 15:51 18,7 C 18,7 C 55 % 1027,2 hPa 0,0 mm 7,4 km/h (2 Bft) NW 314 1 min 0,000 mm 4,5 UV-I 684 W/m 9,5 C 12,9 km/h (3 Bft)
22.08.2016 15:52 18,7 C 18,7 C 55 % 1027,2 hPa 0,0 mm 10,1 km/h (2 Bft) NW 315 1 min 0,000 mm 4,6 UV-I 696 W/m 9,5 C 12,9 km/h (3 Bft)
22.08.2016 15:53 18,7 C 18,7 C 58 % 1027,2 hPa 0,0 mm 4,7 km/h (1 Bft) W 281 1 min 0,000 mm 4,3 UV-I 691 W/m 10,3 C 6,4 km/h (2 Bft)
22.08.2016 15:54 18,6 C 18,7 C 55 % 1027,2 hPa 0,0 mm 5,9 km/h (2 Bft) W 279 1 min 0,000 mm 4,5 UV-I 677 W/m 9,4 C 11,3 km/h (2 Bft)
22.08.2016 15:55 18,5 C 18,6 C 54 % 1027,2 hPa 0,0 mm 10,1 km/h (2 Bft) W 280 1 min 0,000 mm 4,5 UV-I 680 W/m 9,0 C 14,5 km/h (3 Bft)
22.08.2016 15:56 18,4 C 18,5 C 55 % 1027,2 hPa 0,0 mm 9,1 km/h (2 Bft) W-NW 283 1 min 0,000 mm 4,5 UV-I 677 W/m 9,2 C 12,9 km/h (3 Bft)
22.08.2016 15:57 18,4 C 18,4 C 55 % 1027,2 hPa 0,0 mm 3,4 km/h (1 Bft) W-NW 302 1 min 0,000 mm 4,5 UV-I 671 W/m 9,2 C 4,8 km/h (1 Bft)
22.08.2016 15:58 18,4 C 18,4 C 55 % 1027,2 hPa 0,0 mm 3,1 km/h (1 Bft) N-NW 328 1 min 0,000 mm 4,4 UV-I 661 W/m 9,2 C 4,8 km/h (1 Bft)
22.08.2016 15:59 18,4 C 18,4 C 55 % 1027,1 hPa 0,0 mm 1,7 km/h (1 Bft) N-NW 328 1 min 0,000 mm 4,4 UV-I 654 W/m 9,2 C 3,2 km/h (1 Bft)
22.08.2016 16:00 18,4 C 18,4 C 56 % 1027,2 hPa 0,0 mm 4,2 km/h (1 Bft) W-NW 286 1 min 0,000 mm 3,3 UV-I 654 W/m 9,5 C 11,3 km/h (2 Bft)
22.08.2016 16:01 18,3 C 18,4 C 57 % 1027,1 hPa 0,0 mm 7,3 km/h (2 Bft) W-SW 247 1 min 0,406 mm 4,3 UV-I 640 W/m 9,6 C 14,5 km/h (3 Bft)
22.08.2016 16:02 18,4 C 18,4 C 58 % 1027,2 hPa 0,0 mm 10,3 km/h (2 Bft) W-NW 284 1 min 0,001 mm 4,3 UV-I 636 W/m 10,0 C 14,5 km/h (3 Bft)
22.08.2016 16:03 18,3 C 18,4 C 55 % 1027,2 hPa 0,0 mm 7,4 km/h (2 Bft) W-NW 298 1 min 0,000 mm 4,3 UV-I 636 W/m 9,1 C 11,3 km/h (2 Bft)
22.08.2016 16:04 18,3 C 18,3 C 56 % 1027,2 hPa 0,0 mm 5,6 km/h (1 Bft) N 350 1 min 0,000 mm 4,3 UV-I 640 W/m 9,4 C 8,0 km/h (2 Bft)
22.08.2016 16:05 18,3 C 18,3 C 58 % 1027,2 hPa 0,0 mm 4,4 km/h (1 Bft) NW 304 1 min 0,000 mm 4,3 UV-I 645 W/m 9,9 C 4,8 km/h (1 Bft)
22.08.2016 16:06 18,3 C 18,3 C 57 % 1027,2 hPa 0,0 mm 5,0 km/h (1 Bft) W 265 1 min 0,000 mm 4,3 UV-I 647 W/m 9,6 C 8,0 km/h (2 Bft)
22.08.2016 16:07 18,4 C 18,4 C 57 % 1027,2 hPa 0,0 mm 3,2 km/h (1 Bft) W-NW 302 1 min 0,000 mm 4,3 UV-I 643 W/m 9,7 C 4,8 km/h (1 Bft)
22.08.2016 16:08 18,4 C 18,4 C 59 % 1027,2 hPa 0,0 mm 2,4 km/h (1 Bft) W-NW 301 1 min 0,000 mm 4,2 UV-I 640 W/m 10,2 C 4,8 km/h (1 Bft)
22.08.2016 16:09 18,6 C 18,6 C 58 % 1027,2 hPa 0,0 mm 7,9 km/h (2 Bft) W 268 1 min 0,000 mm 4,2 UV-I 636 W/m 10,2 C 11,3 km/h (2 Bft)
22.08.2016 16:10 18,7 C 18,7 C 59 % 1027,2 hPa 0,0 mm 12,7 km/h (3 Bft) W 279 1 min 0,000 mm 4,1 UV-I 626 W/m 10,5 C 17,7 km/h (3 Bft)
22.08.2016 16:11 18,7 C 18,7 C 58 % 1027,2 hPa 0,0 mm 11,1 km/h (2 Bft) NW 306 1 min 0,000 mm 4,1 UV-I 624 W/m 10,3 C 16,1 km/h (3 Bft)
22.08.2016 16:12 18,7 C 18,7 C 57 % 1027,2 hPa 0,0 mm 8,0 km/h (2 Bft) N-NW 327 1 min 0,000 mm 4,1 UV-I 612 W/m 10,0 C 16,1 km/h (3 Bft)
22.08.2016 16:13 18,6 C 18,7 C 56 % 1027,2 hPa 0,0 mm 9,0 km/h (2 Bft) W-NW 303 1 min 0,000 mm 4,0 UV-I 612 W/m 9,6 C 14,5 km/h (3 Bft)
22.08.2016 16:14 18,6 C 18,6 C 59 % 1027,2 hPa 0,0 mm 12,5 km/h (3 Bft) W-NW 290 1 min 0,000 mm 4,0 UV-I 610 W/m 10,4 C 19,3 km/h (3 Bft)
22.08.2016 16:15 18,6 C 18,6 C 58 % 1027,2 hPa 0,0 mm 11,1 km/h (2 Bft) NW 320 1 min 0,000 mm 4,0 UV-I 601 W/m 10,2 C 16,1 km/h (3 Bft)
22.08.2016 16:16 18,6 C 18,6 C 59 % 1027,2 hPa 0,0 mm 9,3 km/h (2 Bft) N 355 1 min 0,000 mm 3,4 UV-I 601 W/m 10,4 C 17,7 km/h (3 Bft)
22.08.2016 16:17 18,6 C 18,6 C 61 % 1027,2 hPa 0,0 mm 9,1 km/h (2 Bft) W-NW 302 1 min 0,000 mm 2,7 UV-I 601 W/m 10,9 C 16,1 km/h (3 Bft)
22.08.2016 16:18 18,6 C 18,6 C 58 % 1027,3 hPa 0,0 mm 8,0 km/h (2 Bft) W-NW 284 0 min 0,000 mm 2,9 UV-I 181 W/m 10,2 C 12,9 km/h (3 Bft)
22.08.2016 16:19 18,5 C 18,6 C 58 % 1027,3 hPa 0,0 mm 6,3 km/h (2 Bft) W-NW 301 0 min 0,000 mm 3,0 UV-I 271 W/m 10,1 C 12,9 km/h (3 Bft)
22.08.2016 16:20 18,5 C 18,5 C 60 % 1027,3 hPa 0,0 mm 6,7 km/h (2 Bft) W 277 0 min 0,000 mm 3,6 UV-I 211 W/m 10,6 C 11,3 km/h (2 Bft)
22.08.2016 16:21 18,4 C 18,5 C 57 % 1027,3 hPa 0,0 mm 11,9 km/h (2 Bft) W-NW 284 0 min 0,000 mm 2,5 UV-I 125 W/m 9,7 C 16,1 km/h (3 Bft)
22.08.2016 16:22 18,4 C 18,4 C 56 % 1027,3 hPa 0,0 mm 10,1 km/h (2 Bft) NW 306 0 min 0,000 mm 2,1 UV-I 76 W/m 9,5 C 14,5 km/h (3 Bft)
22.08.2016 16:23 18,4 C 18,4 C 59 % 1027,3 hPa 0,0 mm 5,0 km/h (1 Bft) W-SW 243 0 min 0,000 mm 0,0 UV-I 51 W/m 10,2 C 9,7 km/h (2 Bft)
22.08.2016 16:24 18,4 C 18,4 C 59 % 1027,3 hPa 0,0 mm 7,1 km/h (2 Bft) SW 236 0 min 0,000 mm 0,0 UV-I 49 W/m 10,2 C 11,3 km/h (2 Bft)
22.08.2016 16:25 18,3 C 18,4 C 58 % 1027,3 hPa 0,0 mm 9,4 km/h (2 Bft) W 273 0 min 0,000 mm 0,0 UV-I 49 W/m 9,9 C 12,9 km/h (3 Bft)
22.08.2016 16:26 18,2 C 18,3 C 57 % 1027,2 hPa 0,0 mm 6,4 km/h (2 Bft) W-SW 244 0 min 0,000 mm 0,0 UV-I 47 W/m 9,5 C 9,7 km/h (2 Bft)
22.08.2016 16:27 18,2 C 18,2 C 57 % 1027,2 hPa 0,0 mm 6,0 km/h (2 Bft) W 267 0 min 0,000 mm 0,0 UV-I 49 W/m 9,5 C 9,7 km/h (2 Bft)
22.08.2016 16:28 18,1 C 18,2 C 58 % 1027,2 hPa 0,0 mm 7,3 km/h (2 Bft) SW 228 0 min 0,000 mm 0,0 UV-I 51 W/m 9,7 C 9,7 km/h (2 Bft)
22.08.2016 16:29 18,1 C 18,1 C 61 % 1027,2 hPa 0,0 mm 5,5 km/h (1 Bft) SW 229 0 min 0,000 mm 0,0 UV-I 54 W/m 10,5 C 9,7 km/h (2 Bft)
22.08.2016 16:30 18,1 C 18,1 C 58 % 1027,2 hPa 0,0 mm 4,2 km/h (1 Bft) W 271 0 min 0,000 mm 1,8 UV-I 54 W/m 9,7 C 6,4 km/h (2 Bft)
22.08.2016 16:31 18,1 C 18,1 C 56 % 1027,2 hPa 0,0 mm 3,3 km/h (1 Bft) W 267 0 min 0,000 mm 0,0 UV-I 51 W/m 9,2 C 6,4 km/h (2 Bft)
22.08.2016 16:32 18,1 C 18,1 C 56 % 1027,3 hPa 0,0 mm 3,5 km/h (1 Bft) W-SW 250 0 min 0,000 mm 0,0 UV-I 46 W/m 9,2 C 4,8 km/h (1 Bft)
22.08.2016 16:33 18,0 C 18,1 C 57 % 1027,3 hPa 0,0 mm 5,3 km/h (1 Bft) W-SW 242 0 min 0,000 mm 0,0 UV-I 46 W/m 9,4 C 9,7 km/h (2 Bft)
22.08.2016 16:34 18,0 C 18,1 C 59 % 1027,2 hPa 0,0 mm 6,3 km/h (2 Bft) W-SW 248 0 min 0,000 mm 0,0 UV-I 49 W/m 9,9 C 8,0 km/h (2 Bft)
22.08.2016 16:35 18,0 C 18,0 C 57 % 1027,2 hPa 0,0 mm 3,1 km/h (1 Bft) N 5 0 min 0,000 mm 1,7 UV-I 56 W/m 9,4 C 4,8 km/h (1 Bft)
22.08.2016 16:36 18,1 C 18,1 C 58 % 1027,3 hPa 0,0 mm 5,6 km/h (1 Bft) NO 53 0 min 0,000 mm 1,7 UV-I 56 W/m 9,7 C 8,0 km/h (2 Bft)
22.08.2016 16:37 18,2 C 18,2 C 58 % 1027,2 hPa 0,0 mm 6,8 km/h (2 Bft) N 355 0 min 0,000 mm 1,7 UV-I 58 W/m 9,8 C 14,5 km/h (3 Bft)
22.08.2016 16:38 18,3 C 18,3 C 58 % 1027,3 hPa 0,0 mm 8,6 km/h (2 Bft) NW 304 0 min 0,000 mm 1,7 UV-I 65 W/m 9,9 C 16,1 km/h (3 Bft)
22.08.2016 16:39 18,4 C 18,4 C 59 % 1027,3 hPa 0,0 mm 10,7 km/h (2 Bft) W 279 0 min 0,000 mm 1,7 UV-I 77 W/m 10,2 C 16,1 km/h (3 Bft)
22.08.2016 16:40 18,5 C 18,5 C 59 % 1027,3 hPa 0,0 mm 11,7 km/h (2 Bft) NW 315 0 min 0,000 mm 1,8 UV-I 86 W/m 10,3 C 14,5 km/h (3 Bft)
22.08.2016 16:41 18,5 C 18,5 C 58 % 1027,3 hPa 0,0 mm 10,0 km/h (2 Bft) W-NW 295 0 min 0,000 mm 1,8 UV-I 90 W/m 10,1 C 14,5 km/h (3 Bft)
22.08.2016 16:42 18,4 C 18,5 C 58 % 1027,3 hPa 0,0 mm 7,2 km/h (2 Bft) NW 319 0 min 0,000 mm 1,8 UV-I 77 W/m 10,0 C 11,3 km/h (2 Bft)
22.08.2016 16:43 18,4 C 18,4 C 59 % 1027,3 hPa 0,0 mm 7,2 km/h (2 Bft) W-NW 294 0 min 0,000 mm 1,7 UV-I 72 W/m 10,2 C 11,3 km/h (2 Bft)
22.08.2016 16:44 18,3 C 18,4 C 58 % 1027,3 hPa 0,0 mm 4,0 km/h (1 Bft) W-NW 295 0 min 0,000 mm 1,7 UV-I 69 W/m 9,9 C 6,4 km/h (2 Bft)
22.08.2016 16:45 18,3 C 18,3 C 58 % 1027,4 hPa 0,0 mm 4,2 km/h (1 Bft) N-NW 331 0 min 0,000 mm 1,7 UV-I 72 W/m 9,9 C 9,7 km/h (2 Bft)
22.08.2016 16:46 18,3 C 18,3 C 58 % 1027,4 hPa 0,0 mm 4,9 km/h (1 Bft) NW 326 0 min 0,000 mm 1,7 UV-I 74 W/m 9,9 C 8,0 km/h (2 Bft)
22.08.2016 16:47 18,3 C 18,4 C 58 % 1027,4 hPa 0,0 mm 3,9 km/h (1 Bft) N 355 0 min 0,000 mm 1,7 UV-I 74 W/m 9,9 C 6,4 km/h (2 Bft)
22.08.2016 16:48 18,3 C 18,3 C 59 % 1027,4 hPa 0,0 mm 5,4 km/h (1 Bft) W-SW 258 0 min 0,000 mm 1,6 UV-I 62 W/m 10,1 C 11,3 km/h (2 Bft)
22.08.2016 16:49 18,3 C 18,3 C 56 % 1027,3 hPa 0,0 mm 5,0 km/h (1 Bft) W-NW 294 0 min 0,000 mm 0,0 UV-I 54 W/m 9,4 C 6,4 km/h (2 Bft)
22.08.2016 16:50 18,3 C 18,3 C 57 % 1027,4 hPa 0,0 mm 6,0 km/h (2 Bft) NW 321 0 min 0,000 mm 0,0 UV-I 46 W/m 9,6 C 8,0 km/h (2 Bft)
22.08.2016 16:51 18,3 C 18,3 C 59 % 1027,4 hPa 0,0 mm 3,7 km/h (1 Bft) S-SO 164 0 min 0,000 mm 0,0 UV-I 47 W/m 10,1 C 6,4 km/h (2 Bft)
22.08.2016 16:52 18,2 C 18,3 C 58 % 1027,3 hPa 0,0 mm 3,1 km/h (1 Bft) W-NW 289 0 min 0,000 mm 0,0 UV-I 47 W/m 9,8 C 4,8 km/h (1 Bft)
22.08.2016 16:53 18,2 C 18,3 C 58 % 1027,3 hPa 0,0 mm 6,0 km/h (2 Bft) NW 309 0 min 0,000 mm 0,0 UV-I 47 W/m 9,8 C 12,9 km/h (3 Bft)
22.08.2016 16:54 18,3 C 18,3 C 61 % 1027,3 hPa 0,0 mm 8,2 km/h (2 Bft) NW 305 0 min 0,000 mm 0,0 UV-I 51 W/m 10,6 C 11,3 km/h (2 Bft)
22.08.2016 16:55 18,3 C 18,3 C 64 % 1027,3 hPa 0,0 mm 8,2 km/h (2 Bft) NW 313 0 min 0,000 mm 0,0 UV-I 49 W/m 11,4 C 12,9 km/h (3 Bft)
22.08.2016 16:56 18,4 C 18,4 C 61 % 1027,4 hPa 0,0 mm 8,4 km/h (2 Bft) NW 316 0 min 0,000 mm 0,0 UV-I 47 W/m 10,7 C 12,9 km/h (3 Bft)
22.08.2016 16:57 18,4 C 18,4 C 62 % 1027,4 hPa 0,0 mm 8,5 km/h (2 Bft) N-NW 334 0 min 0,000 mm 0,0 UV-I 47 W/m 11,0 C 14,5 km/h (3 Bft)
22.08.2016 16:58 18,6 C 18,6 C 61 % 1027,4 hPa 0,0 mm 7,0 km/h (2 Bft) NW 319 0 min 0,000 mm 0,0 UV-I 49 W/m 10,9 C 12,9 km/h (3 Bft)
22.08.2016 16:59 18,5 C 18,6 C 60 % 1027,5 hPa 0,0 mm 10,7 km/h (2 Bft) NW 305 0 min 0,000 mm 0,0 UV-I 44 W/m 10,6 C 14,5 km/h (3 Bft)
22.08.2016 17:00 18,6 C 18,6 C 58 % 1027,4 hPa 0,0 mm 8,6 km/h (2 Bft) W 267 0 min 0,000 mm 0,0 UV-I 42 W/m 10,2 C 12,9 km/h (3 Bft)
22.08.2016 17:01 18,4 C 18,6 C 58 % 1027,5 hPa 0,0 mm 7,6 km/h (2 Bft) NW 304 0 min 0,178 mm 1,5 UV-I 67 W/m 10,0 C 11,3 km/h (2 Bft)
22.08.2016 17:02 18,4 C 18,4 C 59 % 1027,5 hPa 0,0 mm 9,4 km/h (2 Bft) NW 317 0 min 0,000 mm 1,6 UV-I 114 W/m 10,2 C 16,1 km/h (3 Bft)
22.08.2016 17:03 18,4 C 18,4 C 60 % 1027,5 hPa 0,0 mm 6,8 km/h (2 Bft) NW 308 0 min 0,000 mm 1,6 UV-I 139 W/m 10,5 C 11,3 km/h (2 Bft)
22.08.2016 17:04 18,4 C 18,4 C 59 % 1027,5 hPa 0,0 mm 6,9 km/h (2 Bft) NW 325 0 min 0,000 mm 1,5 UV-I 98 W/m 10,2 C 9,7 km/h (2 Bft)
22.08.2016 17:05 18,4 C 18,4 C 58 % 1027,5 hPa 0,0 mm 7,0 km/h (2 Bft) NW 312 0 min 0,000 mm 1,5 UV-I 65 W/m 10,0 C 11,3 km/h (2 Bft)
22.08.2016 17:06 18,4 C 18,4 C 59 % 1027,5 hPa 0,0 mm 7,0 km/h (2 Bft) N-NW 342 0 min 0,000 mm 1,5 UV-I 51 W/m 10,2 C 11,3 km/h (2 Bft)
22.08.2016 17:07 18,4 C 18,4 C 60 % 1027,4 hPa 0,0 mm 6,6 km/h (2 Bft) W 277 0 min 0,000 mm 0,0 UV-I 47 W/m 10,5 C 11,3 km/h (2 Bft)
22.08.2016 17:08 18,3 C 18,4 C 60 % 1027,5 hPa 0,0 mm 4,8 km/h (1 Bft) W-NW 292 0 min 0,000 mm 0,0 UV-I 46 W/m 10,4 C 6,4 km/h (2 Bft)
22.08.2016 17:09 18,3 C 18,4 C 58 % 1027,5 hPa 0,0 mm 4,2 km/h (1 Bft) NW 311 0 min 0,000 mm 0,0 UV-I 44 W/m 9,9 C 4,8 km/h (1 Bft)
22.08.2016 17:10 18,2 C 18,3 C 60 % 1027,5 hPa 0,0 mm 5,1 km/h (1 Bft) NW 323 0 min 0,000 mm 0,0 UV-I 44 W/m 10,3 C 8,0 km/h (2 Bft)
22.08.2016 17:11 18,2 C 18,2 C 60 % 1027,5 hPa 0,0 mm 4,2 km/h (1 Bft) NW 307 0 min 0,000 mm 0,0 UV-I 42 W/m 10,3 C 8,0 km/h (2 Bft)
22.08.2016 17:12 18,2 C 18,2 C 59 % 1027,5 hPa 0,0 mm 7,6 km/h (2 Bft) W-NW 289 0 min 0,000 mm 0,0 UV-I 51 W/m 10,1 C 11,3 km/h (2 Bft)
22.08.2016 17:13 18,2 C 18,2 C 62 % 1027,6 hPa 0,0 mm 4,8 km/h (1 Bft) NW 306 0 min 0,000 mm 1,6 UV-I 84 W/m 10,8 C 6,4 km/h (2 Bft)
22.08.2016 17:14 18,2 C 18,2 C 58 % 1027,5 hPa 0,0 mm 5,0 km/h (1 Bft) N-NW 344 0 min 0,000 mm 1,4 UV-I 74 W/m 9,8 C 6,4 km/h (2 Bft)
22.08.2016 17:15 18,2 C 18,2 C 60 % 1027,5 hPa 0,0 mm 4,8 km/h (1 Bft) NW 306 0 min 0,000 mm 1,4 UV-I 58 W/m 10,3 C 8,0 km/h (2 Bft)
22.08.2016 17:16 18,2 C 18,2 C 59 % 1027,5 hPa 0,0 mm 4,4 km/h (1 Bft) NW 316 0 min 0,000 mm 0,0 UV-I 54 W/m 10,1 C 6,4 km/h (2 Bft)
22.08.2016 17:17 18,2 C 18,2 C 60 % 1027,4 hPa 0,0 mm 3,6 km/h (1 Bft) NW 306 0 min 0,000 mm 1,4 UV-I 62 W/m 10,3 C 6,4 km/h (2 Bft)
22.08.2016 17:18 18,2 C 18,2 C 59 % 1027,4 hPa 0,0 mm 2,7 km/h (1 Bft) NW 309 0 min 0,000 mm 1,4 UV-I 67 W/m 10,1 C 4,8 km/h (1 Bft)
22.08.2016 17:19 18,1 C 18,2 C 58 % 1027,4 hPa 0,0 mm 4,8 km/h (1 Bft) W-NW 286 0 min 0,000 mm 1,4 UV-I 67 W/m 9,7 C 6,4 km/h (2 Bft)
22.08.2016 17:20 18,1 C 18,1 C 59 % 1027,4 hPa 0,0 mm 4,5 km/h (1 Bft) W-NW 294 0 min 0,000 mm 1,4 UV-I 83 W/m 10,0 C 6,4 km/h (2 Bft)
22.08.2016 17:21 18,1 C 18,1 C 58 % 1027,4 hPa 0,0 mm 3,9 km/h (1 Bft) W-NW 298 0 min 0,000 mm 1,4 UV-I 81 W/m 9,7 C 6,4 km/h (2 Bft)
22.08.2016 17:22 18,1 C 18,1 C 61 % 1027,5 hPa 0,0 mm 5,6 km/h (1 Bft) N-NW 328 0 min 0,000 mm 1,4 UV-I 95 W/m 10,5 C 8,0 km/h (2 Bft)
22.08.2016 17:23 18,1 C 18,1 C 61 % 1027,5 hPa 0,0 mm 3,8 km/h (1 Bft) N 355 0 min 0,000 mm 1,4 UV-I 148 W/m 10,5 C 6,4 km/h (2 Bft)
22.08.2016 17:24 18,2 C 18,2 C 61 % 1027,5 hPa 0,0 mm 1,7 km/h (1 Bft) W-NW 286 0 min 0,000 mm 1,4 UV-I 135 W/m 10,6 C 3,2 km/h (1 Bft)
22.08.2016 17:25 18,2 C 18,2 C 61 % 1027,6 hPa 0,0 mm 4,1 km/h (1 Bft) W 267 0 min 0,000 mm 1,4 UV-I 100 W/m 10,6 C 4,8 km/h (1 Bft)
22.08.2016 17:26 18,2 C 18,2 C 59 % 1027,5 hPa 0,0 mm 3,6 km/h (1 Bft) W 267 0 min 0,000 mm 1,3 UV-I 84 W/m 10,1 C 4,8 km/h (1 Bft)
22.08.2016 17:27 18,2 C 18,2 C 60 % 1027,5 hPa 0,0 mm 4,9 km/h (1 Bft) NW 308 0 min 0,000 mm 1,3 UV-I 79 W/m 10,3 C 6,4 km/h (2 Bft)
22.08.2016 17:28 18,1 C 18,2 C 59 % 1027,5 hPa 0,0 mm 3,4 km/h (1 Bft) W 267 0 min 0,000 mm 1,3 UV-I 83 W/m 10,0 C 4,8 km/h (1 Bft)
22.08.2016 17:29 18,1 C 18,1 C 59 % 1027,5 hPa 0,0 mm 4,7 km/h (1 Bft) W 277 0 min 0,000 mm 1,3 UV-I 97 W/m 10,0 C 8,0 km/h (2 Bft)
22.08.2016 17:30 18,1 C 18,1 C 61 % 1027,5 hPa 0,0 mm 4,8 km/h (1 Bft) W 259 0 min 0,000 mm 1,3 UV-I 98 W/m 10,5 C 9,7 km/h (2 Bft)
22.08.2016 17:31 18,0 C 18,1 C 59 % 1027,6 hPa 0,0 mm 3,8 km/h (1 Bft) W-SW 246 0 min 0,000 mm 1,3 UV-I 95 W/m 9,9 C 4,8 km/h (1 Bft)
22.08.2016 17:32 17,9 C 18,0 C 60 % 1027,5 hPa 0,0 mm 4,4 km/h (1 Bft) NW 309 0 min 0,000 mm 1,3 UV-I 100 W/m 10,0 C 6,4 km/h (2 Bft)
22.08.2016 17:33 17,9 C 18,0 C 61 % 1027,6 hPa 0,0 mm 4,8 km/h (1 Bft) NW 309 0 min 0,000 mm 1,3 UV-I 104 W/m 10,3 C 8,0 km/h (2 Bft)
22.08.2016 17:34 17,9 C 18,0 C 61 % 1027,5 hPa 0,0 mm 7,2 km/h (2 Bft) NW 312 0 min 0,000 mm 1,3 UV-I 105 W/m 10,3 C 9,7 km/h (2 Bft)
22.08.2016 17:35 17,9 C 18,0 C 62 % 1027,6 hPa 0,0 mm 6,8 km/h (2 Bft) W 274 0 min 0,000 mm 1,2 UV-I 91 W/m 10,5 C 9,7 km/h (2 Bft)
22.08.2016 17:36 17,9 C 17,9 C 60 % 1027,6 hPa 0,0 mm 5,6 km/h (1 Bft) NW 308 0 min 0,000 mm 1,2 UV-I 88 W/m 10,0 C 8,0 km/h (2 Bft)
22.08.2016 17:37 17,8 C 17,9 C 59 % 1027,5 hPa 0,0 mm 3,8 km/h (1 Bft) W 281 0 min 0,000 mm 1,2 UV-I 98 W/m 9,7 C 6,4 km/h (2 Bft)
22.08.2016 17:38 17,8 C 17,8 C 61 % 1027,5 hPa 0,0 mm 4,2 km/h (1 Bft) W-NW 292 0 min 0,000 mm 1,2 UV-I 107 W/m 10,2 C 6,4 km/h (2 Bft)
22.08.2016 17:39 17,8 C 17,8 C 60 % 1027,5 hPa 0,0 mm 1,8 km/h (1 Bft) W 280 0 min 0,000 mm 1,2 UV-I 116 W/m 9,9 C 3,2 km/h (1 Bft)
22.08.2016 17:40 17,8 C 17,8 C 60 % 1027,5 hPa 0,0 mm 4,6 km/h (1 Bft) NW 316 0 min 0,000 mm 1,2 UV-I 149 W/m 9,9 C 9,7 km/h (2 Bft)
22.08.2016 17:41 17,9 C 17,9 C 60 % 1027,5 hPa 0,0 mm 8,6 km/h (2 Bft) N-NW 346 0 min 0,000 mm 1,2 UV-I 153 W/m 10,0 C 14,5 km/h (3 Bft)
22.08.2016 17:42 18,1 C 18,1 C 61 % 1027,5 hPa 0,0 mm 6,0 km/h (2 Bft) NW 314 0 min 0,000 mm 1,3 UV-I 142 W/m 10,5 C 8,0 km/h (2 Bft)
22.08.2016 17:43 18,2 C 18,2 C 61 % 1027,5 hPa 0,0 mm 5,3 km/h (1 Bft) NW 305 0 min 0,000 mm 1,3 UV-I 137 W/m 10,6 C 8,0 km/h (2 Bft)
22.08.2016 17:44 18,3 C 18,3 C 63 % 1027,5 hPa 0,0 mm 6,0 km/h (2 Bft) W-NW 296 0 min 0,000 mm 1,2 UV-I 127 W/m 11,1 C 8,0 km/h (2 Bft)
22.08.2016 17:45 18,4 C 18,4 C 62 % 1027,5 hPa 0,0 mm 5,4 km/h (1 Bft) W-NW 291 0 min 0,000 mm 1,2 UV-I 109 W/m 11,0 C 8,0 km/h (2 Bft)
22.08.2016 17:46 18,4 C 18,4 C 59 % 1027,6 hPa 0,0 mm 9,3 km/h (2 Bft) W 281 0 min 0,000 mm 1,2 UV-I 76 W/m 10,2 C 12,9 km/h (3 Bft)
22.08.2016 17:47 18,4 C 18,4 C 60 % 1027,5 hPa 0,0 mm 6,8 km/h (2 Bft) NW 315 0 min 0,000 mm 1,1 UV-I 62 W/m 10,5 C 12,9 km/h (3 Bft)
22.08.2016 17:48 18,4 C 18,4 C 58 % 1027,6 hPa 0,0 mm 5,0 km/h (1 Bft) W-NW 299 0 min 0,000 mm 0,0 UV-I 53 W/m 10,0 C 8,0 km/h (2 Bft)
22.08.2016 17:49 18,3 C 18,4 C 58 % 1027,6 hPa 0,0 mm 5,6 km/h (1 Bft) W-NW 302 0 min 0,000 mm 0,0 UV-I 47 W/m 9,9 C 8,0 km/h (2 Bft)
22.08.2016 17:50 18,3 C 18,3 C 59 % 1027,5 hPa 0,0 mm 2,7 km/h (1 Bft) N-NW 339 0 min 0,000 mm 0,0 UV-I 42 W/m 10,1 C 4,8 km/h (1 Bft)
22.08.2016 17:51 18,3 C 18,3 C 60 % 1027,6 hPa 0,0 mm 5,2 km/h (1 Bft) W 281 0 min 0,000 mm 0,0 UV-I 40 W/m 10,4 C 9,7 km/h (2 Bft)
22.08.2016 17:52 18,2 C 18,3 C 59 % 1027,6 hPa 0,0 mm 6,0 km/h (2 Bft) W 272 0 min 0,000 mm 0,0 UV-I 39 W/m 10,1 C 9,7 km/h (2 Bft)
22.08.2016 17:53 18,2 C 18,3 C 60 % 1027,5 hPa 0,0 mm 4,6 km/h (1 Bft) W 276 0 min 0,000 mm 0,0 UV-I 39 W/m 10,3 C 9,7 km/h (2 Bft)
22.08.2016 17:54 18,2 C 18,2 C 58 % 1027,6 hPa 0,0 mm 6,5 km/h (2 Bft) W-SW 253 0 min 0,000 mm 0,0 UV-I 39 W/m 9,8 C 11,3 km/h (2 Bft)
22.08.2016 17:55 18,1 C 18,2 C 58 % 1027,5 hPa 0,0 mm 6,4 km/h (2 Bft) W-NW 301 0 min 0,000 mm 0,0 UV-I 37 W/m 9,7 C 11,3 km/h (2 Bft)
22.08.2016 17:56 18,1 C 18,1 C 61 % 1027,6 hPa 0,0 mm 5,1 km/h (1 Bft) NW 307 0 min 0,000 mm 0,0 UV-I 37 W/m 10,5 C 8,0 km/h (2 Bft)
22.08.2016 17:57 18,1 C 18,1 C 61 % 1027,6 hPa 0,0 mm 7,5 km/h (2 Bft) NW 309 0 min 0,000 mm 0,0 UV-I 39 W/m 10,5 C 12,9 km/h (3 Bft)
22.08.2016 17:58 18,1 C 18,1 C 59 % 1027,6 hPa 0,0 mm 9,3 km/h (2 Bft) NW 308 0 min 0,000 mm 0,0 UV-I 40 W/m 10,0 C 12,9 km/h (3 Bft)
22.08.2016 17:59 18,1 C 18,1 C 60 % 1027,6 hPa 0,0 mm 5,0 km/h (1 Bft) W 278 0 min 0,000 mm 0,0 UV-I 40 W/m 10,2 C 11,3 km/h (2 Bft)
22.08.2016 18:00 18,1 C 18,1 C 58 % 1027,6 hPa 0,0 mm 6,5 km/h (2 Bft) W 279 0 min 0,076 mm 0,0 UV-I 37 W/m 9,7 C 9,7 km/h (2 Bft)
22.08.2016 18:01 18,1 C 18,1 C 61 % 1027,6 hPa 0,0 mm 6,3 km/h (2 Bft) NW 314 0 min 0,000 mm 0,0 UV-I 39 W/m 10,5 C 11,3 km/h (2 Bft)
22.08.2016 18:02 18,0 C 18,1 C 60 % 1027,6 hPa 0,0 mm 5,3 km/h (1 Bft) NW 315 0 min 0,000 mm 0,0 UV-I 39 W/m 10,1 C 9,7 km/h (2 Bft)
22.08.2016 18:03 18,0 C 18,1 C 61 % 1027,6 hPa 0,0 mm 6,6 km/h (2 Bft) W-NW 297 0 min 0,000 mm 0,0 UV-I 39 W/m 10,4 C 12,9 km/h (3 Bft)
22.08.2016 18:04 17,9 C 18,0 C 59 % 1027,6 hPa 0,0 mm 5,1 km/h (1 Bft) W-NW 292 0 min 0,000 mm 0,0 UV-I 37 W/m 9,8 C 8,0 km/h (2 Bft)
22.08.2016 18:05 17,9 C 17,9 C 61 % 1027,6 hPa 0,0 mm 4,0 km/h (1 Bft) NW 304 0 min 0,000 mm 0,0 UV-I 40 W/m 10,3 C 6,4 km/h (2 Bft)
22.08.2016 18:06 17,8 C 17,9 C 61 % 1027,6 hPa 0,0 mm 3,4 km/h (1 Bft) NW 308 0 min 0,000 mm 0,0 UV-I 40 W/m 10,2 C 4,8 km/h (1 Bft)
22.08.2016 18:07 17,8 C 17,8 C 62 % 1027,6 hPa 0,0 mm 3,9 km/h (1 Bft) W 276 0 min 0,000 mm 0,0 UV-I 42 W/m 10,4 C 4,8 km/h (1 Bft)
22.08.2016 18:08 17,8 C 17,8 C 62 % 1027,6 hPa 0,0 mm 3,6 km/h (1 Bft) W-NW 296 0 min 0,000 mm 0,0 UV-I 42 W/m 10,4 C 4,8 km/h (1 Bft)
22.08.2016 18:09 17,8 C 17,8 C 62 % 1027,6 hPa 0,0 mm 2,3 km/h (1 Bft) W-NW 301 0 min 0,000 mm 0,0 UV-I 49 W/m 10,4 C 4,8 km/h (1 Bft)
22.08.2016 18:10 17,7 C 17,8 C 62 % 1027,6 hPa 0,0 mm 4,1 km/h (1 Bft) NW 313 0 min 0,000 mm 0,0 UV-I 56 W/m 10,3 C 6,4 km/h (2 Bft)
22.08.2016 18:11 17,8 C 17,8 C 63 % 1027,6 hPa 0,0 mm 3,6 km/h (1 Bft) NW 322 0 min 0,000 mm 0,9 UV-I 60 W/m 10,7 C 6,4 km/h (2 Bft)
22.08.2016 18:12 17,8 C 17,8 C 63 % 1027,6 hPa 0,0 mm 5,1 km/h (1 Bft) W 277 0 min 0,000 mm 0,9 UV-I 63 W/m 10,7 C 6,4 km/h (2 Bft)
22.08.2016 18:13 17,8 C 17,9 C 63 % 1027,7 hPa 0,0 mm 4,7 km/h (1 Bft) W-NW 286 0 min 0,000 mm 0,9 UV-I 62 W/m 10,7 C 6,4 km/h (2 Bft)
22.08.2016 18:14 17,9 C 17,9 C 62 % 1027,7 hPa 0,0 mm 5,0 km/h (1 Bft) NW 306 0 min 0,000 mm 0,9 UV-I 62 W/m 10,5 C 8,0 km/h (2 Bft)
22.08.2016 18:15 17,9 C 17,9 C 63 % 1027,7 hPa 0,0 mm 6,6 km/h (2 Bft) NW 310 0 min 0,000 mm 0,9 UV-I 56 W/m 10,8 C 9,7 km/h (2 Bft)
22.08.2016 18:16 17,9 C 17,9 C 62 % 1027,7 hPa 0,0 mm 4,7 km/h (1 Bft) N-NW 348 0 min 0,000 mm 0,0 UV-I 54 W/m 10,5 C 9,7 km/h (2 Bft)
22.08.2016 18:17 17,9 C 17,9 C 61 % 1027,7 hPa 0,0 mm 9,5 km/h (2 Bft) NW 316 0 min 0,000 mm 0,0 UV-I 47 W/m 10,3 C 12,9 km/h (3 Bft)
22.08.2016 18:18 17,9 C 17,9 C 62 % 1027,7 hPa 0,0 mm 4,7 km/h (1 Bft) N-NW 331 0 min 0,000 mm 0,0 UV-I 47 W/m 10,5 C 6,4 km/h (2 Bft)
22.08.2016 18:19 17,9 C 17,9 C 61 % 1027,7 hPa 0,0 mm 4,5 km/h (1 Bft) NW 312 0 min 0,000 mm 0,0 UV-I 44 W/m 10,3 C 6,4 km/h (2 Bft)
22.08.2016 18:20 17,9 C 17,9 C 61 % 1027,7 hPa 0,0 mm 6,3 km/h (2 Bft) W-NW 294 0 min 0,000 mm 0,0 UV-I 44 W/m 10,3 C 9,7 km/h (2 Bft)
22.08.2016 18:21 17,8 C 17,9 C 62 % 1027,8 hPa 0,0 mm 4,4 km/h (1 Bft) W-NW 288 0 min 0,000 mm 0,0 UV-I 40 W/m 10,4 C 6,4 km/h (2 Bft)
22.08.2016 18:22 17,8 C 17,8 C 62 % 1027,7 hPa 0,0 mm 4,6 km/h (1 Bft) W-NW 296 0 min 0,000 mm 0,0 UV-I 37 W/m 10,4 C 6,4 km/h (2 Bft)
22.08.2016 18:23 17,7 C 17,8 C 61 % 1027,8 hPa 0,0 mm 3,8 km/h (1 Bft) W 279 0 min 0,000 mm 0,0 UV-I 37 W/m 10,1 C 4,8 km/h (1 Bft)
22.08.2016 18:24 17,6 C 17,7 C 61 % 1027,8 hPa 0,0 mm 4,6 km/h (1 Bft) NW 307 0 min 0,000 mm 0,0 UV-I 35 W/m 10,0 C 6,4 km/h (2 Bft)
22.08.2016 18:25 17,6 C 17,7 C 63 % 1027,8 hPa 0,0 mm 4,8 km/h (1 Bft) NW 315 0 min 0,000 mm 0,0 UV-I 37 W/m 10,5 C 8,0 km/h (2 Bft)
22.08.2016 18:26 17,6 C 17,6 C 63 % 1027,8 hPa 0,0 mm 4,4 km/h (1 Bft) W-NW 286 0 min 0,000 mm 0,0 UV-I 40 W/m 10,5 C 8,0 km/h (2 Bft)
22.08.2016 18:27 17,7 C 17,7 C 63 % 1027,8 hPa 0,0 mm 4,8 km/h (1 Bft) W-NW 286 0 min 0,000 mm 0,0 UV-I 44 W/m 10,6 C 6,4 km/h (2 Bft)
22.08.2016 18:28 17,7 C 17,7 C 63 % 1027,9 hPa 0,0 mm 7,4 km/h (2 Bft) NW 312 0 min 0,000 mm 0,0 UV-I 46 W/m 10,6 C 11,3 km/h (2 Bft)
22.08.2016 18:29 17,8 C 17,8 C 63 % 1027,8 hPa 0,0 mm 7,0 km/h (2 Bft) NW 311 0 min 0,000 mm 0,0 UV-I 42 W/m 10,7 C 11,3 km/h (2 Bft)
22.08.2016 18:30 17,8 C 17,8 C 62 % 1027,9 hPa 0,0 mm 3,4 km/h (1 Bft) W-NW 290 0 min 0,000 mm 0,0 UV-I 42 W/m 10,4 C 4,8 km/h (1 Bft)
22.08.2016 18:31 17,8 C 17,8 C 63 % 1027,8 hPa 0,0 mm 4,7 km/h (1 Bft) NW 313 0 min 0,000 mm 0,0 UV-I 44 W/m 10,7 C 8,0 km/h (2 Bft)
22.08.2016 18:32 17,9 C 17,9 C 64 % 1027,8 hPa 0,0 mm 4,0 km/h (1 Bft) W 280 0 min 0,000 mm 0,0 UV-I 44 W/m 11,0 C 6,4 km/h (2 Bft)
22.08.2016 18:33 17,9 C 17,9 C 63 % 1027,9 hPa 0,0 mm 2,6 km/h (1 Bft) W-NW 302 0 min 0,000 mm 0,0 UV-I 49 W/m 10,8 C 3,2 km/h (1 Bft)
22.08.2016 18:34 17,9 C 17,9 C 62 % 1027,9 hPa 0,0 mm 4,2 km/h (1 Bft) NW 310 0 min 0,000 mm 0,0 UV-I 51 W/m 10,5 C 6,4 km/h (2 Bft)
22.08.2016 18:35 18,0 C 18,0 C 64 % 1027,9 hPa 0,0 mm 3,4 km/h (1 Bft) W-NW 286 0 min 0,000 mm 0,0 UV-I 53 W/m 11,1 C 4,8 km/h (1 Bft)
22.08.2016 18:36 18,0 C 18,0 C 63 % 1027,9 hPa 0,0 mm 4,2 km/h (1 Bft) NW 313 0 min 0,000 mm 0,7 UV-I 56 W/m 10,8 C 6,4 km/h (2 Bft)
22.08.2016 18:37 17,9 C 18,0 C 62 % 1027,9 hPa 0,0 mm 4,3 km/h (1 Bft) NW 315 0 min 0,000 mm 0,7 UV-I 58 W/m 10,5 C 6,4 km/h (2 Bft)
22.08.2016 18:38 18,0 C 18,0 C 62 % 1027,9 hPa 0,0 mm 3,3 km/h (1 Bft) NW 306 0 min 0,000 mm 0,7 UV-I 58 W/m 10,6 C 4,8 km/h (1 Bft)
22.08.2016 18:39 18,0 C 18,0 C 60 % 1027,9 hPa 0,0 mm 4,2 km/h (1 Bft) W-NW 294 0 min 0,000 mm 0,0 UV-I 42 W/m 10,1 C 6,4 km/h (2 Bft)
22.08.2016 18:40 18,0 C 18,1 C 60 % 1027,9 hPa 0,0 mm 4,0 km/h (1 Bft) NW 321 0 min 0,000 mm 0,0 UV-I 40 W/m 10,1 C 4,8 km/h (1 Bft)
22.08.2016 18:41 18,1 C 18,1 C 61 % 1027,9 hPa 0,0 mm 4,1 km/h (1 Bft) NW 317 0 min 0,000 mm 0,0 UV-I 39 W/m 10,5 C 6,4 km/h (2 Bft)
22.08.2016 18:42 18,1 C 18,1 C 61 % 1027,9 hPa 0,0 mm 3,1 km/h (1 Bft) W-SW 257 0 min 0,000 mm 0,0 UV-I 40 W/m 10,5 C 6,4 km/h (2 Bft)
22.08.2016 18:43 18,1 C 18,1 C 60 % 1027,9 hPa 0,0 mm 2,4 km/h (1 Bft) W-NW 292 0 min 0,000 mm 0,0 UV-I 40 W/m 10,2 C 4,8 km/h (1 Bft)
22.08.2016 18:44 18,1 C 18,1 C 60 % 1027,9 hPa 0,0 mm 5,3 km/h (1 Bft) NW 323 0 min 0,000 mm 0,0 UV-I 42 W/m 10,2 C 6,4 km/h (2 Bft)
22.08.2016 18:45 18,1 C 18,1 C 61 % 1027,9 hPa 0,0 mm 4,3 km/h (1 Bft) W-NW 302 0 min 0,000 mm 0,0 UV-I 46 W/m 10,5 C 6,4 km/h (2 Bft)
22.08.2016 18:46 18,0 C 18,1 C 59 % 1028,0 hPa 0,0 mm 6,5 km/h (2 Bft) W-NW 292 0 min 0,000 mm 0,0 UV-I 46 W/m 9,9 C 12,9 km/h (3 Bft)
22.08.2016 18:47 17,9 C 18,0 C 60 % 1027,9 hPa 0,0 mm 6,3 km/h (2 Bft) NW 313 0 min 0,000 mm 0,0 UV-I 47 W/m 10,0 C 11,3 km/h (2 Bft)
22.08.2016 18:48 17,9 C 17,9 C 60 % 1027,9 hPa 0,0 mm 7,5 km/h (2 Bft) W-NW 302 0 min 0,000 mm 0,0 UV-I 49 W/m 10,0 C 11,3 km/h (2 Bft)
22.08.2016 18:49 17,9 C 17,9 C 61 % 1027,9 hPa 0,0 mm 6,4 km/h (2 Bft) W 273 0 min 0,000 mm 0,0 UV-I 51 W/m 10,3 C 11,3 km/h (2 Bft)
22.08.2016 18:50 17,9 C 17,9 C 59 % 1027,9 hPa 0,0 mm 5,2 km/h (1 Bft) W 279 0 min 0,000 mm 0,0 UV-I 49 W/m 9,8 C 11,3 km/h (2 Bft)
22.08.2016 18:51 17,9 C 17,9 C 61 % 1027,9 hPa 0,0 mm 6,4 km/h (2 Bft) W-NW 301 0 min 0,000 mm 0,0 UV-I 49 W/m 10,3 C 12,9 km/h (3 Bft)
22.08.2016 18:52 17,9 C 18,0 C 62 % 1027,9 hPa 0,0 mm 5,3 km/h (1 Bft) NW 313 0 min 0,000 mm 0,0 UV-I 49 W/m 10,5 C 11,3 km/h (2 Bft)
22.08.2016 18:53 17,9 C 17,9 C 62 % 1027,9 hPa 0,0 mm 6,8 km/h (2 Bft) W 279 0 min 0,000 mm 0,0 UV-I 54 W/m 10,5 C 9,7 km/h (2 Bft)
22.08.2016 18:54 17,9 C 17,9 C 60 % 1027,9 hPa 0,0 mm 7,8 km/h (2 Bft) W 273 0 min 0,000 mm 0,0 UV-I 54 W/m 10,0 C 11,3 km/h (2 Bft)
22.08.2016 18:55 17,9 C 17,9 C 59 % 1027,9 hPa 0,0 mm 5,2 km/h (1 Bft) W-NW 299 0 min 0,000 mm 0,5 UV-I 58 W/m 9,8 C 9,7 km/h (2 Bft)
22.08.2016 18:56 17,8 C 17,9 C 61 % 1028,0 hPa 0,0 mm 3,6 km/h (1 Bft) NW 324 0 min 0,000 mm 0,0 UV-I 54 W/m 10,2 C 6,4 km/h (2 Bft)
22.08.2016 18:57 17,8 C 17,8 C 62 % 1028,0 hPa 0,0 mm 2,4 km/h (1 Bft) W-NW 290 0 min 0,000 mm 0,5 UV-I 56 W/m 10,4 C 6,4 km/h (2 Bft)
22.08.2016 18:58 17,8 C 17,8 C 62 % 1028,0 hPa 0,0 mm 3,1 km/h (1 Bft) NW 306 0 min 0,000 mm 0,5 UV-I 58 W/m 10,4 C 6,4 km/h (2 Bft)
22.08.2016 18:59 17,7 C 17,8 C 62 % 1028,0 hPa 0,0 mm 4,8 km/h (1 Bft) W 281 0 min 0,000 mm 0,5 UV-I 58 W/m 10,3 C 6,4 km/h (2 Bft)
22.08.2016 19:00 17,7 C 17,7 C 63 % 1028,0 hPa 0,0 mm 5,0 km/h (1 Bft) W-NW 288 0 min 0,000 mm 0,5 UV-I 60 W/m 10,6 C 9,7 km/h (2 Bft)
22.08.2016 19:01 17,6 C 17,7 C 62 % 1028,0 hPa 0,0 mm 2,2 km/h (1 Bft) W 280 0 min 0,051 mm 0,0 UV-I 60 W/m 10,2 C 4,8 km/h (1 Bft)
22.08.2016 19:02 17,6 C 17,6 C 63 % 1028,0 hPa 0,0 mm 4,5 km/h (1 Bft) W 262 0 min 0,000 mm 0,0 UV-I 56 W/m 10,5 C 9,7 km/h (2 Bft)
22.08.2016 19:03 17,5 C 17,6 C 64 % 1028,1 hPa 0,0 mm 3,1 km/h (1 Bft) W-NW 290 0 min 0,000 mm 0,0 UV-I 54 W/m 10,6 C 4,8 km/h (1 Bft)
22.08.2016 19:04 17,4 C 17,5 C 65 % 1028,1 hPa 0,0 mm 2,2 km/h (1 Bft) W-NW 290 0 min 0,000 mm 0,0 UV-I 53 W/m 10,8 C 3,2 km/h (1 Bft)
22.08.2016 19:05 17,3 C 17,4 C 63 % 1028,1 hPa 0,0 mm 4,0 km/h (1 Bft) W-NW 298 0 min 0,000 mm 0,0 UV-I 53 W/m 10,2 C 9,7 km/h (2 Bft)
22.08.2016 19:06 17,3 C 17,3 C 63 % 1028,1 hPa 0,0 mm 4,6 km/h (1 Bft) W-NW 294 0 min 0,000 mm 0,0 UV-I 49 W/m 10,2 C 6,4 km/h (2 Bft)
22.08.2016 19:07 17,3 C 17,3 C 64 % 1028,2 hPa 0,0 mm 1,2 km/h (1 Bft) W-NW 294 0 min 0,000 mm 0,0 UV-I 51 W/m 10,4 C 3,2 km/h (1 Bft)
22.08.2016 19:08 17,3 C 17,3 C 65 % 1028,2 hPa 0,0 mm 2,5 km/h (1 Bft) W-NW 286 0 min 0,000 mm 0,0 UV-I 54 W/m 10,7 C 3,2 km/h (1 Bft)
22.08.2016 19:09 17,2 C 17,3 C 65 % 1028,2 hPa 0,0 mm 3,0 km/h (1 Bft) W-NW 292 0 min 0,000 mm 0,0 UV-I 54 W/m 10,6 C 4,8 km/h (1 Bft)
22.08.2016 19:10 17,2 C 17,3 C 65 % 1028,2 hPa 0,0 mm 1,9 km/h (1 Bft) W-NW 292 0 min 0,000 mm 0,0 UV-I 54 W/m 10,6 C 3,2 km/h (1 Bft)
22.08.2016 19:11 17,3 C 17,3 C 66 % 1028,1 hPa 0,0 mm 1,7 km/h (1 Bft) W-NW 298 0 min 0,000 mm 0,0 UV-I 49 W/m 10,9 C 4,8 km/h (1 Bft)
22.08.2016 19:12 17,3 C 17,3 C 66 % 1028,2 hPa 0,0 mm 2,7 km/h (1 Bft) W-NW 297 0 min 0,000 mm 0,0 UV-I 47 W/m 10,9 C 4,8 km/h (1 Bft)
22.08.2016 19:13 17,3 C 17,3 C 64 % 1028,2 hPa 0,0 mm 1,2 km/h (1 Bft) W-NW 297 0 min 0,000 mm 0,0 UV-I 53 W/m 10,4 C 3,2 km/h (1 Bft)
22.08.2016 19:14 17,3 C 17,3 C 64 % 1028,2 hPa 0,0 mm 1,5 km/h (1 Bft) W-NW 297 0 min 0,000 mm 0,0 UV-I 83 W/m 10,4 C 3,2 km/h (1 Bft)
22.08.2016 19:15 17,4 C 17,4 C 64 % 1028,2 hPa 0,0 mm 1,6 km/h (1 Bft) W-NW 297 0 min 0,000 mm 0,0 UV-I 54 W/m 10,5 C 3,2 km/h (1 Bft)
22.08.2016 19:16 17,4 C 17,4 C 66 % 1028,2 hPa 0,0 mm 2,5 km/h (1 Bft) W-NW 297 0 min 0,000 mm 0,0 UV-I 67 W/m 11,0 C 3,2 km/h (1 Bft)
22.08.2016 19:17 17,4 C 17,4 C 67 % 1028,1 hPa 0,0 mm 2,7 km/h (1 Bft) W 276 0 min 0,000 mm 0,0 UV-I 65 W/m 11,2 C 4,8 km/h (1 Bft)
22.08.2016 19:18 17,4 C 17,4 C 66 % 1028,2 hPa 0,0 mm 1,9 km/h (1 Bft) W 276 0 min 0,000 mm 0,0 UV-I 77 W/m 11,0 C 3,2 km/h (1 Bft)
22.08.2016 19:19 17,4 C 17,4 C 68 % 1028,2 hPa 0,0 mm 1,1 km/h (1 Bft) W 276 1 min 0,000 mm 0,0 UV-I 88 W/m 11,4 C 1,6 km/h (1 Bft)
22.08.2016 19:20 17,4 C 17,4 C 66 % 1028,2 hPa 0,0 mm 2,1 km/h (1 Bft) W 276 1 min 0,000 mm 0,0 UV-I 95 W/m 11,0 C 3,2 km/h (1 Bft)
22.08.2016 19:21 17,4 C 17,4 C 66 % 1028,1 hPa 0,0 mm 1,6 km/h (1 Bft) W 276 1 min 0,000 mm 0,0 UV-I 93 W/m 11,0 C 4,8 km/h (1 Bft)
22.08.2016 19:22 17,4 C 17,4 C 67 % 1028,2 hPa 0,0 mm 1,1 km/h (1 Bft) W 276 1 min 0,000 mm 0,0 UV-I 93 W/m 11,2 C 1,6 km/h (1 Bft)
22.08.2016 19:23 17,4 C 17,4 C 68 % 1028,2 hPa 0,0 mm 1,5 km/h (1 Bft) W 276 0 min 0,000 mm 0,0 UV-I 58 W/m 11,4 C 3,2 km/h (1 Bft)
22.08.2016 19:24 17,4 C 17,4 C 68 % 1028,2 hPa 0,0 mm 4,2 km/h (1 Bft) W 277 1 min 0,000 mm 0,0 UV-I 76 W/m 11,4 C 6,4 km/h (2 Bft)
22.08.2016 19:25 17,4 C 17,4 C 67 % 1028,1 hPa 0,0 mm 4,2 km/h (1 Bft) W-SW 257 1 min 0,000 mm 0,0 UV-I 76 W/m 11,2 C 6,4 km/h (2 Bft)
22.08.2016 19:26 17,4 C 17,4 C 67 % 1028,2 hPa 0,0 mm 3,2 km/h (1 Bft) W-SW 250 1 min 0,000 mm 0,0 UV-I 74 W/m 11,2 C 4,8 km/h (1 Bft)
22.08.2016 19:27 17,3 C 17,4 C 66 % 1028,2 hPa 0,0 mm 1,9 km/h (1 Bft) W-SW 252 1 min 0,000 mm 0,0 UV-I 72 W/m 10,9 C 3,2 km/h (1 Bft)
22.08.2016 19:28 17,4 C 17,4 C 65 % 1028,2 hPa 0,0 mm 2,1 km/h (1 Bft) W-SW 252 1 min 0,000 mm 0,0 UV-I 70 W/m 10,8 C 3,2 km/h (1 Bft)
22.08.2016 19:29 17,4 C 17,4 C 67 % 1028,2 hPa 0,0 mm 4,2 km/h (1 Bft) W-SW 258 1 min 0,000 mm 0,0 UV-I 69 W/m 11,2 C 6,4 km/h (2 Bft)
22.08.2016 19:30 17,3 C 17,4 C 66 % 1028,2 hPa 0,0 mm 2,6 km/h (1 Bft) W 259 1 min 0,000 mm 0,0 UV-I 69 W/m 10,9 C 4,8 km/h (1 Bft)
22.08.2016 19:31 17,3 C 17,3 C 68 % 1028,3 hPa 0,0 mm 2,4 km/h (1 Bft) W 261 1 min 0,000 mm 0,0 UV-I 69 W/m 11,3 C 4,8 km/h (1 Bft)
22.08.2016 19:32 17,3 C 17,3 C 67 % 1028,2 hPa 0,0 mm 3,1 km/h (1 Bft) W-SW 257 1 min 0,000 mm 0,0 UV-I 65 W/m 11,1 C 4,8 km/h (1 Bft)
22.08.2016 19:33 17,3 C 17,3 C 68 % 1028,3 hPa 0,0 mm 3,2 km/h (1 Bft) W-NW 290 1 min 0,000 mm 0,0 UV-I 62 W/m 11,3 C 4,8 km/h (1 Bft)
22.08.2016 19:34 17,3 C 17,3 C 66 % 1028,2 hPa 0,0 mm 2,9 km/h (1 Bft) W 270 0 min 0,000 mm 0,0 UV-I 56 W/m 10,9 C 4,8 km/h (1 Bft)
22.08.2016 19:35 17,3 C 17,3 C 66 % 1028,2 hPa 0,0 mm 3,3 km/h (1 Bft) W 277 0 min 0,000 mm 0,0 UV-I 53 W/m 10,9 C 4,8 km/h (1 Bft)
22.08.2016 19:36 17,3 C 17,3 C 67 % 1028,3 hPa 0,0 mm 3,4 km/h (1 Bft) W 277 0 min 0,000 mm 0,0 UV-I 51 W/m 11,1 C 4,8 km/h (1 Bft)
22.08.2016 19:37 17,2 C 17,3 C 65 % 1028,3 hPa 0,0 mm 3,0 km/h (1 Bft) W 277 0 min 0,000 mm 0,0 UV-I 47 W/m 10,6 C 4,8 km/h (1 Bft)
22.08.2016 19:38 17,3 C 17,3 C 66 % 1028,3 hPa 0,0 mm 3,3 km/h (1 Bft) W 273 0 min 0,000 mm 0,0 UV-I 42 W/m 10,9 C 4,8 km/h (1 Bft)
22.08.2016 19:39 17,3 C 17,3 C 67 % 1028,3 hPa 0,0 mm 2,2 km/h (1 Bft) W 273 0 min 0,000 mm 0,0 UV-I 40 W/m 11,1 C 3,2 km/h (1 Bft)
22.08.2016 19:40 17,2 C 17,3 C 69 % 1028,3 hPa 0,0 mm 0,0 km/h (0 Bft) W 273 0 min 0,000 mm 0,0 UV-I 39 W/m 11,5 C 0,0 km/h (0 Bft)
22.08.2016 19:41 17,1 C 17,2 C 68 % 1028,3 hPa 0,0 mm 0,0 km/h (0 Bft) W 273 0 min 0,000 mm 0,0 UV-I 37 W/m 11,1 C 0,0 km/h (0 Bft)
22.08.2016 19:42 17,0 C 17,1 C 67 % 1028,3 hPa 0,0 mm 0,0 km/h (0 Bft) W 262 0 min 0,000 mm 0,0 UV-I 35 W/m 10,8 C 0,0 km/h (0 Bft)
22.08.2016 19:43 17,0 C 17,1 C 70 % 1028,3 hPa 0,0 mm 0,0 km/h (0 Bft) W 262 0 min 0,000 mm 0,0 UV-I 35 W/m 11,5 C 0,0 km/h (0 Bft)
22.08.2016 19:44 16,9 C 17,0 C 69 % 1028,3 hPa 0,0 mm 0,0 km/h (0 Bft) W 263 0 min 0,000 mm 0,0 UV-I 33 W/m 11,2 C 0,0 km/h (0 Bft)
22.08.2016 19:45 16,9 C 16,9 C 68 % 1028,3 hPa 0,0 mm 0,0 km/h (0 Bft) W 263 0 min 0,000 mm 0,0 UV-I 32 W/m 11,0 C 0,0 km/h (0 Bft)
22.08.2016 19:46 16,8 C 16,9 C 68 % 1028,3 hPa 0,0 mm 0,0 km/h (0 Bft) W 263 0 min 0,000 mm 0,0 UV-I 32 W/m 10,9 C 0,0 km/h (0 Bft)
22.08.2016 19:47 16,8 C 16,8 C 68 % 1028,3 hPa 0,0 mm 0,0 km/h (0 Bft) W 263 0 min 0,000 mm 0,0 UV-I 32 W/m 10,9 C 0,0 km/h (0 Bft)
22.08.2016 19:48 16,8 C 16,8 C 68 % 1028,3 hPa 0,0 mm 0,0 km/h (0 Bft) W 263 0 min 0,000 mm 0,0 UV-I 32 W/m 10,9 C 0,0 km/h (0 Bft)
22.08.2016 19:49 16,7 C 16,8 C 68 % 1028,4 hPa 0,0 mm 0,0 km/h (0 Bft) W 263 0 min 0,000 mm 0,0 UV-I 30 W/m 10,8 C 0,0 km/h (0 Bft)
22.08.2016 19:50 16,7 C 16,8 C 68 % 1028,4 hPa 0,0 mm 0,0 km/h (0 Bft) W 263 0 min 0,000 mm 0,0 UV-I 30 W/m 10,8 C 0,0 km/h (0 Bft)
22.08.2016 19:51 16,7 C 16,7 C 67 % 1028,4 hPa 0,0 mm 0,0 km/h (0 Bft) W 263 0 min 0,000 mm 0,0 UV-I 26 W/m 10,5 C 0,0 km/h (0 Bft)
22.08.2016 19:52 16,7 C 16,7 C 67 % 1028,4 hPa 0,0 mm 0,0 km/h (0 Bft) W 263 0 min 0,000 mm 0,0 UV-I 25 W/m 10,5 C 0,0 km/h (0 Bft)
22.08.2016 19:53 16,7 C 16,7 C 68 % 1028,4 hPa 0,0 mm 0,0 km/h (0 Bft) W 263 0 min 0,000 mm 0,0 UV-I 25 W/m 10,8 C 0,0 km/h (0 Bft)
22.08.2016 19:54 16,6 C 16,7 C 68 % 1028,4 hPa 0,0 mm 0,0 km/h (0 Bft) W 263 0 min 0,000 mm 0,0 UV-I 23 W/m 10,7 C 0,0 km/h (0 Bft)
22.08.2016 19:55 16,5 C 16,6 C 68 % 1028,3 hPa 0,0 mm 0,0 km/h (0 Bft) W 263 0 min 0,000 mm 0,0 UV-I 21 W/m 10,6 C 0,0 km/h (0 Bft)
22.08.2016 19:56 16,4 C 16,5 C 68 % 1028,3 hPa 0,0 mm 0,0 km/h (0 Bft) W 263 0 min 0,000 mm 0,0 UV-I 19 W/m 10,5 C 0,0 km/h (0 Bft)
22.08.2016 19:57 16,4 C 16,4 C 67 % 1028,4 hPa 0,0 mm 0,0 km/h (0 Bft) W 263 0 min 0,000 mm 0,0 UV-I 18 W/m 10,3 C 0,0 km/h (0 Bft)
22.08.2016 19:58 16,4 C 16,4 C 67 % 1028,3 hPa 0,0 mm 0,0 km/h (0 Bft) W 263 0 min 0,000 mm 0,0 UV-I 18 W/m 10,3 C 0,0 km/h (0 Bft)
22.08.2016 19:59 16,3 C 16,4 C 70 % 1028,3 hPa 0,0 mm 0,0 km/h (0 Bft) W 263 0 min 0,000 mm 0,0 UV-I 16 W/m 10,8 C 0,0 km/h (0 Bft)
22.08.2016 20:00 16,2 C 16,3 C 69 % 1028,3 hPa 0,0 mm 0,0 km/h (0 Bft) W 263 1 min 0,000 mm 0,0 UV-I 16 W/m 10,5 C 0,0 km/h (0 Bft)
22.08.2016 20:01 16,1 C 16,2 C 70 % 1028,3 hPa 0,0 mm 0,0 km/h (0 Bft) W 263 0 min 0,050 mm 0,0 UV-I 14 W/m 10,6 C 0,0 km/h (0 Bft)
22.08.2016 20:02 15,9 C 16,1 C 71 % 1028,3 hPa 0,0 mm 0,0 km/h (0 Bft) W 263 1 min 0,000 mm 0,0 UV-I 14 W/m 10,6 C 0,0 km/h (0 Bft)
22.08.2016 20:03 15,9 C 15,9 C 72 % 1028,3 hPa 0,0 mm 0,0 km/h (0 Bft) W 263 1 min 0,000 mm 0,0 UV-I 12 W/m 10,9 C 0,0 km/h (0 Bft)
22.08.2016 20:04 15,8 C 15,9 C 73 % 1028,3 hPa 0,0 mm 0,0 km/h (0 Bft) W 262 1 min 0,000 mm 0,0 UV-I 11 W/m 11,0 C 0,0 km/h (0 Bft)
22.08.2016 20:05 15,8 C 15,8 C 73 % 1028,3 hPa 0,0 mm 0,0 km/h (0 Bft) W 262 0 min 0,000 mm 0,0 UV-I 9 W/m 11,0 C 0,0 km/h (0 Bft)
22.08.2016 20:06 15,6 C 15,8 C 75 % 1028,3 hPa 0,0 mm 0,0 km/h (0 Bft) SW 217 0 min 0,000 mm 0,0 UV-I 9 W/m 11,2 C 0,0 km/h (0 Bft)
22.08.2016 20:07 15,4 C 15,6 C 74 % 1028,3 hPa 0,0 mm 1,1 km/h (1 Bft) SW 215 0 min 0,000 mm 0,0 UV-I 7 W/m 10,8 C 3,2 km/h (1 Bft)
22.08.2016 20:08 15,4 C 15,4 C 74 % 1028,3 hPa 0,0 mm 2,1 km/h (1 Bft) S-SW 211 0 min 0,000 mm 0,0 UV-I 7 W/m 10,8 C 3,2 km/h (1 Bft)
22.08.2016 20:09 15,3 C 15,4 C 74 % 1028,3 hPa 0,0 mm 2,2 km/h (1 Bft) S-SW 195 0 min 0,000 mm 0,0 UV-I 7 W/m 10,7 C 3,2 km/h (1 Bft)
22.08.2016 20:10 15,3 C 15,3 C 74 % 1028,3 hPa 0,0 mm 1,5 km/h (1 Bft) S-SW 195 0 min 0,000 mm 0,0 UV-I 5 W/m 10,7 C 3,2 km/h (1 Bft)
22.08.2016 20:11 15,2 C 15,3 C 77 % 1028,3 hPa 0,0 mm 0,8 km/h (0 Bft) S-SW 195 0 min 0,000 mm 0,0 UV-I 5 W/m 11,2 C 3,2 km/h (1 Bft)
22.08.2016 20:12 15,1 C 15,2 C 77 % 1028,3 hPa 0,0 mm 2,3 km/h (1 Bft) S-SW 195 0 min 0,000 mm 0,0 UV-I 5 W/m 11,1 C 3,2 km/h (1 Bft)
22.08.2016 20:13 14,9 C 15,1 C 78 % 1028,3 hPa 0,0 mm 1,1 km/h (1 Bft) S-SW 195 0 min 0,000 mm 0,0 UV-I 5 W/m 11,1 C 1,6 km/h (1 Bft)
22.08.2016 20:14 14,8 C 14,9 C 79 % 1028,3 hPa 0,0 mm 2,7 km/h (1 Bft) S-SW 195 0 min 0,000 mm 0,0 UV-I 5 W/m 11,2 C 3,2 km/h (1 Bft)
22.08.2016 20:15 14,6 C 14,8 C 79 % 1028,3 hPa 0,0 mm 2,6 km/h (1 Bft) S-SW 195 0 min 0,000 mm 0,0 UV-I 0 W/m 11,0 C 3,2 km/h (1 Bft)
22.08.2016 20:16 14,5 C 14,6 C 79 % 1028,3 hPa 0,0 mm 2,6 km/h (1 Bft) S-SW 195 0 min 0,000 mm 0,0 UV-I 0 W/m 10,9 C 4,8 km/h (1 Bft)
22.08.2016 20:17 14,4 C 14,5 C 79 % 1028,3 hPa 0,0 mm 2,1 km/h (1 Bft) S-SW 195 0 min 0,000 mm 0,0 UV-I 0 W/m 10,8 C 3,2 km/h (1 Bft)
22.08.2016 20:18 14,4 C 14,4 C 79 % 1028,4 hPa 0,0 mm 1,8 km/h (1 Bft) S-SW 195 0 min 0,000 mm 0,0 UV-I 0 W/m 10,8 C 3,2 km/h (1 Bft)
22.08.2016 20:19 14,3 C 14,4 C 79 % 1028,4 hPa 0,0 mm 1,3 km/h (1 Bft) S-SW 195 0 min 0,000 mm 0,0 UV-I 0 W/m 10,7 C 3,2 km/h (1 Bft)
22.08.2016 20:20 14,3 C 14,3 C 79 % 1028,3 hPa 0,0 mm 2,3 km/h (1 Bft) S 189 0 min 0,000 mm 0,0 UV-I 0 W/m 10,7 C 4,8 km/h (1 Bft)
22.08.2016 20:21 14,2 C 14,3 C 79 % 1028,3 hPa 0,0 mm 2,5 km/h (1 Bft) S 187 0 min 0,000 mm 0,0 UV-I 0 W/m 10,6 C 4,8 km/h (1 Bft)
22.08.2016 20:22 14,1 C 14,2 C 79 % 1028,3 hPa 0,0 mm 2,8 km/h (1 Bft) S 187 0 min 0,000 mm 0,0 UV-I 0 W/m 10,5 C 3,2 km/h (1 Bft)
22.08.2016 20:23 14,1 C 14,1 C 79 % 1028,3 hPa 0,0 mm 2,6 km/h (1 Bft) S 187 0 min 0,000 mm 0,0 UV-I 0 W/m 10,5 C 4,8 km/h (1 Bft)
22.08.2016 20:24 14,0 C 14,1 C 79 % 1028,3 hPa 0,0 mm 3,2 km/h (1 Bft) S 187 0 min 0,000 mm 0,0 UV-I 0 W/m 10,4 C 3,2 km/h (1 Bft)
22.08.2016 20:25 14,0 C 14,0 C 79 % 1028,3 hPa 0,0 mm 2,5 km/h (1 Bft) S 187 0 min 0,000 mm 0,0 UV-I 0 W/m 10,4 C 4,8 km/h (1 Bft)
22.08.2016 20:26 13,9 C 14,0 C 80 % 1028,3 hPa 0,0 mm 2,2 km/h (1 Bft) S 187 0 min 0,000 mm 0,0 UV-I 0 W/m 10,5 C 3,2 km/h (1 Bft)
22.08.2016 20:27 13,9 C 13,9 C 80 % 1028,3 hPa 0,0 mm 2,9 km/h (1 Bft) S 187 0 min 0,000 mm 0,0 UV-I 0 W/m 10,5 C 3,2 km/h (1 Bft)
22.08.2016 20:28 13,8 C 13,9 C 80 % 1028,4 hPa 0,0 mm 3,1 km/h (1 Bft) S 187 0 min 0,000 mm 0,0 UV-I 0 W/m 10,4 C 3,2 km/h (1 Bft)
22.08.2016 20:29 13,8 C 13,8 C 80 % 1028,5 hPa 0,0 mm 2,9 km/h (1 Bft) S 187 0 min 0,000 mm 0,0 UV-I 0 W/m 10,4 C 4,8 km/h (1 Bft)
22.08.2016 20:30 13,8 C 13,8 C 80 % 1028,5 hPa 0,0 mm 3,3 km/h (1 Bft) S 187 0 min 0,000 mm 0,0 UV-I 0 W/m 10,4 C 4,8 km/h (1 Bft)
22.08.2016 20:31 13,7 C 13,8 C 81 % 1028,5 hPa 0,0 mm 4,0 km/h (1 Bft) S 186 0 min 0,000 mm 0,0 UV-I 0 W/m 10,5 C 4,8 km/h (1 Bft)
22.08.2016 20:32 13,7 C 13,7 C 81 % 1028,5 hPa 0,0 mm 3,2 km/h (1 Bft) S 186 0 min 0,000 mm 0,0 UV-I 0 W/m 10,5 C 4,8 km/h (1 Bft)
22.08.2016 20:33 13,6 C 13,7 C 81 % 1028,5 hPa 0,0 mm 3,4 km/h (1 Bft) S 186 0 min 0,000 mm 0,0 UV-I 0 W/m 10,4 C 4,8 km/h (1 Bft)
22.08.2016 20:34 13,5 C 13,6 C 81 % 1028,5 hPa 0,0 mm 4,0 km/h (1 Bft) S 186 0 min 0,000 mm 0,0 UV-I 0 W/m 10,3 C 4,8 km/h (1 Bft)
22.08.2016 20:35 13,5 C 13,6 C 82 % 1028,5 hPa 0,0 mm 4,2 km/h (1 Bft) S 180 0 min 0,000 mm 0,0 UV-I 0 W/m 10,5 C 4,8 km/h (1 Bft)
22.08.2016 20:36 13,4 C 13,5 C 82 % 1028,6 hPa 0,0 mm 3,6 km/h (1 Bft) S 178 0 min 0,000 mm 0,0 UV-I 0 W/m 10,4 C 4,8 km/h (1 Bft)
22.08.2016 20:37 13,4 C 13,4 C 82 % 1028,6 hPa 0,0 mm 3,3 km/h (1 Bft) S 177 0 min 0,000 mm 0,0 UV-I 0 W/m 10,4 C 4,8 km/h (1 Bft)
22.08.2016 20:38 13,3 C 13,4 C 82 % 1028,6 hPa 0,0 mm 3,1 km/h (1 Bft) S 177 0 min 0,000 mm 0,0 UV-I 0 W/m 10,3 C 4,8 km/h (1 Bft)
22.08.2016 20:39 13,3 C 13,4 C 82 % 1028,6 hPa 0,0 mm 2,8 km/h (1 Bft) S 177 0 min 0,000 mm 0,0 UV-I 0 W/m 10,3 C 3,2 km/h (1 Bft)
22.08.2016 20:40 13,3 C 13,3 C 82 % 1028,6 hPa 0,0 mm 3,3 km/h (1 Bft) S 177 0 min 0,000 mm 0,0 UV-I 0 W/m 10,3 C 4,8 km/h (1 Bft)
22.08.2016 20:41 13,3 C 13,3 C 83 % 1028,6 hPa 0,0 mm 3,3 km/h (1 Bft) S 177 0 min 0,000 mm 0,0 UV-I 0 W/m 10,5 C 4,8 km/h (1 Bft)
22.08.2016 20:42 13,3 C 13,3 C 83 % 1028,6 hPa 0,0 mm 2,5 km/h (1 Bft) S 177 0 min 0,000 mm 0,0 UV-I 0 W/m 10,5 C 3,2 km/h (1 Bft)
22.08.2016 20:43 13,3 C 13,3 C 83 % 1028,6 hPa 0,0 mm 3,0 km/h (1 Bft) S 177 0 min 0,000 mm 0,0 UV-I 0 W/m 10,5 C 3,2 km/h (1 Bft)
22.08.2016 20:44 13,3 C 13,3 C 84 % 1028,6 hPa 0,0 mm 2,8 km/h (1 Bft) S 177 0 min 0,000 mm 0,0 UV-I 0 W/m 10,7 C 3,2 km/h (1 Bft)
22.08.2016 20:45 13,3 C 13,3 C 84 % 1028,7 hPa 0,0 mm 2,8 km/h (1 Bft) S 177 0 min 0,000 mm 0,0 UV-I 0 W/m 10,7 C 4,8 km/h (1 Bft)
22.08.2016 20:46 13,3 C 13,3 C 84 % 1028,8 hPa 0,0 mm 3,0 km/h (1 Bft) S 177 0 min 0,000 mm 0,0 UV-I 0 W/m 10,7 C 4,8 km/h (1 Bft)
22.08.2016 20:47 13,3 C 13,3 C 83 % 1028,8 hPa 0,0 mm 3,2 km/h (1 Bft) S-SO 158 0 min 0,000 mm 0,0 UV-I 0 W/m 10,5 C 4,8 km/h (1 Bft)
22.08.2016 20:48 13,3 C 13,3 C 83 % 1028,7 hPa 0,0 mm 3,0 km/h (1 Bft) S-SO 158 0 min 0,000 mm 0,0 UV-I 0 W/m 10,5 C 3,2 km/h (1 Bft)
22.08.2016 20:49 13,3 C 13,3 C 83 % 1028,7 hPa 0,0 mm 3,1 km/h (1 Bft) S-SO 158 0 min 0,000 mm 0,0 UV-I 0 W/m 10,5 C 3,2 km/h (1 Bft)
22.08.2016 20:50 13,4 C 13,4 C 82 % 1028,8 hPa 0,0 mm 2,3 km/h (1 Bft) S-SO 158 0 min 0,000 mm 0,0 UV-I 0 W/m 10,4 C 3,2 km/h (1 Bft)
22.08.2016 20:51 13,3 C 13,4 C 83 % 1028,8 hPa 0,0 mm 2,2 km/h (1 Bft) S-SO 158 0 min 0,000 mm 0,0 UV-I 0 W/m 10,5 C 3,2 km/h (1 Bft)
22.08.2016 20:52 13,3 C 13,4 C 82 % 1028,8 hPa 0,0 mm 2,4 km/h (1 Bft) S-SO 158 0 min 0,000 mm 0,0 UV-I 0 W/m 10,3 C 3,2 km/h (1 Bft)
22.08.2016 20:53 13,3 C 13,3 C 82 % 1028,8 hPa 0,0 mm 2,1 km/h (1 Bft) S-SO 158 0 min 0,000 mm 0,0 UV-I 0 W/m 10,3 C 3,2 km/h (1 Bft)
22.08.2016 20:54 13,3 C 13,3 C 83 % 1028,8 hPa 0,0 mm 1,8 km/h (1 Bft) S-SO 158 0 min 0,000 mm 0,0 UV-I 0 W/m 10,5 C 3,2 km/h (1 Bft)
22.08.2016 20:55 13,3 C 13,3 C 82 % 1028,8 hPa 0,0 mm 2,4 km/h (1 Bft) S-SO 158 0 min 0,000 mm 0,0 UV-I 0 W/m 10,3 C 3,2 km/h (1 Bft)
22.08.2016 20:56 13,3 C 13,3 C 82 % 1028,8 hPa 0,0 mm 1,6 km/h (1 Bft) S-SO 158 0 min 0,000 mm 0,0 UV-I 0 W/m 10,3 C 3,2 km/h (1 Bft)
22.08.2016 20:57 13,2 C 13,3 C 82 % 1028,8 hPa 0,0 mm 1,3 km/h (1 Bft) S-SO 158 0 min 0,000 mm 0,0 UV-I 0 W/m 10,2 C 1,6 km/h (1 Bft)
22.08.2016 20:58 13,1 C 13,2 C 83 % 1028,8 hPa 0,0 mm 1,6 km/h (1 Bft) S-SO 158 0 min 0,000 mm 0,0 UV-I 0 W/m 10,3 C 3,2 km/h (1 Bft)
22.08.2016 20:59 12,9 C 13,1 C 83 % 1028,8 hPa 0,0 mm 1,7 km/h (1 Bft) S-SO 159 0 min 0,000 mm 0,0 UV-I 0 W/m 10,1 C 3,2 km/h (1 Bft)
22.08.2016 21:00 12,7 C 12,9 C 84 % 1028,8 hPa 0,0 mm 1,6 km/h (1 Bft) S-SO 159 0 min 0,000 mm 0,0 UV-I 0 W/m 10,1 C 3,2 km/h (1 Bft)
22.08.2016 21:01 12,6 C 12,7 C 84 % 1028,8 hPa 0,0 mm 1,4 km/h (1 Bft) S-SO 159 0 min 0,000 mm 0,0 UV-I 0 W/m 10,0 C 3,2 km/h (1 Bft)
22.08.2016 21:02 12,4 C 12,6 C 84 % 1028,8 hPa 0,0 mm 1,6 km/h (1 Bft) S-SO 159 0 min 0,000 mm 0,0 UV-I 0 W/m 9,8 C 3,2 km/h (1 Bft)
22.08.2016 21:03 12,4 C 12,4 C 86 % 1028,8 hPa 0,0 mm 1,5 km/h (1 Bft) S-SO 159 0 min 0,000 mm 0,0 UV-I 0 W/m 10,1 C 3,2 km/h (1 Bft)
22.08.2016 21:04 12,4 C 12,4 C 86 % 1028,8 hPa 0,0 mm 1,7 km/h (1 Bft) S-SO 159 0 min 0,000 mm 0,0 UV-I 0 W/m 10,1 C 3,2 km/h (1 Bft)
22.08.2016 21:05 12,3 C 12,4 C 86 % 1028,8 hPa 0,0 mm 1,7 km/h (1 Bft) S-SO 159 0 min 0,000 mm 0,0 UV-I 0 W/m 10,0 C 3,2 km/h (1 Bft)
22.08.2016 21:06 12,3 C 12,3 C 86 % 1028,8 hPa 0,0 mm 1,3 km/h (1 Bft) S-SO 159 0 min 0,000 mm 0,0 UV-I 0 W/m 10,0 C 3,2 km/h (1 Bft)
22.08.2016 21:07 12,2 C 12,3 C 86 % 1028,8 hPa 0,0 mm 1,5 km/h (1 Bft) S-SO 159 0 min 0,000 mm 0,0 UV-I 0 W/m 9,9 C 3,2 km/h (1 Bft)
22.08.2016 21:08 12,2 C 12,2 C 86 % 1028,7 hPa 0,0 mm 0,9 km/h (0 Bft) S-SO 159 0 min 0,000 mm 0,0 UV-I 0 W/m 9,9 C 3,2 km/h (1 Bft)
22.08.2016 21:09 12,1 C 12,2 C 87 % 1028,9 hPa 0,0 mm 1,0 km/h (0 Bft) S-SO 159 0 min 0,000 mm 0,0 UV-I 0 W/m 10,0 C 3,2 km/h (1 Bft)
22.08.2016 21:10 12,2 C 12,2 C 87 % 1028,9 hPa 0,0 mm 0,6 km/h (0 Bft) S-SO 159 0 min 0,000 mm 0,0 UV-I 0 W/m 10,1 C 1,6 km/h (1 Bft)
22.08.2016 21:11 12,2 C 12,2 C 87 % 1028,9 hPa 0,0 mm 1,1 km/h (1 Bft) S-SO 159 0 min 0,000 mm 0,0 UV-I 0 W/m 10,1 C 1,6 km/h (1 Bft)
22.08.2016 21:12 12,2 C 12,2 C 86 % 1028,9 hPa 0,0 mm 1,5 km/h (1 Bft) S-SO 159 0 min 0,000 mm 0,0 UV-I 0 W/m 9,9 C 3,2 km/h (1 Bft)
22.08.2016 21:13 12,2 C 12,2 C 87 % 1028,8 hPa 0,0 mm 0,5 km/h (0 Bft) S-SO 159 0 min 0,000 mm 0,0 UV-I 0 W/m 10,1 C 1,6 km/h (1 Bft)
22.08.2016 21:14 12,1 C 12,2 C 87 % 1028,8 hPa 0,0 mm 1,3 km/h (1 Bft) S-SO 159 0 min 0,000 mm 0,0 UV-I 0 W/m 10,0 C 1,6 km/h (1 Bft)
22.08.2016 21:15 12,1 C 12,1 C 86 % 1028,8 hPa 0,0 mm 1,4 km/h (1 Bft) S-SO 159 0 min 0,000 mm 0,0 UV-I 0 W/m 9,8 C 3,2 km/h (1 Bft)
22.08.2016 21:16 12,1 C 12,1 C 87 % 1028,8 hPa 0,0 mm 0,2 km/h (0 Bft) S-SO 159 0 min 0,000 mm 0,0 UV-I 0 W/m 10,0 C 1,6 km/h (1 Bft)
22.08.2016 21:17 12,0 C 12,1 C 86 % 1028,9 hPa 0,0 mm 0,6 km/h (0 Bft) S-SO 159 0 min 0,000 mm 0,0 UV-I 0 W/m 9,7 C 1,6 km/h (1 Bft)
22.08.2016 21:18 11,9 C 12,0 C 87 % 1028,9 hPa 0,0 mm 1,0 km/h (0 Bft) S-SO 159 0 min 0,000 mm 0,0 UV-I 0 W/m 9,8 C 1,6 km/h (1 Bft)
22.08.2016 21:19 11,9 C 11,9 C 87 % 1028,9 hPa 0,0 mm 0,7 km/h (0 Bft) S-SO 159 0 min 0,000 mm 0,0 UV-I 0 W/m 9,8 C 1,6 km/h (1 Bft)
22.08.2016 21:20 11,9 C 11,9 C 87 % 1028,9 hPa 0,0 mm 0,9 km/h (0 Bft) S-SO 159 0 min 0,000 mm 0,0 UV-I 0 W/m 9,8 C 1,6 km/h (1 Bft)
22.08.2016 21:21 11,9 C 11,9 C 87 % 1028,9 hPa 0,0 mm 1,3 km/h (1 Bft) S-SO 159 0 min 0,000 mm 0,0 UV-I 0 W/m 9,8 C 3,2 km/h (1 Bft)
22.08.2016 21:22 11,9 C 11,9 C 87 % 1028,9 hPa 0,0 mm 1,8 km/h (1 Bft) S-SO 159 0 min 0,000 mm 0,0 UV-I 0 W/m 9,8 C 3,2 km/h (1 Bft)
22.08.2016 21:23 11,9 C 11,9 C 87 % 1028,9 hPa 0,0 mm 1,5 km/h (1 Bft) S-SO 159 0 min 0,000 mm 0,0 UV-I 0 W/m 9,8 C 3,2 km/h (1 Bft)
22.08.2016 21:24 11,9 C 11,9 C 87 % 1028,9 hPa 0,0 mm 1,5 km/h (1 Bft) S-SO 159 0 min 0,000 mm 0,0 UV-I 0 W/m 9,8 C 1,6 km/h (1 Bft)
22.08.2016 21:25 11,8 C 11,9 C 87 % 1028,9 hPa 0,0 mm 1,5 km/h (1 Bft) S-SO 159 0 min 0,000 mm 0,0 UV-I 0 W/m 9,7 C 1,6 km/h (1 Bft)
22.08.2016 21:26 11,8 C 11,8 C 87 % 1028,9 hPa 0,0 mm 1,5 km/h (1 Bft) S-SO 159 0 min 0,000 mm 0,0 UV-I 0 W/m 9,7 C 3,2 km/h (1 Bft)
22.08.2016 21:27 11,8 C 11,8 C 87 % 1028,9 hPa 0,0 mm 0,8 km/h (0 Bft) S-SO 159 0 min 0,000 mm 0,0 UV-I 0 W/m 9,7 C 3,2 km/h (1 Bft)
22.08.2016 21:28 11,8 C 11,8 C 87 % 1028,9 hPa 0,0 mm 0,9 km/h (0 Bft) S-SO 159 0 min 0,000 mm 0,0 UV-I 0 W/m 9,7 C 1,6 km/h (1 Bft)
22.08.2016 21:29 11,8 C 11,8 C 87 % 1028,9 hPa 0,0 mm 1,1 km/h (1 Bft) S-SO 159 0 min 0,000 mm 0,0 UV-I 0 W/m 9,7 C 1,6 km/h (1 Bft)
22.08.2016 21:30 11,8 C 11,8 C 87 % 1028,9 hPa 0,0 mm 0,8 km/h (0 Bft) S-SO 159 0 min 0,000 mm 0,0 UV-I 0 W/m 9,7 C 1,6 km/h (1 Bft)
22.08.2016 21:31 11,8 C 11,8 C 87 % 1028,9 hPa 0,0 mm 0,1 km/h (0 Bft) S-SO 159 0 min 0,000 mm 0,0 UV-I 0 W/m 9,7 C 1,6 km/h (1 Bft)
22.08.2016 21:32 11,8 C 11,8 C 87 % 1028,9 hPa 0,0 mm 0,1 km/h (0 Bft) S-SO 159 0 min 0,000 mm 0,0 UV-I 0 W/m 9,7 C 1,6 km/h (1 Bft)
22.08.2016 21:33 11,8 C 11,8 C 87 % 1028,9 hPa 0,0 mm 0,6 km/h (0 Bft) S-SO 159 0 min 0,000 mm 0,0 UV-I 0 W/m 9,7 C 1,6 km/h (1 Bft)
22.08.2016 21:34 11,9 C 11,9 C 87 % 1028,9 hPa 0,0 mm 0,3 km/h (0 Bft) S-SO 159 0 min 0,000 mm 0,0 UV-I 0 W/m 9,8 C 1,6 km/h (1 Bft)
22.08.2016 21:35 11,8 C 11,9 C 87 % 1029,0 hPa 0,0 mm 0,3 km/h (0 Bft) S-SO 159 0 min 0,000 mm 0,0 UV-I 0 W/m 9,7 C 1,6 km/h (1 Bft)
22.08.2016 21:36 11,8 C 11,8 C 87 % 1029,0 hPa 0,0 mm 0,4 km/h (0 Bft) S-SO 159 0 min 0,000 mm 0,0 UV-I 0 W/m 9,7 C 1,6 km/h (1 Bft)
22.08.2016 21:37 11,8 C 11,8 C 87 % 1029,0 hPa 0,0 mm 0,3 km/h (0 Bft) S-SO 159 0 min 0,000 mm 0,0 UV-I 0 W/m 9,7 C 1,6 km/h (1 Bft)
22.08.2016 21:38 11,8 C 11,8 C 87 % 1029,0 hPa 0,0 mm 0,1 km/h (0 Bft) S-SO 159 0 min 0,000 mm 0,0 UV-I 0 W/m 9,7 C 1,6 km/h (1 Bft)
22.08.2016 21:39 11,8 C 11,8 C 87 % 1029,0 hPa 0,0 mm 0,0 km/h (0 Bft) S-SO 159 0 min 0,000 mm 0,0 UV-I 0 W/m 9,7 C 0,0 km/h (0 Bft)
22.08.2016 21:40 11,8 C 11,8 C 87 % 1029,0 hPa 0,0 mm 0,1 km/h (0 Bft) S-SO 159 0 min 0,000 mm 0,0 UV-I 0 W/m 9,7 C 1,6 km/h (1 Bft)
22.08.2016 21:41 11,8 C 11,9 C 87 % 1029,0 hPa 0,0 mm 0,2 km/h (0 Bft) S-SO 159 0 min 0,000 mm 0,0 UV-I 0 W/m 9,7 C 1,6 km/h (1 Bft)
22.08.2016 21:42 11,8 C 11,9 C 87 % 1029,0 hPa 0,0 mm 0,1 km/h (0 Bft) S-SO 159 0 min 0,000 mm 0,0 UV-I 0 W/m 9,7 C 1,6 km/h (1 Bft)
22.08.2016 21:43 11,8 C 11,9 C 87 % 1029,0 hPa 0,0 mm 1,1 km/h (1 Bft) S-SO 159 0 min 0,000 mm 0,0 UV-I 0 W/m 9,7 C 1,6 km/h (1 Bft)
22.08.2016 21:44 11,8 C 11,8 C 87 % 1029,0 hPa 0,0 mm 0,3 km/h (0 Bft) S-SO 159 0 min 0,000 mm 0,0 UV-I 0 W/m 9,7 C 1,6 km/h (1 Bft)
22.08.2016 21:45 11,8 C 11,8 C 87 % 1029,0 hPa 0,0 mm 0,3 km/h (0 Bft) S-SO 159 0 min 0,000 mm 0,0 UV-I 0 W/m 9,7 C 1,6 km/h (1 Bft)
22.08.2016 21:46 11,8 C 11,9 C 87 % 1029,0 hPa 0,0 mm 0,3 km/h (0 Bft) S-SO 159 0 min 0,000 mm 0,0 UV-I 0 W/m 9,7 C 1,6 km/h (1 Bft)
22.08.2016 21:47 11,8 C 11,9 C 87 % 1029,0 hPa 0,0 mm 1,4 km/h (1 Bft) S-SO 159 0 min 0,000 mm 0,0 UV-I 0 W/m 9,7 C 3,2 km/h (1 Bft)
22.08.2016 21:48 11,8 C 11,9 C 87 % 1029,0 hPa 0,0 mm 0,3 km/h (0 Bft) S-SO 159 0 min 0,000 mm 0,0 UV-I 0 W/m 9,7 C 1,6 km/h (1 Bft)
22.08.2016 21:49 11,8 C 11,8 C 87 % 1029,0 hPa 0,0 mm 0,9 km/h (0 Bft) S-SO 159 0 min 0,000 mm 0,0 UV-I 0 W/m 9,7 C 1,6 km/h (1 Bft)
22.08.2016 21:50 11,8 C 11,8 C 87 % 1029,0 hPa 0,0 mm 1,3 km/h (1 Bft) S-SO 159 0 min 0,000 mm 0,0 UV-I 0 W/m 9,7 C 1,6 km/h (1 Bft)
22.08.2016 21:51 11,8 C 11,8 C 87 % 1029,0 hPa 0,0 mm 1,1 km/h (1 Bft) S-SO 159 0 min 0,000 mm 0,0 UV-I 0 W/m 9,7 C 1,6 km/h (1 Bft)
22.08.2016 21:52 11,7 C 11,8 C 87 % 1029,0 hPa 0,0 mm 0,9 km/h (0 Bft) S-SO 159 0 min 0,000 mm 0,0 UV-I 0 W/m 9,6 C 1,6 km/h (1 Bft)
22.08.2016 21:53 11,7 C 11,7 C 87 % 1029,0 hPa 0,0 mm 0,3 km/h (0 Bft) S-SO 159 0 min 0,000 mm 0,0 UV-I 0 W/m 9,6 C 1,6 km/h (1 Bft)
22.08.2016 21:54 11,8 C 11,8 C 87 % 1029,0 hPa 0,0 mm 0,1 km/h (0 Bft) S-SO 159 0 min 0,000 mm 0,0 UV-I 0 W/m 9,7 C 1,6 km/h (1 Bft)
22.08.2016 21:55 11,8 C 11,8 C 87 % 1029,0 hPa 0,0 mm 0,5 km/h (0 Bft) S-SO 159 0 min 0,000 mm 0,0 UV-I 0 W/m 9,7 C 1,6 km/h (1 Bft)
22.08.2016 21:56 11,8 C 11,8 C 87 % 1028,9 hPa 0,0 mm 0,3 km/h (0 Bft) S-SO 159 0 min 0,000 mm 0,0 UV-I 0 W/m 9,7 C 1,6 km/h (1 Bft)
22.08.2016 21:57 11,8 C 11,8 C 87 % 1028,9 hPa 0,0 mm 0,2 km/h (0 Bft) S-SO 159 0 min 0,000 mm 0,0 UV-I 0 W/m 9,7 C 1,6 km/h (1 Bft)
22.08.2016 21:58 11,8 C 11,8 C 87 % 1028,9 hPa 0,0 mm 0,1 km/h (0 Bft) S-SO 159 0 min 0,000 mm 0,0 UV-I 0 W/m 9,7 C 1,6 km/h (1 Bft)
22.08.2016 21:59 11,8 C 11,8 C 87 % 1028,9 hPa 0,0 mm 0,3 km/h (0 Bft) S-SO 159 0 min 0,000 mm 0,0 UV-I 0 W/m 9,7 C 1,6 km/h (1 Bft)
22.08.2016 22:00 11,8 C 11,8 C 87 % 1028,9 hPa 0,0 mm 0,0 km/h (0 Bft) S-SO 159 0 min 0,000 mm 0,0 UV-I 0 W/m 9,7 C 0,0 km/h (0 Bft)
22.08.2016 22:01 11,8 C 11,8 C 87 % 1028,9 hPa 0,0 mm 0,6 km/h (0 Bft) S-SO 159 0 min 0,000 mm 0,0 UV-I 0 W/m 9,7 C 1,6 km/h (1 Bft)
22.08.2016 22:02 11,8 C 11,8 C 87 % 1028,9 hPa 0,0 mm 0,1 km/h (0 Bft) S-SO 159 0 min 0,000 mm 0,0 UV-I 0 W/m 9,7 C 1,6 km/h (1 Bft)
22.08.2016 22:03 11,8 C 11,8 C 87 % 1029,0 hPa 0,0 mm 0,8 km/h (0 Bft) S-SO 159 0 min 0,000 mm 0,0 UV-I 0 W/m 9,7 C 3,2 km/h (1 Bft)
22.08.2016 22:04 11,7 C 11,8 C 87 % 1028,9 hPa 0,0 mm 0,2 km/h (0 Bft) S-SO 159 0 min 0,000 mm 0,0 UV-I 0 W/m 9,6 C 1,6 km/h (1 Bft)
22.08.2016 22:05 11,7 C 11,8 C 87 % 1028,9 hPa 0,0 mm 0,0 km/h (0 Bft) S-SO 159 0 min 0,000 mm 0,0 UV-I 0 W/m 9,6 C 0,0 km/h (0 Bft)
22.08.2016 22:06 11,8 C 11,8 C 87 % 1028,9 hPa 0,0 mm 1,1 km/h (1 Bft) S-SO 159 0 min 0,000 mm 0,0 UV-I 0 W/m 9,7 C 3,2 km/h (1 Bft)
22.08.2016 22:07 11,8 C 11,8 C 87 % 1028,9 hPa 0,0 mm 0,3 km/h (0 Bft) S-SO 159 0 min 0,000 mm 0,0 UV-I 0 W/m 9,7 C 1,6 km/h (1 Bft)
22.08.2016 22:08 11,8 C 11,8 C 87 % 1029,0 hPa 0,0 mm 0,3 km/h (0 Bft) S-SO 159 0 min 0,000 mm 0,0 UV-I 0 W/m 9,7 C 1,6 km/h (1 Bft)
22.08.2016 22:09 11,8 C 11,8 C 87 % 1029,0 hPa 0,0 mm 0,3 km/h (0 Bft) S-SO 159 0 min 0,000 mm 0,0 UV-I 0 W/m 9,7 C 1,6 km/h (1 Bft)
22.08.2016 22:10 11,8 C 11,8 C 87 % 1028,9 hPa 0,0 mm 0,3 km/h (0 Bft) S-SO 159 0 min 0,000 mm 0,0 UV-I 0 W/m 9,7 C 1,6 km/h (1 Bft)
22.08.2016 22:11 11,8 C 11,8 C 87 % 1028,9 hPa 0,0 mm 0,0 km/h (0 Bft) S-SO 159 0 min 0,000 mm 0,0 UV-I 0 W/m 9,7 C 0,0 km/h (0 Bft)
22.08.2016 22:12 11,7 C 11,8 C 87 % 1029,0 hPa 0,0 mm 0,0 km/h (0 Bft) S-SO 159 0 min 0,000 mm 0,0 UV-I 0 W/m 9,6 C 0,0 km/h (0 Bft)
22.08.2016 22:13 11,7 C 11,8 C 86 % 1028,9 hPa 0,0 mm 0,0 km/h (0 Bft) S-SO 159 0 min 0,000 mm 0,0 UV-I 0 W/m 9,4 C 0,0 km/h (0 Bft)
22.08.2016 22:14 11,7 C 11,7 C 87 % 1028,9 hPa 0,0 mm 0,0 km/h (0 Bft) S-SO 159 0 min 0,000 mm 0,0 UV-I 0 W/m 9,6 C 0,0 km/h (0 Bft)
22.08.2016 22:15 11,7 C 11,7 C 87 % 1028,9 hPa 0,0 mm 0,0 km/h (0 Bft) S-SO 159 0 min 0,000 mm 0,0 UV-I 0 W/m 9,6 C 0,0 km/h (0 Bft)
22.08.2016 22:16 11,7 C 11,7 C 87 % 1028,9 hPa 0,0 mm 0,0 km/h (0 Bft) S-SO 159 0 min 0,000 mm 0,0 UV-I 0 W/m 9,6 C 0,0 km/h (0 Bft)
22.08.2016 22:17 11,6 C 11,7 C 87 % 1028,9 hPa 0,0 mm 0,0 km/h (0 Bft) S-SO 159 0 min 0,000 mm 0,0 UV-I 0 W/m 9,5 C 0,0 km/h (0 Bft)
22.08.2016 22:18 11,6 C 11,6 C 87 % 1028,9 hPa 0,0 mm 0,2 km/h (0 Bft) S-SO 159 0 min 0,000 mm 0,0 UV-I 0 W/m 9,5 C 1,6 km/h (1 Bft)
22.08.2016 22:19 11,6 C 11,6 C 87 % 1028,9 hPa 0,0 mm 0,1 km/h (0 Bft) S-SO 159 0 min 0,000 mm 0,0 UV-I 0 W/m 9,5 C 1,6 km/h (1 Bft)
22.08.2016 22:20 11,6 C 11,6 C 87 % 1028,9 hPa 0,0 mm 0,7 km/h (0 Bft) S-SO 159 0 min 0,000 mm 0,0 UV-I 0 W/m 9,5 C 1,6 km/h (1 Bft)
22.08.2016 22:21 11,6 C 11,6 C 87 % 1028,9 hPa 0,0 mm 0,0 km/h (0 Bft) S-SO 159 0 min 0,000 mm 0,0 UV-I 0 W/m 9,5 C 0,0 km/h (0 Bft)
22.08.2016 22:22 11,6 C 11,7 C 87 % 1028,9 hPa 0,0 mm 0,0 km/h (0 Bft) S-SO 159 0 min 0,000 mm 0,0 UV-I 0 W/m 9,5 C 0,0 km/h (0 Bft)
22.08.2016 22:23 11,6 C 11,6 C 87 % 1028,9 hPa 0,0 mm 0,0 km/h (0 Bft) S-SO 159 0 min 0,000 mm 0,0 UV-I 0 W/m 9,5 C 0,0 km/h (0 Bft)
22.08.2016 22:24 11,5 C 11,6 C 87 % 1028,9 hPa 0,0 mm 0,0 km/h (0 Bft) S-SO 159 0 min 0,000 mm 0,0 UV-I 0 W/m 9,4 C 0,0 km/h (0 Bft)
22.08.2016 22:25 11,5 C 11,6 C 87 % 1028,9 hPa 0,0 mm 0,0 km/h (0 Bft) S-SO 159 0 min 0,000 mm 0,0 UV-I 0 W/m 9,4 C 0,0 km/h (0 Bft)
22.08.2016 22:26 11,5 C 11,5 C 88 % 1028,9 hPa 0,0 mm 0,0 km/h (0 Bft) S-SO 159 0 min 0,000 mm 0,0 UV-I 0 W/m 9,6 C 0,0 km/h (0 Bft)
22.08.2016 22:27 11,5 C 11,5 C 87 % 1029,0 hPa 0,0 mm 0,0 km/h (0 Bft) S-SO 159 0 min 0,000 mm 0,0 UV-I 0 W/m 9,4 C 0,0 km/h (0 Bft)
22.08.2016 22:28 11,4 C 11,5 C 87 % 1028,9 hPa 0,0 mm 0,0 km/h (0 Bft) S-SO 159 0 min 0,000 mm 0,0 UV-I 0 W/m 9,3 C 0,0 km/h (0 Bft)
22.08.2016 22:29 11,4 C 11,4 C 88 % 1028,9 hPa 0,0 mm 0,0 km/h (0 Bft) S-SO 159 0 min 0,000 mm 0,0 UV-I 0 W/m 9,5 C 0,0 km/h (0 Bft)
22.08.2016 22:30 11,4 C 11,4 C 88 % 1028,9 hPa 0,0 mm 0,0 km/h (0 Bft) S-SO 159 0 min 0,000 mm 0,0 UV-I 0 W/m 9,5 C 0,0 km/h (0 Bft)
22.08.2016 22:31 11,3 C 11,4 C 88 % 1028,9 hPa 0,0 mm 0,0 km/h (0 Bft) S-SO 159 0 min 0,000 mm 0,0 UV-I 0 W/m 9,4 C 0,0 km/h (0 Bft)
22.08.2016 22:32 11,3 C 11,3 C 88 % 1028,9 hPa 0,0 mm 0,0 km/h (0 Bft) S-SO 159 0 min 0,000 mm 0,0 UV-I 0 W/m 9,4 C 0,0 km/h (0 Bft)
22.08.2016 22:33 11,4 C 11,4 C 88 % 1028,9 hPa 0,0 mm 0,0 km/h (0 Bft) S-SO 159 0 min 0,000 mm 0,0 UV-I 0 W/m 9,5 C 0,0 km/h (0 Bft)
22.08.2016 22:34 11,3 C 11,4 C 88 % 1028,9 hPa 0,0 mm 0,0 km/h (0 Bft) S-SO 159 0 min 0,000 mm 0,0 UV-I 0 W/m 9,4 C 0,0 km/h (0 Bft)
22.08.2016 22:35 11,4 C 11,4 C 88 % 1028,9 hPa 0,0 mm 0,0 km/h (0 Bft) S-SO 159 0 min 0,000 mm 0,0 UV-I 0 W/m 9,5 C 0,0 km/h (0 Bft)
22.08.2016 22:36 11,4 C 11,4 C 88 % 1028,9 hPa 0,0 mm 0,1 km/h (0 Bft) S-SW 206 0 min 0,000 mm 0,0 UV-I 0 W/m 9,5 C 1,6 km/h (1 Bft)
22.08.2016 22:37 11,4 C 11,4 C 88 % 1028,9 hPa 0,0 mm 0,7 km/h (0 Bft) S-SW 208 0 min 0,000 mm 0,0 UV-I 0 W/m 9,5 C 1,6 km/h (1 Bft)
22.08.2016 22:38 11,4 C 11,4 C 88 % 1028,9 hPa 0,0 mm 0,0 km/h (0 Bft) S-SW 208 0 min 0,000 mm 0,0 UV-I 0 W/m 9,5 C 0,0 km/h (0 Bft)
22.08.2016 22:39 11,4 C 11,4 C 88 % 1028,9 hPa 0,0 mm 0,0 km/h (0 Bft) S-SW 208 0 min 0,000 mm 0,0 UV-I 0 W/m 9,5 C 0,0 km/h (0 Bft)
22.08.2016 22:40 11,4 C 11,4 C 88 % 1028,9 hPa 0,0 mm 0,6 km/h (0 Bft) SW 223 0 min 0,000 mm 0,0 UV-I 0 W/m 9,5 C 1,6 km/h (1 Bft)
22.08.2016 22:41 11,4 C 11,4 C 88 % 1028,9 hPa 0,0 mm 0,3 km/h (0 Bft) SW 223 0 min 0,000 mm 0,0 UV-I 0 W/m 9,5 C 1,6 km/h (1 Bft)
22.08.2016 22:42 11,4 C 11,4 C 88 % 1028,9 hPa 0,0 mm 0,0 km/h (0 Bft) SW 223 0 min 0,000 mm 0,0 UV-I 0 W/m 9,5 C 0,0 km/h (0 Bft)
22.08.2016 22:43 11,3 C 11,4 C 88 % 1028,9 hPa 0,0 mm 0,5 km/h (0 Bft) SW 223 0 min 0,000 mm 0,0 UV-I 0 W/m 9,4 C 1,6 km/h (1 Bft)
22.08.2016 22:44 11,3 C 11,3 C 88 % 1028,9 hPa 0,0 mm 0,1 km/h (0 Bft) SW 223 0 min 0,000 mm 0,0 UV-I 0 W/m 9,4 C 1,6 km/h (1 Bft)
22.08.2016 22:45 11,3 C 11,3 C 88 % 1028,9 hPa 0,0 mm 0,0 km/h (0 Bft) SW 223 0 min 0,000 mm 0,0 UV-I 0 W/m 9,4 C 0,0 km/h (0 Bft)
22.08.2016 22:46 11,3 C 11,3 C 88 % 1028,9 hPa 0,0 mm 0,0 km/h (0 Bft) SW 223 0 min 0,000 mm 0,0 UV-I 0 W/m 9,4 C 0,0 km/h (0 Bft)
22.08.2016 22:47 11,3 C 11,3 C 88 % 1028,9 hPa 0,0 mm 0,1 km/h (0 Bft) SW 223 0 min 0,000 mm 0,0 UV-I 0 W/m 9,4 C 1,6 km/h (1 Bft)
22.08.2016 22:48 11,3 C 11,3 C 88 % 1028,9 hPa 0,0 mm 0,1 km/h (0 Bft) SW 223 0 min 0,000 mm 0,0 UV-I 0 W/m 9,4 C 1,6 km/h (1 Bft)
22.08.2016 22:49 11,3 C 11,3 C 88 % 1028,9 hPa 0,0 mm 0,4 km/h (0 Bft) SW 223 0 min 0,000 mm 0,0 UV-I 0 W/m 9,4 C 1,6 km/h (1 Bft)
22.08.2016 22:50 11,3 C 11,3 C 88 % 1028,9 hPa 0,0 mm 0,0 km/h (0 Bft) SW 223 0 min 0,000 mm 0,0 UV-I 0 W/m 9,4 C 0,0 km/h (0 Bft)
22.08.2016 22:51 11,3 C 11,3 C 88 % 1028,9 hPa 0,0 mm 0,1 km/h (0 Bft) SW 223 0 min 0,000 mm 0,0 UV-I 0 W/m 9,4 C 1,6 km/h (1 Bft)
22.08.2016 22:52 11,3 C 11,3 C 88 % 1028,9 hPa 0,0 mm 0,0 km/h (0 Bft) SW 223 0 min 0,000 mm 0,0 UV-I 0 W/m 9,4 C 0,0 km/h (0 Bft)
22.08.2016 22:53 11,3 C 11,3 C 88 % 1028,9 hPa 0,0 mm 0,0 km/h (0 Bft) SW 223 0 min 0,000 mm 0,0 UV-I 0 W/m 9,4 C 0,0 km/h (0 Bft)
22.08.2016 22:54 11,3 C 11,3 C 88 % 1028,9 hPa 0,0 mm 0,0 km/h (0 Bft) SW 223 0 min 0,000 mm 0,0 UV-I 0 W/m 9,4 C 0,0 km/h (0 Bft)
22.08.2016 22:55 11,3 C 11,3 C 88 % 1028,9 hPa 0,0 mm 0,3 km/h (0 Bft) SW 223 0 min 0,000 mm 0,0 UV-I 0 W/m 9,4 C 1,6 km/h (1 Bft)
22.08.2016 22:56 11,3 C 11,3 C 88 % 1028,9 hPa 0,0 mm 0,1 km/h (0 Bft) SW 223 0 min 0,000 mm 0,0 UV-I 0 W/m 9,4 C 1,6 km/h (1 Bft)
22.08.2016 22:57 11,3 C 11,3 C 89 % 1028,9 hPa 0,0 mm 0,1 km/h (0 Bft) SW 223 0 min 0,000 mm 0,0 UV-I 0 W/m 9,6 C 1,6 km/h (1 Bft)
22.08.2016 22:58 11,3 C 11,3 C 89 % 1028,9 hPa 0,0 mm 0,1 km/h (0 Bft) SW 223 0 min 0,000 mm 0,0 UV-I 0 W/m 9,6 C 1,6 km/h (1 Bft)
22.08.2016 22:59 11,3 C 11,3 C 88 % 1028,9 hPa 0,0 mm 0,0 km/h (0 Bft) SW 223 0 min 0,000 mm 0,0 UV-I 0 W/m 9,4 C 0,0 km/h (0 Bft)
22.08.2016 23:00 11,3 C 11,3 C 88 % 1028,9 hPa 0,0 mm 0,0 km/h (0 Bft) SW 223 0 min 0,000 mm 0,0 UV-I 0 W/m 9,4 C 0,0 km/h (0 Bft)
22.08.2016 23:01 11,2 C 11,3 C 88 % 1028,9 hPa 0,0 mm 0,7 km/h (0 Bft) SW 223 0 min 0,000 mm 0,0 UV-I 0 W/m 9,3 C 1,6 km/h (1 Bft)
22.08.2016 23:02 11,2 C 11,2 C 89 % 1028,9 hPa 0,0 mm 0,1 km/h (0 Bft) SW 223 0 min 0,000 mm 0,0 UV-I 0 W/m 9,5 C 1,6 km/h (1 Bft)
22.08.2016 23:03 11,2 C 11,2 C 89 % 1028,9 hPa 0,0 mm 0,2 km/h (0 Bft) SW 223 0 min 0,000 mm 0,0 UV-I 0 W/m 9,5 C 1,6 km/h (1 Bft)
22.08.2016 23:04 11,2 C 11,2 C 89 % 1028,9 hPa 0,0 mm 0,0 km/h (0 Bft) SW 223 0 min 0,000 mm 0,0 UV-I 0 W/m 9,5 C 0,0 km/h (0 Bft)
22.08.2016 23:05 11,2 C 11,3 C 89 % 1028,9 hPa 0,0 mm 0,0 km/h (0 Bft) SW 223 0 min 0,000 mm 0,0 UV-I 0 W/m 9,5 C 0,0 km/h (0 Bft)
22.08.2016 23:06 11,3 C 11,3 C 89 % 1028,9 hPa 0,0 mm 0,1 km/h (0 Bft) SW 223 0 min 0,000 mm 0,0 UV-I 0 W/m 9,6 C 1,6 km/h (1 Bft)
22.08.2016 23:07 11,2 C 11,3 C 89 % 1028,9 hPa 0,0 mm 0,0 km/h (0 Bft) SW 223 0 min 0,000 mm 0,0 UV-I 0 W/m 9,5 C 0,0 km/h (0 Bft)
22.08.2016 23:08 11,2 C 11,2 C 89 % 1028,9 hPa 0,0 mm 0,0 km/h (0 Bft) SW 223 0 min 0,000 mm 0,0 UV-I 0 W/m 9,5 C 0,0 km/h (0 Bft)
22.08.2016 23:09 11,2 C 11,2 C 89 % 1028,9 hPa 0,0 mm 0,0 km/h (0 Bft) SW 223 0 min 0,000 mm 0,0 UV-I 0 W/m 9,5 C 0,0 km/h (0 Bft)
22.08.2016 23:10 11,1 C 11,2 C 89 % 1028,9 hPa 0,0 mm 0,0 km/h (0 Bft) SW 223 0 min 0,000 mm 0,0 UV-I 0 W/m 9,4 C 0,0 km/h (0 Bft)
22.08.2016 23:11 11,1 C 11,2 C 89 % 1029,0 hPa 0,0 mm 0,1 km/h (0 Bft) SW 223 0 min 0,000 mm 0,0 UV-I 0 W/m 9,4 C 1,6 km/h (1 Bft)
22.08.2016 23:12 11,1 C 11,1 C 89 % 1028,9 hPa 0,0 mm 0,0 km/h (0 Bft) SW 223 0 min 0,000 mm 0,0 UV-I 0 W/m 9,4 C 0,0 km/h (0 Bft)
22.08.2016 23:13 11,1 C 11,1 C 89 % 1028,9 hPa 0,0 mm 0,0 km/h (0 Bft) SW 223 0 min 0,000 mm 0,0 UV-I 0 W/m 9,4 C 0,0 km/h (0 Bft)
22.08.2016 23:14 11,0 C 11,1 C 89 % 1028,9 hPa 0,0 mm 0,0 km/h (0 Bft) SW 223 0 min 0,000 mm 0,0 UV-I 0 W/m 9,3 C 0,0 km/h (0 Bft)
22.08.2016 23:15 11,1 C 11,1 C 89 % 1028,9 hPa 0,0 mm 0,0 km/h (0 Bft) SW 223 0 min 0,000 mm 0,0 UV-I 0 W/m 9,4 C 0,0 km/h (0 Bft)
22.08.2016 23:16 11,0 C 11,1 C 89 % 1028,9 hPa 0,0 mm 0,0 km/h (0 Bft) SW 223 0 min 0,000 mm 0,0 UV-I 0 W/m 9,3 C 0,0 km/h (0 Bft)
22.08.2016 23:17 11,0 C 11,0 C 89 % 1028,9 hPa 0,0 mm 0,7 km/h (0 Bft) SW 223 0 min 0,000 mm 0,0 UV-I 0 W/m 9,3 C 1,6 km/h (1 Bft)
22.08.2016 23:18 11,0 C 11,0 C 89 % 1028,9 hPa 0,0 mm 0,1 km/h (0 Bft) SW 223 0 min 0,000 mm 0,0 UV-I 0 W/m 9,3 C 1,6 km/h (1 Bft)
22.08.2016 23:19 11,0 C 11,0 C 89 % 1028,9 hPa 0,0 mm 0,0 km/h (0 Bft) SW 223 0 min 0,000 mm 0,0 UV-I 0 W/m 9,3 C 0,0 km/h (0 Bft)
22.08.2016 23:20 10,9 C 11,0 C 89 % 1028,9 hPa 0,0 mm 0,0 km/h (0 Bft) SW 223 0 min 0,000 mm 0,0 UV-I 0 W/m 9,2 C 0,0 km/h (0 Bft)
22.08.2016 23:21 10,9 C 10,9 C 89 % 1028,9 hPa 0,0 mm 0,0 km/h (0 Bft) SW 223 0 min 0,000 mm 0,0 UV-I 0 W/m 9,2 C 0,0 km/h (0 Bft)
22.08.2016 23:22 11,0 C 11,0 C 89 % 1028,9 hPa 0,0 mm 0,0 km/h (0 Bft) SW 223 0 min 0,000 mm 0,0 UV-I 0 W/m 9,3 C 0,0 km/h (0 Bft)
22.08.2016 23:23 10,9 C 11,0 C 89 % 1028,9 hPa 0,0 mm 0,0 km/h (0 Bft) SW 223 0 min 0,000 mm 0,0 UV-I 0 W/m 9,2 C 0,0 km/h (0 Bft)
22.08.2016 23:24 10,9 C 10,9 C 90 % 1028,9 hPa 0,0 mm 0,3 km/h (0 Bft) SW 223 0 min 0,000 mm 0,0 UV-I 0 W/m 9,3 C 1,6 km/h (1 Bft)
22.08.2016 23:25 10,9 C 10,9 C 89 % 1028,8 hPa 0,0 mm 1,0 km/h (0 Bft) SW 223 0 min 0,000 mm 0,0 UV-I 0 W/m 9,2 C 1,6 km/h (1 Bft)
22.08.2016 23:26 10,9 C 10,9 C 90 % 1028,8 hPa 0,0 mm 0,4 km/h (0 Bft) SW 223 0 min 0,000 mm 0,0 UV-I 0 W/m 9,3 C 1,6 km/h (1 Bft)
22.08.2016 23:27 10,9 C 10,9 C 90 % 1028,9 hPa 0,0 mm 0,2 km/h (0 Bft) SW 223 0 min 0,000 mm 0,0 UV-I 0 W/m 9,3 C 1,6 km/h (1 Bft)
22.08.2016 23:28 10,9 C 10,9 C 89 % 1028,8 hPa 0,0 mm 1,3 km/h (1 Bft) SW 223 0 min 0,000 mm 0,0 UV-I 0 W/m 9,2 C 3,2 km/h (1 Bft)
22.08.2016 23:29 10,9 C 10,9 C 90 % 1028,8 hPa 0,0 mm 1,1 km/h (1 Bft) SW 223 0 min 0,000 mm 0,0 UV-I 0 W/m 9,3 C 1,6 km/h (1 Bft)
22.08.2016 23:30 10,9 C 10,9 C 89 % 1028,8 hPa 0,0 mm 2,5 km/h (1 Bft) W-SW 257 0 min 0,000 mm 0,0 UV-I 0 W/m 9,2 C 4,8 km/h (1 Bft)
22.08.2016 23:31 10,9 C 10,9 C 89 % 1028,8 hPa 0,0 mm 0,7 km/h (0 Bft) W-SW 257 0 min 0,000 mm 0,0 UV-I 0 W/m 9,2 C 1,6 km/h (1 Bft)
22.08.2016 23:32 10,9 C 11,0 C 89 % 1028,8 hPa 0,0 mm 0,7 km/h (0 Bft) W-SW 257 0 min 0,000 mm 0,0 UV-I 0 W/m 9,2 C 1,6 km/h (1 Bft)
22.08.2016 23:33 11,0 C 11,0 C 89 % 1028,7 hPa 0,0 mm 0,3 km/h (0 Bft) W-SW 257 0 min 0,000 mm 0,0 UV-I 0 W/m 9,3 C 1,6 km/h (1 Bft)
22.08.2016 23:34 11,0 C 11,0 C 89 % 1028,8 hPa 0,0 mm 0,0 km/h (0 Bft) W-SW 257 0 min 0,000 mm 0,0 UV-I 0 W/m 9,3 C 0,0 km/h (0 Bft)
22.08.2016 23:35 11,1 C 11,1 C 89 % 1028,8 hPa 0,0 mm 0,0 km/h (0 Bft) W-SW 257 0 min 0,000 mm 0,0 UV-I 0 W/m 9,4 C 0,0 km/h (0 Bft)
22.08.2016 23:36 11,1 C 11,1 C 89 % 1028,8 hPa 0,0 mm 0,0 km/h (0 Bft) W-SW 257 0 min 0,000 mm 0,0 UV-I 0 W/m 9,4 C 0,0 km/h (0 Bft)
22.08.2016 23:37 11,1 C 11,1 C 89 % 1028,8 hPa 0,0 mm 0,0 km/h (0 Bft) NW 305 0 min 0,000 mm 0,0 UV-I 0 W/m 9,4 C 0,0 km/h (0 Bft)
22.08.2016 23:38 11,1 C 11,1 C 89 % 1028,8 hPa 0,0 mm 1,5 km/h (1 Bft) W 281 0 min 0,000 mm 0,0 UV-I 0 W/m 9,4 C 4,8 km/h (1 Bft)
22.08.2016 23:39 11,1 C 11,1 C 89 % 1028,7 hPa 0,0 mm 0,3 km/h (0 Bft) W 281 0 min 0,000 mm 0,0 UV-I 0 W/m 9,4 C 1,6 km/h (1 Bft)
22.08.2016 23:40 11,2 C 11,2 C 89 % 1028,7 hPa 0,0 mm 0,5 km/h (0 Bft) W 281 0 min 0,000 mm 0,0 UV-I 0 W/m 9,5 C 1,6 km/h (1 Bft)
22.08.2016 23:41 11,1 C 11,2 C 89 % 1028,7 hPa 0,0 mm 0,8 km/h (0 Bft) W 281 0 min 0,000 mm 0,0 UV-I 0 W/m 9,4 C 1,6 km/h (1 Bft)
22.08.2016 23:42 11,2 C 11,2 C 88 % 1028,6 hPa 0,0 mm 0,3 km/h (0 Bft) W 281 0 min 0,000 mm 0,0 UV-I 0 W/m 9,3 C 1,6 km/h (1 Bft)
22.08.2016 23:43 11,2 C 11,2 C 89 % 1028,6 hPa 0,0 mm 0,1 km/h (0 Bft) W 281 0 min 0,000 mm 0,0 UV-I 0 W/m 9,5 C 1,6 km/h (1 Bft)
22.08.2016 23:44 11,2 C 11,2 C 88 % 1028,6 hPa 0,0 mm 1,2 km/h (1 Bft) W 281 0 min 0,000 mm 0,0 UV-I 0 W/m 9,3 C 3,2 km/h (1 Bft)
22.08.2016 23:45 11,2 C 11,2 C 88 % 1028,6 hPa 0,0 mm 0,2 km/h (0 Bft) W 281 0 min 0,000 mm 0,0 UV-I 0 W/m 9,3 C 1,6 km/h (1 Bft)
22.08.2016 23:46 11,2 C 11,2 C 88 % 1028,5 hPa 0,0 mm 0,0 km/h (0 Bft) W 281 0 min 0,000 mm 0,0 UV-I 0 W/m 9,3 C 0,0 km/h (0 Bft)
22.08.2016 23:47 11,1 C 11,2 C 88 % 1028,6 hPa 0,0 mm 0,3 km/h (0 Bft) W 281 0 min 0,000 mm 0,0 UV-I 0 W/m 9,2 C 1,6 km/h (1 Bft)
22.08.2016 23:48 11,2 C 11,2 C 88 % 1028,6 hPa 0,0 mm 0,4 km/h (0 Bft) W 281 0 min 0,000 mm 0,0 UV-I 0 W/m 9,3 C 1,6 km/h (1 Bft)
22.08.2016 23:49 11,1 C 11,2 C 88 % 1028,6 hPa 0,0 mm 0,3 km/h (0 Bft) W 281 0 min 0,000 mm 0,0 UV-I 0 W/m 9,2 C 1,6 km/h (1 Bft)
22.08.2016 23:50 11,1 C 11,1 C 88 % 1028,6 hPa 0,0 mm 0,6 km/h (0 Bft) W 281 0 min 0,000 mm 0,0 UV-I 0 W/m 9,2 C 1,6 km/h (1 Bft)
22.08.2016 23:51 11,0 C 11,1 C 89 % 1028,6 hPa 0,0 mm 0,2 km/h (0 Bft) W 281 0 min 0,000 mm 0,0 UV-I 0 W/m 9,3 C 1,6 km/h (1 Bft)
22.08.2016 23:52 11,0 C 11,1 C 89 % 1028,6 hPa 0,0 mm 0,0 km/h (0 Bft) W 281 0 min 0,000 mm 0,0 UV-I 0 W/m 9,3 C 0,0 km/h (0 Bft)
22.08.2016 23:53 11,0 C 11,0 C 89 % 1028,6 hPa 0,0 mm 0,1 km/h (0 Bft) W 281 0 min 0,000 mm 0,0 UV-I 0 W/m 9,3 C 1,6 km/h (1 Bft)
22.08.2016 23:54 11,0 C 11,0 C 89 % 1028,7 hPa 0,0 mm 0,4 km/h (0 Bft) W 281 0 min 0,000 mm 0,0 UV-I 0 W/m 9,3 C 1,6 km/h (1 Bft)
22.08.2016 23:55 10,9 C 11,0 C 89 % 1028,7 hPa 0,0 mm 0,9 km/h (0 Bft) W 281 0 min 0,000 mm 0,0 UV-I 0 W/m 9,2 C 1,6 km/h (1 Bft)
22.08.2016 23:56 10,9 C 10,9 C 89 % 1028,7 hPa 0,0 mm 0,5 km/h (0 Bft) W 281 0 min 0,000 mm 0,0 UV-I 0 W/m 9,2 C 1,6 km/h (1 Bft)
22.08.2016 23:57 11,0 C 11,0 C 89 % 1028,6 hPa 0,0 mm 0,0 km/h (0 Bft) W 281 0 min 0,000 mm 0,0 UV-I 0 W/m 9,3 C 0,0 km/h (0 Bft)
22.08.2016 23:58 10,9 C 11,0 C 89 % 1028,7 hPa 0,0 mm 0,0 km/h (0 Bft) W 281 0 min 0,000 mm 0,0 UV-I 0 W/m 9,2 C 0,0 km/h (0 Bft)
22.08.2016 23:59 10,9 C 10,9 C 89 % 1028,6 hPa 0,0 mm 0,0 km/h (0 Bft) W 281 0 min 0,000 mm 0,0 UV-I 0 W/m 9,2 C 0,0 km/h (0 Bft)
_ Min-Zeit 07:28 07:28 14:41 00:00 - 23:59 - - - - - - 07:27 23:59
Minimum _ 9,6 C 9,6 C 53 % 1025,1 hPa - 0,0 km/h (0 Bft) - - - - - - 8,2 C 0,0 km/h (0 Bft)
_ Max-Zeit 15:39 15:40 05:17 23:11 23:59 15:49 - - 20:04 15:01 12:34 12:38 13:20 10:51
Maximum _ 18,8 C 18,8 C 93 % 1029,0 hPa 0,0 mm 12,8 km/h
NW (3 Bft)
- - 1 min 0,457 mm 7,2 UV-I 1037 W/m 11,9 C 20,9 km/h
NW (4 Bft)
Durchschnitt _ 14,0 C 14,0 C 76 % 1027,3 hPa #0,0 mm 3,4 km/h (1 Bft) S - #6:50 h #3,073 mm 3,6 UV-I 209 W/m 9,7 C 5,7 km/h (1 Bft)